GFSSGP_sfc_30mbdewp_000.txt.gz
Dewpoint
73 71 69 66 52 47 47 48 52 53 53 59 59 57 58 59 55 51 66 68 70 70 72 72 73 72 72 72 72 71 71 73 74 74 74 73 73 73 73 73 73 74 73 73 73 73 72 72 71
71 69 68 62 43 44 45 50 50 53 58 60 60 60 60 58 64 65 66 70 70 71 72 73 73 73 72 72 73 72 72 73 74 74 75 74 74 74 73 74 73 73 73 73 72 72 71 71 71
68 66 61 57 41 43 45 50 54 58 60 59 59 62 61 61 66 66 69 71 72 72 72 73 74 73 73 74 74 74 74 74 74 75 74 74 74 74 73 73 73 73 72 72 71 71 71 71 71
63 61 57 40 36 42 48 51 57 58 60 61 61 60 64 65 65 68 71 72 72 73 73 74 73 73 73 74 74 74 74 74 75 75 74 74 73 72 72 72 72 72 72 72 71 71 71 71 71
60 54 40 38 43 50 51 52 56 56 59 60 61 61 62 66 68 70 71 72 72 73 74 74 74 74 74 74 73 74 74 74 75 75 74 73 73 73 73 73 73 72 72 72 71 71 71 71 71
50 48 37 37 46 51 51 53 56 59 61 61 61 61 64 68 67 69 71 71 74 74 74 74 75 74 74 74 74 75 75 75 75 74 73 73 73 73 73 73 72 71 71 71 71 71 71 72 72
52 44 41 41 49 50 52 58 58 60 60 60 62 59 65 66 68 70 71 73 74 74 75 75 75 74 74 75 75 75 74 74 74 73 74 74 73 73 73 72 72 71 71 71 71 71 72 72 73
49 42 42 41 48 49 54 58 60 58 59 62 62 59 61 66 69 70 71 72 74 74 75 75 75 75 75 76 74 73 74 73 73 74 73 73 73 72 72 72 73 72 72 72 72 71 72 71 72
50 40 39 41 45 46 54 57 59 61 61 60 62 62 64 68 69 69 70 71 72 72 73 75 75 75 75 75 74 73 73 73 73 73 73 74 73 72 72 72 72 71 71 71 72 71 71 71 71
45 41 40 42 44 49 53 56 59 58 58 59 61 65 68 69 69 68 68 68 70 71 72 74 74 75 75 75 75 74 73 73 73 73 73 73 72 72 68 71 71 70 69 72 72 71 72 71 70
44 39 42 43 44 51 52 56 56 56 56 60 60 65 67 68 68 68 68 68 69 71 72 74 74 75 75 75 75 74 74 73 74 74 73 73 71 70 71 69 69 68 71 71 71 70 70 70 70
36 40 43 43 48 50 51 54 56 55 55 59 62 65 67 67 67 68 68 69 70 71 72 73 74 74 74 74 74 74 73 73 73 73 73 72 70 69 68 69 69 70 71 69 69 69 69 69 68
27 28 42 45 45 47 51 53 55 54 59 62 63 65 66 66 67 68 68 70 70 71 72 73 74 74 74 74 74 74 73 73 73 73 72 72 70 69 68 69 70 70 70 69 69 69 69 68 68
24 38 43 46 46 48 51 54 55 57 62 63 63 64 65 65 67 67 69 69 70 71 71 72 73 74 74 74 73 73 72 73 72 72 72 72 71 70 69 69 69 69 69 69 69 69 68 66 67
41 41 43 45 47 52 52 52 52 58 61 63 64 64 65 66 67 67 69 69 70 71 71 72 73 74 73 73 72 72 72 72 72 71 71 71 71 70 70 69 68 68 68 68 68 68 66 66 66
39 41 39 44 47 52 48 45 55 58 59 61 63 64 65 66 67 68 69 69 70 70 71 72 73 73 73 73 72 72 71 72 71 71 71 71 71 71 70 69 68 68 68 68 68 66 65 65 65
36 37 39 42 46 49 48 47 56 58 58 60 62 63 64 65 66 67 68 69 69 70 70 70 72 73 72 72 72 72 71 71 70 70 70 70 70 70 70 69 68 68 68 68 67 66 66 65 65
36 37 38 41 43 47 47 48 56 56 57 58 60 60 62 63 64 65 65 67 68 69 70 70 72 72 72 72 72 71 71 71 71 70 69 70 70 70 70 69 69 69 68 67 67 66 66 66 65
36 38 38 41 42 44 46 48 55 56 55 56 57 58 59 60 61 63 64 65 66 67 69 70 71 72 72 71 71 71 70 70 70 70 70 70 69 70 69 69 69 68 67 67 67 66 66 65 65
35 35 37 36 38 43 46 47 54 56 55 55 56 57 58 59 59 60 62 64 65 66 68 70 71 71 72 71 71 71 70 70 70 70 70 70 70 70 69 68 67 68 67 66 65 65 64 65 66
27 29 26 35 40 45 47 46 51 55 55 56 56 57 57 58 58 59 60 63 64 64 67 69 70 71 72 72 71 71 71 72 71 70 71 71 70 69 69 68 68 66 65 64 63 64 64 63 64
23 24 23 32 37 34 43 34 47 50 53 53 54 55 56 57 58 59 59 61 63 64 66 68 69 70 71 72 71 70 69 69 70 69 70 70 69 68 67 65 65 63 64 63 64 65 65 64 62
21 24 25 30 34 36 42 35 35 49 49 50 52 53 54 56 57 58 59 60 61 64 65 67 68 68 70 71 71 70 69 70 67 65 67 68 65 63 64 63 63 64 64 62 63 64 64 64 63
23 19 25 29 32 30 33 37 33 47 47 48 51 53 54 55 57 58 59 60 61 63 65 66 67 68 70 70 71 70 69 68 66 64 66 66 62 60 61 62 64 64 62 62 62 62 63 63 63
20 20 17 19 25 23 32 38 34 38 47 46 49 52 54 56 58 58 58 60 62 63 65 66 67 67 69 70 71 71 70 68 66 63 65 63 58 58 61 63 63 61 60 60 61 62 62 61 62
20 19 18 13 16 25 35 35 35 38 41 47 49 52 53 55 58 58 59 60 61 63 64 66 67 67 69 71 71 71 71 68 65 62 62 61 58 59 62 61 60 58 58 59 61 60 61 60 61
17 17 19 17 22 18 27 29 31 34 36 43 45 50 51 54 57 59 59 60 61 63 64 66 67 68 69 70 71 70 69 67 64 62 61 60 60 59 60 59 59 57 57 60 60 60 60 61 61
16 20 16 17 14 15 20 21 24 28 32 35 42 47 50 53 57 58 60 61 62 62 64 66 67 68 69 69 69 68 67 65 60 60 60 59 59 58 59 58 58 58 58 59 60 59 59 60 60
17 17 18 19 18 13 12 18 25 23 28 30 37 45 48 50 55 57 61 62 62 62 63 65 67 68 68 68 67 66 64 61 59 58 60 59 57 57 59 58 58 58 59 59 59 59 59 60 60
15 16 17 14 15 20 16 14 24 26 29 37 36 45 45 49 54 56 60 62 63 62 63 65 66 67 68 68 65 63 61 59 59 59 60 60 58 58 59 59 59 59 60 60 59 58 60 59 59

GFSSGP_sfc_30mbdewp_003.txt.gz
Dewpoint
73 73 71 68 50 47 47 49 52 53 54 59 59 58 59 60 55 52 66 68 68 69 70 71 72 72 72 72 71 72 72 73 74 74 73 72 72 73 73 74 74 74 73 73 73 72 72 72 72
69 69 68 60 43 41 45 50 51 53 58 60 60 60 59 58 62 63 65 68 68 68 70 69 73 72 72 72 72 72 73 73 74 74 73 73 73 73 73 74 74 73 73 73 72 72 71 71 71
69 66 62 50 44 39 44 50 54 57 59 57 59 61 60 59 63 63 66 68 68 69 70 71 73 73 72 72 72 72 74 73 73 74 73 73 73 74 74 74 73 73 73 72 72 71 71 71 71
63 61 55 39 41 45 48 52 56 58 59 60 58 57 62 64 63 65 67 68 68 70 70 72 74 73 73 73 73 73 74 73 74 74 74 74 74 73 73 73 73 73 73 72 72 72 72 72 72
59 51 39 42 45 48 50 55 58 56 58 58 58 57 60 66 66 66 68 69 68 69 71 72 74 74 73 73 73 74 74 73 74 74 73 73 73 73 73 73 73 73 72 72 72 71 71 71 72
49 47 37 38 47 50 51 55 57 59 59 59 57 57 61 67 64 66 68 69 68 69 71 71 74 74 74 74 74 74 74 74 74 74 74 73 73 73 73 73 73 72 71 71 71 72 72 72 73
48 43 41 43 48 49 50 54 56 58 58 58 59 58 63 64 64 67 68 69 70 70 71 72 73 74 74 74 74 74 74 74 73 74 74 73 73 73 74 73 73 72 72 72 72 72 72 72 72
48 43 41 43 46 45 53 55 58 57 57 61 60 57 59 62 64 67 68 69 70 70 71 72 73 73 73 72 74 73 74 73 73 73 73 74 73 73 73 72 73 72 72 72 72 72 71 71 72
50 41 38 39 46 46 54 53 59 59 60 59 60 60 59 64 65 65 67 68 69 71 71 72 72 73 73 72 72 73 73 73 73 73 73 72 71 71 71 72 72 72 71 71 72 72 72 72 71
43 42 39 41 45 48 54 53 58 59 57 57 61 63 64 66 64 63 64 66 67 68 70 72 72 72 72 72 71 72 71 69 70 71 71 71 72 72 71 70 72 72 70 72 72 72 71 69 68
43 40 42 42 44 50 53 54 57 56 55 56 59 63 64 65 64 64 63 64 65 67 68 70 72 72 71 73 73 73 72 72 71 72 72 73 72 70 69 70 69 67 71 69 69 69 68 69 68
37 40 41 42 48 50 51 54 54 55 51 56 61 64 64 64 64 64 63 65 65 67 69 70 71 72 72 74 72 74 71 72 70 71 73 73 71 70 71 69 70 72 70 70 70 68 69 68 68
30 29 37 42 48 49 52 53 53 55 55 59 62 64 64 64 64 65 65 65 67 67 69 70 72 72 73 72 71 71 72 70 69 71 71 71 70 71 71 70 71 71 71 70 69 70 69 68 66
26 31 35 43 47 50 50 53 53 54 60 61 63 63 64 64 65 66 66 66 67 67 68 71 72 73 73 72 73 73 73 72 71 71 70 72 71 71 71 70 71 70 70 69 70 69 68 67 66
42 42 44 46 47 50 52 52 51 55 60 61 61 62 63 64 65 66 66 66 68 69 69 69 71 73 73 73 73 73 72 72 69 70 71 72 72 72 71 72 71 70 70 70 69 69 68 66 65
39 41 38 45 48 51 47 39 51 58 59 59 60 61 63 64 64 66 67 67 69 70 69 69 69 70 72 72 73 72 72 71 71 71 71 72 71 71 71 71 70 70 70 68 68 68 66 66 65
39 33 38 43 47 51 47 42 51 57 58 58 59 60 62 63 64 66 67 68 69 70 71 71 71 71 73 73 73 72 73 73 73 73 72 72 73 72 72 71 69 71 69 70 68 67 68 65 64
31 36 38 39 45 49 47 46 54 57 57 57 59 60 62 63 64 67 68 68 69 70 71 71 71 72 73 73 73 72 73 73 72 72 72 72 71 71 71 71 71 70 70 68 68 68 68 67 66
31 36 36 41 44 44 45 45 52 56 56 56 59 60 61 61 63 65 67 68 69 70 70 71 71 72 72 71 70 70 68 71 71 72 72 72 71 71 71 71 71 70 68 68 69 68 67 64 66
35 35 36 40 42 42 45 44 49 55 55 55 57 59 60 61 63 65 66 66 67 69 70 71 72 72 73 71 72 71 71 71 70 71 72 72 72 72 71 71 69 69 67 68 68 67 65 64 66
26 31 35 36 39 44 44 41 47 54 55 55 56 56 57 58 60 62 64 65 66 68 69 70 72 72 73 73 73 73 72 72 71 71 71 71 72 72 71 70 68 68 67 63 66 66 66 62 65
21 31 34 38 37 35 41 32 42 47 53 55 55 55 56 57 59 60 62 63 65 66 68 70 72 72 73 74 72 71 69 68 69 71 71 71 72 70 70 70 67 67 65 66 65 65 66 66 61
24 27 31 35 35 35 40 35 32 48 48 52 54 54 55 56 57 58 60 61 63 65 67 69 71 72 73 74 73 72 70 70 71 71 71 72 72 70 68 67 66 67 66 66 65 67 66 65 62
26 26 29 33 31 26 28 33 26 43 44 45 50 53 54 55 56 57 59 60 62 64 66 67 70 71 72 73 73 72 71 71 70 70 67 68 69 67 66 65 66 67 66 65 63 65 65 64 64
24 22 21 21 25 21 29 35 29 35 42 43 45 51 53 54 56 57 58 60 61 63 65 66 69 70 71 71 72 72 72 72 72 71 68 67 67 66 64 64 65 66 66 64 63 64 64 64 62
22 19 21 19 20 20 34 29 29 37 37 44 47 49 51 53 54 56 58 60 61 63 65 66 67 69 70 70 71 72 72 71 71 71 68 67 66 66 63 64 65 66 64 62 63 61 60 62 62
22 22 21 21 23 20 24 33 32 35 37 40 43 47 51 52 54 55 58 59 61 63 65 66 67 68 69 69 71 72 72 72 71 71 69 67 67 63 63 63 64 63 60 61 63 58 60 62 62
18 21 18 21 19 19 20 25 19 29 30 38 43 45 49 53 55 55 58 59 61 62 64 66 67 67 68 69 70 71 71 72 72 72 69 65 65 63 63 63 62 61 60 60 63 59 59 61 59
15 17 22 20 20 17 17 18 30 28 30 32 39 44 47 52 55 56 59 60 61 62 63 65 66 67 67 69 70 70 71 71 72 70 69 65 64 64 63 63 61 61 61 61 62 62 59 59 59
11 16 19 17 22 20 19 17 26 31 32 36 34 41 46 53 56 57 58 60 60 62 62 63 64 65 67 68 70 70 70 70 69 69 64 64 63 64 63 62 62 62 61 61 62 61 57 59 59

GFSSGP_sfc_30mbdewp_006.txt.gz
Dewpoint
73 72 70 69 56 45 48 49 50 51 54 57 58 56 57 59 53 53 64 67 67 68 69 70 72 72 71 71 72 72 73 72 73 73 72 72 73 73 74 74 73 73 73 73 72 71 71 71 71
69 69 67 60 40 39 44 48 48 52 55 57 58 58 55 57 60 62 63 66 66 65 66 67 73 72 71 71 72 72 71 72 73 72 71 72 73 73 73 73 73 73 72 72 72 71 71 71 71
65 66 59 41 33 38 43 48 52 54 54 54 56 57 56 58 60 60 64 65 65 65 65 69 72 72 71 71 72 73 73 73 73 72 72 72 73 74 74 73 73 73 72 72 71 71 71 71 71
63 60 55 34 30 39 46 50 54 54 55 55 55 56 59 59 60 62 65 65 64 66 67 70 70 71 71 72 73 73 73 73 73 72 72 73 74 73 73 72 73 72 72 72 72 71 71 71 72
59 50 34 32 35 39 46 52 53 52 53 54 53 54 58 62 63 64 65 65 65 65 67 67 73 72 71 72 73 73 72 73 73 73 73 73 73 73 72 73 73 72 71 72 71 71 72 72 72
48 44 31 30 35 41 46 52 53 53 55 55 54 57 59 63 63 64 65 66 65 65 67 69 73 73 73 73 74 73 73 73 74 73 73 73 73 73 73 73 72 72 71 71 71 72 71 71 72
44 37 34 35 37 40 44 50 50 53 55 53 55 55 60 61 64 65 66 66 65 66 67 68 69 72 74 74 74 73 73 73 72 73 73 73 73 73 72 71 71 71 72 72 71 71 71 71 71
46 39 35 37 37 37 44 48 51 50 53 55 55 55 58 60 64 65 65 65 66 66 67 69 70 71 70 71 74 74 73 71 72 73 73 73 73 72 72 70 72 72 71 71 72 71 71 72 72
48 38 33 36 38 41 46 46 52 53 55 56 56 54 57 60 63 64 65 65 66 66 67 68 69 70 70 68 70 72 72 72 72 72 72 71 66 67 67 70 71 72 71 71 71 71 72 71 71
40 38 35 36 39 43 46 46 51 53 53 53 56 56 58 60 62 62 63 64 65 65 66 66 67 69 69 67 69 69 68 66 66 66 67 66 67 68 67 69 71 71 71 71 71 71 70 70 63
33 36 38 38 38 43 46 47 50 47 49 51 55 57 58 60 61 61 62 63 63 65 65 68 67 69 68 68 68 67 67 66 67 69 69 67 67 67 67 67 66 66 68 66 67 67 65 67 65
29 30 32 36 41 42 45 47 49 48 46 50 54 58 59 60 60 60 61 62 62 64 64 66 67 68 68 70 68 67 66 66 65 66 69 69 67 67 69 67 68 68 66 67 67 65 68 67 66
24 25 26 30 38 39 45 46 47 48 51 52 56 59 59 59 59 60 60 61 62 64 65 65 67 70 69 70 67 66 66 66 65 66 68 67 65 68 68 69 68 68 67 66 66 67 67 67 65
23 25 26 27 36 42 45 47 49 49 50 55 57 58 58 59 59 60 60 61 62 63 64 65 67 69 70 70 69 68 67 66 66 65 65 69 67 69 67 67 67 67 67 66 67 68 68 66 64
25 29 37 37 39 44 46 48 48 50 53 56 57 58 58 59 60 60 61 62 63 64 64 65 67 69 71 71 70 69 67 67 66 65 68 69 70 70 69 67 67 67 68 70 68 68 67 64 62
26 29 30 39 43 46 46 37 47 52 53 56 56 57 58 59 59 61 62 63 63 64 65 67 66 67 70 69 70 69 67 67 66 65 67 70 70 70 69 67 67 66 67 67 66 66 64 61 60
27 26 27 40 44 47 46 38 47 52 52 53 55 55 57 59 60 62 62 63 63 66 67 67 67 67 68 70 69 69 68 71 70 69 69 68 69 69 69 68 67 69 67 69 67 65 63 59 57
25 26 27 30 43 45 44 40 48 51 51 50 55 55 56 57 59 61 62 63 64 66 68 68 68 68 70 71 72 70 69 69 68 67 70 71 71 69 70 68 68 69 68 66 65 66 62 62 58
24 28 28 30 41 43 40 40 43 51 51 50 53 55 55 55 57 60 63 64 64 66 68 69 69 70 72 70 67 66 65 66 67 67 70 70 70 69 70 67 68 69 67 65 64 62 60 56 59
24 25 26 30 40 40 37 39 42 46 51 50 51 54 56 56 56 60 62 63 63 65 68 69 70 70 72 69 68 66 66 65 67 67 69 70 70 71 70 69 68 68 62 65 62 62 58 57 58
23 24 26 30 39 40 37 38 38 41 48 51 50 51 54 55 56 58 60 62 63 64 67 69 70 71 72 70 69 70 70 70 68 68 69 71 71 71 71 70 67 66 62 55 62 62 60 55 60
21 23 25 29 33 33 38 30 32 36 45 49 51 51 50 55 56 57 59 61 62 63 66 69 71 72 72 72 69 69 67 64 62 64 64 68 71 70 70 69 67 62 58 60 61 60 60 61 55
21 22 24 25 30 32 35 34 30 37 37 44 48 51 50 50 54 56 58 59 61 63 65 68 71 72 72 72 72 70 69 64 63 64 67 69 69 70 67 69 64 62 61 63 62 61 62 59 57
20 22 25 26 26 27 30 31 26 29 35 34 41 48 50 49 50 54 57 58 60 62 64 66 69 72 72 72 72 71 68 67 63 66 65 63 63 67 68 68 65 61 60 63 62 62 62 61 60
18 23 24 23 23 23 29 29 28 25 28 31 27 38 49 49 49 52 55 57 59 61 62 65 68 71 72 72 72 72 71 70 68 68 65 61 60 61 65 69 65 62 63 62 61 61 59 60 59
17 20 21 19 19 21 26 26 25 29 28 27 28 36 45 49 48 50 53 56 59 60 62 64 66 70 71 71 72 73 72 71 69 68 64 62 60 59 61 68 64 62 62 62 60 58 58 58 58
16 18 21 20 20 17 17 25 26 26 30 30 32 37 41 47 49 48 52 55 57 60 62 65 67 69 69 70 71 72 73 72 68 67 68 65 64 59 64 66 64 60 62 60 59 57 58 57 58
12 20 19 20 20 18 19 20 23 25 23 23 27 36 41 46 48 48 51 54 56 59 61 64 66 68 69 69 70 71 71 72 71 70 69 67 66 66 64 64 61 60 61 59 60 56 57 57 54
11 13 20 20 20 18 19 19 22 24 25 25 22 35 37 43 49 50 50 52 56 57 59 62 65 66 68 68 69 69 69 70 71 71 72 71 70 67 65 64 60 60 60 60 60 59 56 55 55
9 14 19 20 22 21 19 16 19 22 24 23 22 22 25 40 47 51 52 53 55 57 57 59 61 64 66 67 70 69 69 69 70 72 72 72 71 67 66 64 63 62 59 59 60 59 55 55 55

GFSSGP_sfc_30mbdewp_009.txt.gz
Dewpoint
73 72 71 70 59 53 49 47 50 51 52 55 55 57 57 57 58 56 67 68 66 65 66 69 71 71 72 72 73 73 72 73 73 73 73 72 73 73 73 73 73 73 72 71 71 71 71 71 71
69 69 70 62 48 49 47 50 53 51 54 55 55 55 55 57 59 63 64 65 65 63 64 67 72 71 72 72 72 72 71 71 72 72 72 72 72 73 73 72 72 72 72 71 71 71 71 71 71
68 66 64 54 44 42 44 48 49 51 52 53 53 55 57 57 59 61 64 63 63 64 65 69 72 71 71 72 72 72 72 72 72 72 72 72 72 73 72 72 72 72 72 71 71 71 71 71 72
63 60 56 30 32 42 46 46 48 49 51 52 54 54 56 57 59 60 61 62 63 64 66 71 71 71 71 72 73 73 73 73 73 72 72 73 73 72 71 72 72 71 71 71 71 71 71 71 72
60 53 43 28 32 40 46 47 47 48 49 51 53 54 56 59 60 61 61 62 63 65 65 67 71 71 71 72 73 73 73 73 73 72 72 73 72 72 72 72 71 71 71 71 71 71 71 71 72
54 42 34 26 30 36 44 47 46 47 50 51 53 55 58 60 60 61 62 63 64 65 64 67 72 71 72 73 73 72 73 73 74 73 73 73 72 72 72 71 71 71 71 71 71 70 70 71 71
49 46 35 29 32 32 39 43 43 46 49 50 55 55 58 59 61 61 63 64 63 65 65 67 69 72 73 73 73 73 73 73 73 73 73 72 72 72 71 70 70 71 72 71 71 70 70 71 71
44 39 30 39 30 30 37 41 42 45 48 52 54 54 56 60 61 62 64 64 63 65 65 65 68 69 70 71 73 72 73 72 71 72 72 72 72 71 69 69 72 71 71 71 71 71 71 71 71
38 42 34 34 41 34 38 37 43 47 48 50 52 54 57 60 61 62 63 63 64 64 65 64 65 69 69 70 72 73 72 70 71 71 72 71 68 68 68 70 70 72 71 71 71 71 70 70 71
37 46 37 33 44 37 38 37 42 44 47 48 51 55 59 60 60 60 61 62 62 63 64 64 68 66 66 64 70 68 66 65 66 66 67 67 66 67 65 69 70 71 71 70 70 70 70 71 70
31 43 39 35 35 40 38 38 41 41 43 47 50 54 57 59 59 59 60 60 59 60 62 65 68 70 65 67 65 66 65 65 65 66 67 65 65 66 66 70 69 68 69 70 70 70 70 64 64
28 32 32 34 36 38 38 40 39 38 40 46 51 54 56 58 58 58 59 59 59 61 62 64 68 69 67 67 64 64 63 62 63 64 68 68 67 65 65 68 67 70 68 66 67 66 65 65 65
25 28 27 28 33 34 40 40 39 38 40 46 51 53 55 57 58 58 58 58 59 60 61 62 64 66 67 69 64 63 63 62 62 63 66 67 64 67 67 68 66 67 66 67 65 65 65 64 66
24 25 25 27 26 34 38 39 42 40 43 47 52 52 54 55 57 58 58 58 58 60 60 62 65 68 69 68 68 66 64 65 62 62 63 68 67 69 67 69 67 66 66 69 66 68 66 67 65
24 24 28 29 28 32 36 37 38 42 46 47 51 52 52 54 55 57 58 58 59 60 61 62 64 67 68 68 69 67 64 63 63 62 65 66 68 68 69 67 67 64 68 69 68 68 67 67 58
22 24 24 30 29 33 36 34 40 43 45 45 49 52 52 53 54 56 58 58 60 61 62 63 63 64 67 69 69 67 65 66 64 64 66 68 69 70 69 67 67 67 67 67 67 67 66 58 55
24 22 24 30 32 37 37 41 41 45 43 45 47 50 52 53 54 56 58 59 59 61 63 64 64 63 66 71 68 67 67 66 69 68 65 70 71 70 69 67 66 68 67 67 67 66 66 57 55
24 24 25 33 30 37 36 41 42 45 44 42 45 47 50 52 54 56 58 59 60 62 63 65 65 66 67 68 71 67 65 68 67 67 64 67 69 70 69 67 68 69 66 66 67 65 60 59 57
23 24 23 25 29 34 35 36 40 45 45 43 44 45 48 50 53 56 58 59 60 62 64 66 68 70 69 68 70 67 65 65 64 63 71 71 70 70 70 69 69 68 67 66 62 60 57 56 57
21 22 24 27 30 32 34 35 38 45 45 45 44 45 46 48 50 55 58 59 60 62 64 68 69 71 71 70 70 68 65 64 62 64 67 68 70 69 70 70 65 66 63 62 62 60 58 55 57
21 21 22 24 36 35 34 34 35 38 45 46 45 46 46 46 47 53 56 59 60 61 64 68 71 72 72 71 71 69 69 66 66 64 68 68 70 69 71 70 69 67 64 51 62 60 59 55 57
19 21 22 23 32 32 30 28 33 34 37 44 46 46 46 46 48 50 56 59 59 61 64 68 71 72 73 73 69 69 66 63 60 61 61 65 70 68 69 69 66 66 58 60 60 59 61 60 54
17 20 22 23 28 36 27 26 30 32 34 38 44 46 46 45 48 49 53 57 59 60 63 67 72 73 73 73 71 68 67 62 61 59 63 65 69 66 66 66 65 63 58 61 63 61 62 61 56
16 19 21 20 23 22 28 28 28 34 32 34 37 44 47 47 47 50 52 55 58 59 62 66 72 74 74 74 73 71 70 66 61 61 62 64 64 66 65 64 65 62 59 61 62 62 61 60 60
15 18 19 19 18 18 23 27 36 30 31 32 32 35 42 48 46 48 52 54 58 60 62 65 71 74 74 73 73 73 72 71 68 66 64 63 59 61 68 66 66 63 62 62 62 62 61 60 59
12 15 16 18 18 19 21 22 24 31 28 29 30 27 33 45 47 46 50 54 58 60 63 65 69 73 74 73 73 73 73 69 67 67 65 62 60 60 68 67 65 64 61 62 62 59 59 58 59
8 12 17 17 20 19 20 21 25 29 29 28 28 26 27 38 45 46 47 51 56 58 63 65 68 72 73 71 74 74 74 73 67 67 70 65 63 60 61 65 65 64 60 62 61 58 59 59 58
3 10 14 18 18 17 17 18 21 25 27 26 27 26 27 32 43 46 47 50 54 57 61 65 67 71 71 71 73 73 73 74 73 72 70 68 65 65 64 66 65 63 61 63 61 59 59 59 58
4 4 12 17 18 17 17 19 20 25 28 26 27 24 25 31 41 46 47 49 52 55 58 62 65 68 70 70 70 71 71 72 73 72 71 71 68 69 65 68 66 62 62 63 63 61 58 59 60
8 6 6 15 20 18 19 17 22 22 25 25 26 26 25 28 38 44 46 49 51 54 55 58 61 63 67 69 71 71 72 72 72 73 72 72 70 70 68 68 66 63 62 61 62 61 59 57 57

GFSSGP_sfc_30mbdewp_012.txt.gz
Dewpoint
72 72 69 70 59 53 52 51 55 54 52 53 57 55 57 60 57 56 66 67 66 67 69 70 72 72 72 73 74 74 74 74 74 74 74 74 74 74 74 73 73 73 72 71 71 71 71 71 71
68 69 70 63 54 49 48 53 53 49 52 55 56 57 56 58 61 63 65 65 65 65 66 69 73 72 73 73 73 73 73 73 73 73 73 74 74 73 73 72 72 72 71 71 71 71 71 71 71
67 68 64 59 49 49 47 52 52 54 53 55 58 59 56 60 63 65 65 64 63 64 67 70 73 73 73 73 73 73 73 72 73 73 73 73 73 72 72 72 72 71 71 71 71 71 71 71 72
69 68 65 56 47 47 46 45 48 52 55 54 55 53 57 59 60 62 64 64 62 65 67 72 72 72 73 73 73 73 73 73 73 72 72 73 72 71 72 72 71 71 70 71 71 71 71 71 72
69 65 55 40 42 45 44 48 49 48 52 53 54 56 57 58 60 62 62 63 63 65 67 70 72 72 73 74 73 73 73 73 72 72 73 72 71 71 72 71 70 70 71 71 71 70 71 70 71
61 58 50 27 31 40 43 47 48 50 53 53 54 56 57 58 61 61 63 63 64 64 65 69 72 73 73 73 74 73 73 73 73 72 73 72 71 71 71 70 70 70 71 71 71 70 70 71 70
57 54 39 35 30 35 39 43 44 47 52 51 57 56 57 58 61 61 62 63 63 63 66 69 70 72 73 74 73 73 73 73 73 73 72 72 71 71 71 69 70 71 71 71 71 70 70 70 70
56 47 43 36 31 30 37 40 43 43 51 52 57 53 56 58 62 62 62 64 64 64 66 68 70 71 72 72 73 73 73 72 72 72 72 71 71 71 70 69 71 71 70 71 71 70 70 70 71
42 40 41 37 33 32 36 35 43 48 48 53 54 54 57 58 62 62 62 63 65 64 65 66 68 71 72 71 71 73 72 71 71 71 71 72 70 69 70 70 70 71 70 70 70 70 70 70 71
42 44 41 46 40 35 35 36 38 42 45 47 53 55 57 58 61 61 61 61 63 62 64 66 68 70 70 68 72 72 70 67 68 68 70 70 71 70 69 70 70 71 71 64 69 71 70 71 70
44 40 41 40 40 40 36 36 37 41 42 46 54 55 56 58 61 63 60 61 60 63 63 66 67 69 67 71 71 69 68 67 68 70 70 69 69 70 70 70 69 71 70 63 70 71 70 69 65
27 37 38 37 39 40 34 37 36 39 41 47 54 56 56 56 58 58 60 58 60 63 65 67 67 70 71 69 67 68 67 67 67 69 69 69 70 69 70 69 71 68 70 72 71 70 67 66 67
23 32 30 29 31 34 38 37 37 36 42 46 51 56 57 56 55 57 56 57 59 62 64 67 69 71 72 70 67 65 67 64 66 69 70 68 69 70 68 70 70 70 69 68 69 68 69 68 67
23 23 25 24 26 31 39 38 37 36 40 45 50 53 56 56 54 56 56 56 59 59 64 68 70 72 71 70 70 70 65 66 65 65 71 70 70 70 70 69 68 68 69 69 69 70 68 69 68
22 22 24 24 25 29 32 37 36 38 39 45 48 51 53 55 55 55 55 57 59 60 63 66 68 69 70 72 70 70 68 65 65 65 71 71 71 70 71 70 70 70 70 70 69 67 69 66 67
20 20 22 24 27 28 31 35 33 41 40 42 47 49 51 53 55 56 56 57 58 60 63 65 63 69 69 71 71 68 67 67 67 68 66 70 71 71 71 71 68 70 69 69 69 68 67 65 62
19 20 20 22 28 29 31 38 43 41 41 41 45 48 49 52 53 56 57 58 59 62 65 65 65 68 70 71 70 71 70 70 68 69 69 68 71 72 71 70 70 70 70 67 68 67 67 63 60
18 19 21 22 30 29 42 46 46 45 43 42 43 46 49 50 52 55 56 58 59 62 66 66 66 68 71 72 72 72 68 68 68 71 69 71 72 71 70 70 69 71 69 67 67 66 64 61 60
18 21 22 23 32 30 44 47 47 45 47 40 43 44 47 49 52 55 56 57 59 63 66 67 67 68 72 72 70 68 69 68 68 69 70 72 71 72 71 71 69 70 68 65 65 63 61 61 60
20 20 22 24 33 33 36 46 46 47 46 40 41 42 44 45 50 54 57 57 59 62 65 68 69 71 71 71 71 70 69 68 68 68 72 73 72 73 70 71 71 69 68 67 64 62 62 61 61
19 20 22 23 29 30 28 30 42 42 40 41 41 42 43 45 46 53 56 57 59 62 66 69 71 71 72 71 72 72 71 69 69 68 72 71 73 71 70 71 71 69 64 65 65 63 62 60 64
18 20 20 21 28 28 32 29 34 39 42 41 42 42 43 44 46 51 55 58 59 62 66 69 71 72 73 72 72 70 68 67 66 67 68 71 71 71 71 71 71 68 65 67 64 63 62 63 60
18 20 20 20 26 31 34 32 34 40 40 42 42 43 44 45 46 47 54 58 59 62 66 69 72 73 73 73 72 71 69 67 67 63 66 72 72 71 72 72 69 67 63 66 64 63 63 64 61
15 18 18 19 20 21 30 31 30 35 36 37 42 42 44 45 46 48 53 57 59 61 65 67 72 73 73 74 73 72 69 68 67 66 69 70 71 69 69 69 69 66 63 67 64 64 63 62 63
8 13 17 16 18 19 24 31 32 35 37 36 41 47 44 46 47 49 51 56 59 61 64 67 72 73 74 74 74 73 72 70 70 69 66 67 67 69 70 69 69 67 64 67 65 66 65 63 62
6 9 16 15 17 19 20 20 27 37 37 38 45 49 42 46 46 48 51 55 59 61 63 66 71 73 74 73 75 74 73 73 71 69 67 68 65 64 70 69 69 68 66 65 66 66 63 63 63
5 6 12 14 17 17 18 19 20 28 38 37 33 31 36 44 46 47 52 54 59 61 63 66 71 73 74 74 74 75 74 73 72 69 69 70 66 68 69 69 70 68 68 67 67 63 63 63 64
5 9 7 11 14 16 17 21 23 24 35 34 34 33 29 28 46 48 48 54 57 61 62 66 69 73 74 74 74 74 75 74 71 71 71 68 69 66 71 70 69 68 66 66 67 63 64 63 62
7 5 5 9 12 15 18 20 24 29 35 37 36 33 29 29 37 45 48 51 57 60 62 65 67 71 74 74 74 74 74 74 73 73 71 72 69 68 70 70 69 68 66 66 66 63 62 63 62
10 7 5 7 14 13 16 19 21 27 29 32 30 30 30 31 34 41 48 50 54 57 60 63 66 69 72 73 73 74 74 74 74 73 73 72 73 71 69 70 69 68 65 67 64 63 60 64 63

GFSSGP_sfc_30mbdewp_015.txt.gz
Dewpoint
73 72 70 67 59 57 51 52 56 52 53 56 57 59 59 60 56 54 67 68 69 70 71 71 72 73 73 74 75 75 75 75 75 75 75 75 74 74 74 73 73 73 72 71 71 72 72 71 71
72 71 65 61 54 50 50 54 52 53 55 56 59 60 59 59 62 65 66 67 68 69 70 72 73 73 74 75 75 74 73 74 74 75 75 75 74 74 73 72 72 72 72 71 71 71 71 72 71
70 70 64 58 55 49 49 52 50 55 57 56 57 59 60 61 63 65 66 66 67 68 70 72 73 73 74 73 74 74 74 73 74 74 75 74 74 73 72 72 72 71 72 71 71 71 71 71 71
67 67 66 57 51 52 50 52 54 54 56 57 57 57 62 64 64 65 65 65 66 69 71 73 73 73 73 74 74 73 73 73 73 73 74 74 73 72 72 71 71 71 71 71 71 71 71 71 72
68 65 59 56 49 49 51 55 54 53 54 56 58 58 59 62 64 65 63 66 67 69 71 73 74 74 74 74 74 74 73 73 73 74 74 73 73 72 71 71 70 71 71 72 71 70 71 71 71
60 64 52 45 43 45 48 54 54 53 56 57 57 58 59 63 63 63 63 65 67 69 70 72 74 74 75 73 73 74 74 73 73 74 73 73 72 73 71 70 70 71 71 71 71 70 71 71 70
55 53 47 47 36 44 49 53 53 53 56 56 57 57 60 61 62 62 63 65 66 67 69 72 72 73 74 75 74 74 74 74 74 74 73 73 72 72 71 70 70 71 71 71 71 70 70 70 71
56 51 48 48 43 38 45 50 53 53 55 58 57 57 58 61 62 63 64 64 64 67 69 70 72 73 74 74 73 73 73 73 73 73 73 72 71 71 71 70 71 71 70 71 71 71 70 70 71
53 48 47 46 41 34 41 50 53 56 56 57 56 57 60 61 62 62 63 64 66 67 69 70 71 72 73 73 73 73 73 72 72 72 72 72 71 71 71 69 71 71 71 71 69 72 71 71 71
45 43 44 46 43 35 40 49 51 54 55 55 56 58 61 61 61 62 62 63 65 66 68 70 70 71 72 71 73 73 72 71 71 72 71 71 69 70 71 70 70 70 71 69 67 71 71 71 70
42 37 43 42 43 42 37 37 44 51 53 54 56 59 61 62 61 62 62 63 64 65 66 69 71 71 70 70 72 72 72 70 69 69 70 70 70 71 70 68 70 70 64 61 69 70 71 70 67
40 39 39 43 42 39 36 37 42 43 51 55 56 59 61 61 60 61 61 62 63 64 67 68 70 70 70 71 71 71 70 69 68 69 71 71 71 69 68 68 71 70 65 65 70 68 69 69 66
32 36 39 42 41 40 38 37 41 43 54 56 56 57 60 61 61 61 61 61 62 65 66 67 69 70 71 70 69 69 69 68 68 69 71 69 70 69 68 68 70 70 66 70 69 69 69 68 68
29 29 33 33 42 39 38 40 41 47 55 56 56 56 59 61 61 62 61 60 61 66 66 67 69 70 71 71 70 69 69 68 68 70 69 68 70 70 70 70 70 70 70 70 70 68 67 68 67
26 25 24 23 25 39 43 42 43 45 51 55 56 56 56 57 59 56 60 60 63 65 67 68 69 71 70 71 70 70 67 64 64 67 70 69 70 70 70 69 70 68 71 70 67 68 67 65 65
24 21 19 22 24 27 41 42 44 42 50 53 55 56 57 57 56 57 58 60 62 64 67 69 68 70 70 70 71 70 67 68 67 70 71 70 71 70 71 70 68 69 68 69 69 69 67 65 64
19 18 19 20 23 30 39 41 40 40 47 49 52 54 55 56 56 57 58 59 61 64 68 68 68 68 70 70 71 69 68 70 69 70 70 72 71 71 69 71 70 68 70 69 67 66 66 61 59
17 17 18 19 25 31 39 39 43 42 44 47 49 51 52 54 56 57 56 59 61 66 67 67 68 68 68 71 70 69 69 70 70 70 68 69 71 72 70 70 70 70 70 68 66 65 63 61 61
18 18 19 20 28 41 41 40 42 40 44 45 48 49 51 52 54 57 58 58 62 65 66 66 68 69 69 71 69 68 69 70 68 67 69 71 70 71 71 71 70 71 69 66 66 65 60 60 61
16 18 19 21 29 38 41 41 41 38 36 44 46 48 49 51 52 56 57 58 61 65 65 65 65 72 71 71 70 70 70 70 68 67 70 71 70 72 70 70 70 70 68 66 62 61 61 61 62
15 17 19 20 29 37 42 41 43 40 42 44 46 47 49 50 51 55 56 57 59 63 66 67 66 71 72 72 70 70 71 71 70 69 72 72 72 72 70 71 70 68 66 64 62 62 62 58 63
17 19 19 20 21 32 40 36 44 45 45 47 48 44 47 49 51 54 56 57 58 64 67 68 69 70 71 72 70 69 67 67 68 69 70 72 73 72 71 71 71 68 66 65 63 63 61 63 58
12 20 19 20 20 31 31 29 40 46 46 43 46 43 43 46 49 53 56 57 59 63 65 70 69 70 71 72 70 70 69 68 69 69 69 72 73 71 72 71 71 66 64 66 64 62 60 63 63
8 13 18 20 20 20 29 30 33 44 46 47 46 43 43 44 46 52 55 58 58 63 66 69 71 71 73 71 72 70 70 69 67 66 69 71 70 70 72 71 67 65 62 65 64 63 63 63 63
6 7 11 15 18 18 26 29 33 36 40 43 43 45 46 47 46 47 54 57 58 62 65 69 71 71 73 72 70 72 71 69 67 68 70 71 70 70 71 70 66 64 63 65 64 63 62 62 61
5 5 8 14 17 18 21 23 30 34 38 41 44 47 48 48 46 47 53 56 59 61 65 69 71 70 72 73 72 70 72 69 69 69 71 70 70 69 70 69 67 64 62 67 66 65 63 63 61
9 5 6 9 17 18 19 20 22 35 37 40 41 46 47 44 43 47 51 55 59 60 66 67 72 71 72 73 73 72 71 72 71 71 71 70 68 69 69 69 67 66 64 63 66 65 62 64 63
8 10 6 5 6 12 15 19 23 31 36 40 41 41 43 43 45 47 50 55 59 60 64 66 71 72 72 72 74 74 72 71 71 72 70 70 68 69 69 70 68 68 65 64 66 63 64 62 64
11 5 6 7 8 10 15 17 23 26 39 40 39 40 43 43 44 48 50 54 59 60 63 66 69 72 72 73 72 74 73 73 72 72 71 69 69 69 69 69 69 67 66 66 66 64 62 63 61
12 11 7 7 10 14 11 13 21 21 37 39 38 39 39 40 43 47 50 52 59 60 61 65 70 71 72 73 73 73 74 74 73 71 71 72 69 70 70 69 69 68 66 65 66 64 62 61 63

GFSSGP_sfc_30mbdewp_018.txt.gz
Dewpoint
72 71 70 66 59 57 51 52 54 54 54 58 59 59 59 61 56 54 66 68 69 69 70 71 72 73 74 74 75 75 75 74 75 75 74 73 73 73 73 72 72 72 71 71 71 72 71 71 71
73 69 66 62 56 50 50 54 53 54 57 60 60 59 59 59 63 66 66 68 70 70 71 72 74 74 74 74 75 75 74 73 75 75 74 73 73 73 72 72 72 71 71 72 71 71 72 72 71
70 67 60 57 55 49 49 53 54 55 59 58 59 60 60 61 64 65 67 69 70 70 71 73 74 74 73 74 74 74 74 73 74 74 73 73 73 72 72 72 72 72 71 71 71 71 71 72 71
69 66 64 59 50 53 51 53 56 57 57 58 58 59 62 64 65 66 68 68 68 70 72 73 73 72 73 73 73 73 73 73 73 74 73 73 73 72 71 71 71 71 72 72 71 71 71 71 72
66 65 56 54 53 52 54 55 56 55 57 58 58 60 61 64 65 67 67 67 69 71 72 72 73 73 73 73 73 73 72 72 73 74 73 72 72 72 71 70 71 71 71 72 71 70 71 71 71
61 63 51 45 46 51 54 56 56 56 58 59 59 58 60 64 64 65 66 68 70 71 72 73 73 74 74 72 72 73 72 72 73 73 73 72 73 72 71 71 71 71 72 71 71 70 71 71 70
54 53 49 46 50 53 54 55 56 57 58 57 59 58 61 63 64 65 66 68 69 71 72 73 73 72 72 74 73 73 73 72 73 73 73 73 72 72 71 70 71 71 71 71 71 70 71 70 69
56 52 47 47 44 49 54 55 57 56 56 60 60 58 60 63 63 64 67 68 68 70 71 72 73 73 74 74 73 73 73 73 73 73 73 72 72 71 71 71 71 71 70 71 71 71 71 70 70
58 47 43 44 44 50 53 54 57 57 57 58 59 60 62 62 62 64 65 65 67 68 71 72 72 73 74 73 73 73 73 73 73 73 72 73 72 71 71 70 71 71 71 69 66 71 71 71 71
55 46 42 46 47 48 52 53 56 56 56 57 59 60 61 62 62 62 63 64 66 68 69 71 72 73 73 73 72 73 73 73 73 73 72 72 70 70 71 71 70 70 71 68 69 71 72 70 68
49 45 43 40 46 49 52 54 56 55 55 58 59 60 61 62 62 63 63 65 66 68 69 70 71 72 72 71 72 72 72 71 71 71 70 70 71 71 71 70 70 69 64 60 67 69 69 69 68
35 42 42 43 43 44 51 55 55 55 55 58 60 61 61 61 61 62 63 64 66 67 69 70 71 71 71 70 72 72 71 70 69 69 70 70 70 70 69 67 69 70 67 66 67 68 68 69 67
31 34 42 43 42 41 44 50 55 54 56 58 60 60 60 61 60 61 63 64 65 67 68 69 70 71 70 70 70 71 71 69 68 68 70 70 70 68 68 69 69 69 68 67 69 69 69 69 68
29 30 30 39 42 41 38 42 47 53 56 59 60 60 61 60 60 60 61 62 64 66 67 69 70 70 70 70 70 69 70 69 68 68 70 70 70 69 68 68 70 69 69 66 70 69 67 67 65
28 26 26 26 37 41 42 42 48 54 56 59 60 60 60 60 61 60 61 61 63 65 67 68 69 70 70 70 69 68 68 69 68 68 70 70 71 69 69 70 70 69 70 70 68 68 68 64 64
21 22 21 22 26 42 40 40 50 55 55 56 59 60 60 60 61 61 61 61 62 65 66 68 69 70 70 70 69 70 69 67 67 69 70 70 70 71 70 70 68 69 68 69 68 68 67 63 59
20 20 20 19 30 42 41 40 45 55 55 55 55 59 60 61 61 61 61 61 62 66 66 66 67 69 69 71 71 69 67 69 69 70 70 70 70 71 70 70 69 68 69 68 68 66 65 60 58
19 19 18 18 24 40 40 40 43 54 55 55 55 55 56 58 60 59 59 61 63 66 67 68 67 68 69 70 71 69 68 69 69 69 70 71 71 71 69 69 70 69 69 68 67 65 63 61 61
18 18 18 19 23 37 38 39 41 50 54 55 55 56 55 55 57 58 59 61 63 65 67 68 67 68 69 69 69 68 66 68 69 70 69 71 71 71 69 69 70 70 69 67 66 64 60 58 61
15 14 16 18 20 31 40 39 41 46 50 52 54 55 55 56 56 57 58 60 62 65 67 68 67 67 68 69 69 68 68 69 68 68 69 70 70 71 70 70 70 70 67 65 62 60 60 61 61
14 12 13 16 19 40 41 40 41 41 44 48 51 52 54 55 55 56 57 60 61 65 66 67 68 68 67 68 70 70 70 70 70 69 69 70 70 70 71 70 70 69 68 65 62 61 60 57 62
16 15 14 15 18 18 38 32 41 42 42 45 48 49 51 52 53 55 56 57 61 64 66 66 69 69 69 70 69 68 66 67 68 69 70 71 71 71 71 70 70 65 67 64 61 63 62 60 59
17 16 17 18 18 19 22 34 36 43 43 45 47 47 49 51 52 53 56 57 59 63 64 65 67 70 70 70 69 68 67 67 67 68 69 71 72 71 71 70 70 65 65 64 63 62 61 63 60
17 12 12 18 19 17 20 32 34 41 41 43 44 47 47 49 51 52 55 56 57 61 64 65 66 70 71 71 69 68 67 67 66 67 68 70 72 71 71 71 70 65 64 65 64 62 61 63 63
14 9 6 6 11 16 19 29 33 38 43 42 42 44 46 48 49 51 54 55 57 59 63 66 66 66 71 70 70 69 68 68 67 66 68 69 71 70 71 71 68 65 61 64 63 63 62 62 61
13 8 5 4 10 13 18 21 26 35 44 44 43 45 46 45 48 50 52 55 56 58 63 66 67 66 69 70 70 70 69 68 69 68 69 70 70 70 71 70 68 65 62 64 64 63 63 62 61
16 7 6 5 15 11 18 20 24 33 41 44 45 45 44 44 45 47 51 55 56 58 64 66 68 67 69 70 70 71 70 69 69 69 70 70 70 69 70 70 67 65 62 65 65 63 62 64 62
14 12 6 5 2 3 8 17 18 22 30 38 43 44 45 44 45 45 47 53 57 58 63 66 68 68 69 70 70 70 70 71 70 69 69 70 70 70 70 69 67 65 63 64 65 64 63 62 63
16 13 9 7 5 3 6 8 17 18 24 36 42 44 45 45 45 47 47 52 55 58 63 66 68 68 69 71 71 70 70 69 71 71 71 70 70 69 69 68 67 66 64 63 65 64 64 61 61
17 14 9 6 6 8 5 6 19 20 22 34 42 45 45 46 46 46 48 49 54 58 62 65 69 68 69 71 71 71 71 71 70 70 71 71 70 69 69 69 67 66 65 65 63 64 63 63 61

GFSSGP_sfc_30mbdewp_021.txt.gz
Dewpoint
71 72 70 67 58 56 52 52 55 53 53 59 59 57 59 61 57 54 66 68 68 68 70 71 72 73 73 74 74 74 74 73 73 73 73 72 73 73 72 72 72 72 71 71 72 72 71 71 70
71 69 65 62 55 50 50 54 54 54 59 60 60 60 60 59 64 64 66 68 69 70 70 72 72 74 73 74 74 74 73 73 73 73 73 73 73 72 72 72 71 72 72 71 71 71 72 71 71
71 66 58 57 54 50 48 53 55 58 60 59 59 60 60 61 64 65 67 69 69 70 71 72 73 74 73 73 73 74 74 73 73 73 73 73 72 72 72 71 72 72 72 72 71 71 71 71 71
65 65 64 55 50 53 52 54 56 58 59 59 60 59 63 64 64 66 68 69 69 71 72 72 73 72 72 73 73 73 73 73 73 72 73 73 72 72 71 71 71 72 72 72 71 71 71 71 70
67 64 55 54 50 53 53 56 57 56 57 57 59 59 61 64 66 67 68 68 69 71 72 72 73 73 72 72 72 72 72 73 73 73 72 73 72 71 71 70 71 71 72 72 71 70 71 70 70
62 62 53 46 46 50 54 57 56 58 59 59 59 59 61 65 66 67 68 68 70 71 72 73 73 72 72 72 72 72 72 73 73 73 72 73 72 71 71 71 71 71 71 71 71 70 71 70 70
58 56 50 46 51 52 54 57 57 58 57 57 58 58 62 64 66 66 67 69 70 71 72 72 72 71 72 72 72 72 72 72 73 73 73 72 72 71 71 70 71 70 71 71 71 71 70 70 69
60 53 48 48 50 49 55 56 58 57 57 59 60 57 59 63 65 66 68 68 70 72 72 72 72 71 72 72 72 72 72 72 73 72 72 72 72 71 71 70 71 71 70 71 71 70 70 70 69
61 50 46 43 46 51 55 56 58 58 58 57 59 60 61 64 65 66 67 67 69 70 72 72 72 72 73 73 73 73 72 72 72 72 72 72 72 71 71 71 70 71 71 69 68 69 71 70 70
59 50 46 45 47 53 54 56 56 57 57 58 59 61 63 63 65 65 66 66 67 68 71 72 72 73 73 73 73 73 73 73 73 73 73 73 71 70 71 71 71 71 72 66 70 72 71 69 68
56 51 46 44 47 54 54 55 56 57 56 58 58 61 62 62 64 64 65 65 66 68 69 71 72 73 73 72 72 72 72 72 73 72 72 72 70 70 72 70 69 69 65 60 66 68 68 69 68
43 48 48 44 47 53 53 55 55 56 54 59 59 61 61 61 63 63 64 65 65 67 68 70 72 72 72 71 72 72 72 71 71 71 70 69 70 70 71 68 68 69 67 64 68 68 69 68 67
43 41 37 43 43 51 54 55 55 55 57 59 60 60 61 61 62 63 63 65 66 67 68 69 71 71 72 70 72 72 71 71 69 68 69 70 69 69 69 68 68 69 68 67 67 68 69 68 68
29 30 30 33 40 45 53 54 55 56 58 59 60 60 61 61 62 63 64 64 66 67 68 69 70 70 71 70 70 71 71 70 69 68 68 70 70 69 68 67 69 69 69 66 67 69 68 67 65
26 26 26 26 28 43 52 52 53 56 58 59 59 60 60 61 61 62 63 64 65 67 68 69 69 70 70 69 70 69 69 70 69 68 69 69 70 69 68 67 69 69 69 69 69 68 68 63 61
23 22 22 24 25 41 45 44 53 55 58 58 59 60 60 60 60 61 63 63 65 66 67 68 69 70 70 70 70 69 68 69 69 68 69 70 70 70 69 70 70 68 70 70 68 68 67 63 59
20 21 22 22 23 41 39 38 52 56 58 58 59 59 60 60 61 60 61 62 64 65 67 68 69 69 69 70 70 69 69 69 68 68 69 70 70 70 70 70 68 69 69 68 68 66 65 59 58
20 19 20 19 31 40 40 40 53 55 58 58 59 59 60 60 60 61 61 61 63 65 66 67 68 69 69 70 70 69 69 68 68 69 70 70 70 71 70 69 69 68 69 68 67 65 63 60 60
20 19 19 20 25 39 39 40 52 54 55 58 59 59 59 59 60 61 61 61 61 65 66 67 67 68 69 69 70 68 68 68 69 69 70 70 70 71 70 68 70 69 68 67 66 64 60 58 61
19 18 18 17 19 25 30 36 47 54 54 55 57 59 59 59 60 60 61 61 61 64 66 66 67 67 68 68 69 69 68 68 68 69 69 70 71 71 70 69 70 69 69 67 65 61 59 60 61
18 17 17 16 18 33 40 39 42 53 54 55 55 56 57 58 58 60 59 59 61 63 65 66 67 67 67 68 69 69 69 69 68 68 69 69 70 71 71 69 70 70 68 65 63 61 59 57 62
20 19 16 14 15 14 36 34 40 43 53 54 55 55 56 56 56 57 58 59 60 63 65 66 67 67 67 68 68 67 66 66 67 68 69 68 70 70 71 70 70 69 69 65 62 61 60 59 59
20 20 18 18 16 16 20 27 33 42 45 49 51 53 55 56 56 56 57 58 60 62 65 66 67 67 67 67 67 67 65 65 67 69 68 69 70 70 70 70 69 67 68 66 63 62 62 61 58
21 19 14 16 17 14 15 20 20 40 41 44 46 50 52 54 55 56 56 58 60 62 65 66 67 67 67 67 67 67 66 66 66 68 68 69 70 71 71 70 69 67 64 64 62 63 61 63 61
20 17 14 11 11 12 14 19 19 32 42 42 44 46 49 51 53 54 55 56 58 61 64 65 66 67 68 68 68 68 67 66 66 67 68 68 70 71 70 70 69 67 65 64 63 62 60 62 62
18 17 12 8 7 10 16 17 20 26 37 43 43 44 47 49 50 52 53 54 57 59 63 64 65 67 69 69 68 68 67 67 66 66 66 67 70 70 71 70 70 68 64 64 64 62 62 61 61
15 15 15 10 15 12 14 18 20 24 31 38 43 44 45 47 49 50 52 53 55 57 61 64 65 66 69 69 69 69 68 67 67 67 67 68 69 70 71 71 70 68 64 63 63 62 62 62 61
17 14 11 8 9 8 7 11 13 21 23 31 43 43 44 47 47 49 50 52 54 56 59 63 64 64 67 69 69 69 69 69 68 68 68 68 69 70 70 70 69 67 65 64 63 63 62 63 62
15 15 12 10 7 7 6 6 11 17 24 28 38 44 44 45 46 47 49 50 53 55 58 62 64 64 65 68 69 68 69 69 69 68 68 69 70 70 69 70 69 67 65 64 64 64 63 62 62
15 14 13 11 8 7 6 6 17 14 15 23 30 37 44 46 46 46 47 49 51 55 57 62 64 65 65 67 68 68 69 69 70 69 69 69 69 70 69 69 68 67 65 63 64 64 64 62 61

GFSSGP_sfc_30mbdewp_024.txt.gz
Dewpoint
71 72 71 68 58 56 52 52 54 53 54 59 58 57 58 61 57 53 67 68 68 68 70 71 72 73 74 74 74 74 73 73 73 73 72 72 72 72 72 72 72 71 71 72 71 71 71 71 70
71 70 66 62 54 49 50 55 52 54 59 60 60 60 59 59 63 65 66 68 68 69 70 70 71 74 73 73 74 74 72 73 73 73 73 73 72 72 72 72 72 72 72 71 71 71 71 70 70
71 66 60 57 53 49 49 54 56 58 60 59 59 61 60 61 64 65 66 68 69 69 71 71 73 74 73 73 74 74 73 72 73 73 73 72 72 71 71 71 72 72 72 72 71 71 70 70 70
66 64 63 53 48 52 53 55 57 58 58 60 60 59 63 64 64 66 68 69 69 70 71 72 73 73 72 73 74 73 72 72 72 73 72 72 72 71 71 71 72 72 72 71 71 70 71 70 69
68 64 55 52 51 53 54 57 58 57 57 59 60 59 60 65 66 67 68 69 69 71 71 72 73 73 72 73 73 73 73 73 73 73 73 72 72 71 71 71 71 72 72 71 71 71 70 70 70
61 61 52 46 45 50 56 57 58 58 59 59 58 59 62 65 66 68 68 69 70 71 72 72 73 72 72 72 72 72 73 73 73 72 73 72 72 71 71 71 71 71 71 71 70 70 70 69 71
57 55 49 47 50 52 54 57 58 58 57 58 59 59 63 64 67 67 68 69 71 71 72 72 72 72 72 72 72 72 72 73 73 73 72 73 72 71 71 70 71 70 71 71 70 70 70 70 70
61 53 48 49 51 50 56 56 59 57 57 59 60 57 60 64 66 67 68 69 71 71 72 72 71 72 72 72 72 72 72 73 73 73 72 72 72 71 71 70 71 71 71 69 71 70 69 69 69
61 53 47 44 49 47 56 56 58 59 58 58 59 60 61 65 66 67 67 68 70 71 72 72 71 71 72 72 72 72 72 72 72 72 72 72 72 71 71 71 70 71 71 70 69 70 70 69 70
60 53 48 46 47 52 56 56 57 57 56 58 59 61 64 65 65 66 65 66 68 69 71 72 72 71 73 73 73 72 72 72 72 73 72 73 71 70 72 72 71 71 71 64 70 72 71 70 67
60 54 51 46 45 53 56 56 56 56 55 58 58 61 63 64 65 65 65 66 67 69 71 72 72 72 73 73 73 73 73 73 73 72 72 72 71 69 71 70 69 70 68 62 68 68 69 69 66
53 51 54 47 49 54 55 56 55 55 55 58 60 61 63 63 64 65 65 65 66 68 70 71 72 73 73 72 72 72 72 72 72 72 72 70 70 70 71 69 68 69 69 65 68 69 69 68 67
52 49 44 41 42 53 55 55 55 56 57 59 60 62 62 63 64 65 65 66 66 67 69 70 72 72 72 71 72 72 72 72 71 70 70 70 68 68 69 69 68 69 69 67 67 68 69 69 68
29 34 32 31 32 41 51 54 55 56 59 59 60 61 62 62 64 64 64 65 65 66 67 69 71 72 72 71 71 71 71 71 70 69 68 69 69 69 69 68 68 68 69 68 67 69 67 67 65
23 24 27 28 29 34 51 52 54 56 58 58 59 60 61 61 63 63 64 65 65 66 67 68 70 71 71 71 70 71 71 70 70 69 68 69 70 69 69 68 68 69 70 69 69 68 68 64 60
23 23 22 24 27 34 50 45 54 57 58 58 59 59 60 61 62 63 64 64 65 66 67 68 68 70 70 70 69 69 69 69 69 69 69 69 69 70 69 68 68 70 70 70 68 68 68 64 59
22 21 22 23 25 34 48 43 50 57 58 58 59 59 60 61 62 62 63 64 65 66 67 68 69 69 69 69 69 69 68 68 68 69 69 69 70 70 69 69 70 69 69 69 68 67 66 60 59
18 20 20 21 29 40 48 41 48 56 57 58 59 59 59 60 61 62 63 64 65 66 67 68 69 69 69 69 69 69 69 69 69 68 69 69 70 70 70 70 70 69 69 68 68 66 63 60 62
21 20 20 20 26 39 39 41 51 55 56 57 58 59 59 60 60 61 61 63 64 66 66 67 68 69 69 69 69 68 68 68 69 68 69 70 70 71 70 70 70 69 69 68 67 64 61 59 61
21 20 20 18 21 21 26 38 50 55 56 57 58 58 59 60 60 61 61 61 62 64 66 67 67 68 69 69 69 69 68 68 69 69 69 70 70 71 70 69 69 69 69 67 66 62 60 60 60
21 21 19 19 18 26 35 33 38 53 55 57 58 59 59 59 60 60 61 61 61 63 65 66 67 68 69 69 69 69 68 69 68 68 69 69 70 71 70 69 69 69 69 68 66 62 59 57 62
21 20 18 16 15 15 35 24 39 46 53 54 57 58 59 59 60 60 60 61 61 62 65 66 67 68 68 69 68 68 67 66 67 67 68 69 70 70 71 70 70 69 69 67 65 62 60 59 59
22 21 19 17 15 15 18 25 25 44 52 53 54 55 58 59 59 60 60 61 61 62 63 66 67 67 67 68 67 68 67 67 67 68 67 68 69 70 71 71 70 69 69 68 65 63 61 60 59
22 19 17 18 18 15 17 18 19 38 46 53 54 55 55 56 58 59 59 61 60 61 62 65 66 67 67 68 67 67 67 66 66 67 67 67 69 70 70 70 70 69 68 68 66 63 62 62 60
21 19 16 13 14 14 16 17 18 26 41 44 51 53 54 56 56 57 57 58 59 60 62 64 66 66 67 67 67 67 67 66 66 66 67 68 69 70 70 70 70 69 67 66 65 63 62 63 62
19 18 15 10 10 12 17 14 16 20 34 42 43 46 50 53 56 56 56 57 58 60 62 64 66 66 67 67 67 67 67 67 66 66 67 68 68 69 71 71 70 69 67 66 64 63 62 62 62
19 17 17 12 15 12 13 15 18 24 23 35 40 42 44 48 52 55 56 56 57 59 61 64 65 66 67 67 67 67 67 67 67 67 67 68 69 70 71 71 70 70 67 66 65 63 62 61 62
16 17 17 14 12 10 11 10 12 21 21 26 35 42 44 45 48 51 53 55 56 58 60 63 65 66 66 67 67 67 67 68 67 67 67 67 68 69 70 71 71 69 67 66 65 64 63 63 62
17 14 14 15 13 9 8 9 13 14 22 21 26 36 42 44 46 48 50 53 54 56 59 62 64 65 65 68 68 68 68 68 68 68 67 67 68 69 70 70 70 69 68 66 65 63 63 62 62
21 18 14 13 12 10 11 9 15 13 13 22 25 35 43 44 46 48 49 50 52 54 56 60 63 64 65 67 68 68 68 68 68 68 68 69 68 69 69 70 70 69 68 66 66 64 63 62 62

GFSSGP_sfc_30mbdewp_027.txt.gz
Dewpoint
71 71 70 67 59 56 51 53 54 53 53 58 57 56 56 60 56 55 67 67 67 68 70 70 72 73 73 73 74 74 74 73 73 73 73 72 72 72 72 72 71 71 72 71 71 71 71 70 70
71 70 68 62 55 49 50 55 51 54 58 59 59 59 59 59 63 65 66 66 66 68 68 68 73 73 73 74 74 74 73 73 73 73 72 72 72 72 72 72 72 72 72 71 71 71 71 70 70
70 67 61 58 53 48 49 55 53 58 59 58 59 60 60 61 64 65 66 66 66 67 68 70 73 74 73 74 74 74 73 73 73 73 72 72 72 71 72 72 72 72 72 71 71 70 70 70 70
67 63 63 55 49 52 52 54 57 59 60 60 59 59 62 64 64 65 66 66 66 67 68 72 73 72 73 74 73 73 73 73 73 73 72 72 71 71 72 72 72 72 71 71 71 71 70 69 70
66 64 56 52 48 53 54 56 58 56 57 58 59 58 61 64 66 66 66 65 65 66 68 71 73 73 73 74 73 72 72 72 73 73 72 72 71 71 71 71 72 72 71 71 71 70 70 70 70
62 60 49 46 47 53 55 57 57 57 59 59 58 58 62 65 65 66 66 65 66 66 68 70 73 73 73 73 73 73 72 73 73 73 72 72 72 71 71 71 72 71 71 70 70 70 70 70 71
58 53 49 47 50 51 55 57 56 57 57 57 58 58 63 64 65 66 66 65 66 67 68 68 70 71 72 72 72 73 73 73 73 73 73 73 72 71 70 71 71 71 71 70 70 70 70 70 71
61 54 50 48 50 50 56 56 58 57 56 58 59 57 59 64 65 66 66 66 67 68 68 68 68 69 70 70 72 72 72 73 73 73 72 72 72 71 71 70 72 71 70 70 70 70 69 69 70
62 53 47 44 49 48 56 56 57 58 57 57 59 59 60 65 65 65 66 66 67 68 68 68 68 70 71 70 71 71 72 72 73 72 72 71 70 71 70 72 71 71 70 70 69 70 70 70 70
61 53 47 47 47 47 55 55 57 56 56 56 59 60 63 65 64 64 64 65 66 66 68 67 67 69 70 69 71 71 70 68 69 69 71 71 71 71 71 72 72 72 68 68 71 71 71 69 64
61 50 52 47 46 50 55 56 56 55 53 55 57 60 62 63 63 63 63 63 64 65 66 68 68 70 69 68 70 70 70 70 70 72 71 71 71 71 70 70 69 70 68 65 68 68 68 67 63
55 55 50 49 47 54 54 56 55 54 52 54 59 60 62 62 62 62 62 63 63 65 65 67 68 70 70 70 69 70 70 70 69 69 72 71 69 70 71 71 69 70 69 68 69 68 70 68 68
55 50 48 49 45 41 55 54 54 55 55 57 60 60 60 61 61 62 62 63 64 64 65 66 68 70 70 71 69 70 71 70 69 70 70 69 68 69 70 71 70 69 70 68 69 69 69 70 68
40 39 35 33 32 35 50 50 55 55 58 59 59 59 60 61 61 62 62 62 63 64 65 67 69 70 70 70 71 70 71 70 70 68 68 70 69 70 70 70 69 69 70 70 69 70 69 66 65
25 21 21 23 29 30 42 47 52 55 58 58 58 59 60 61 61 62 63 64 64 65 66 67 69 70 71 71 71 70 70 69 68 67 69 69 70 71 72 70 69 69 71 72 71 70 69 64 60
23 25 21 23 26 29 37 26 45 56 57 57 57 59 60 60 61 63 64 64 65 65 66 68 68 69 70 71 71 70 69 68 67 67 67 68 69 71 72 71 70 70 71 71 69 69 68 66 61
22 18 22 23 26 37 40 30 42 56 56 57 57 58 59 60 61 63 64 64 65 66 67 67 68 68 69 71 70 70 69 68 67 67 67 68 70 71 71 70 70 72 71 70 70 68 68 63 61
16 18 19 20 23 28 37 37 44 55 55 56 57 57 58 59 60 62 63 64 65 66 67 67 68 68 70 70 70 69 68 67 67 66 67 69 70 71 71 70 71 71 69 69 69 69 66 63 62
16 16 19 21 23 29 28 32 43 54 55 56 57 57 58 58 59 61 62 63 64 66 67 68 69 69 70 69 67 66 65 65 67 69 70 70 71 71 72 70 72 71 70 70 70 68 66 61 63
17 15 17 21 21 26 28 33 41 52 54 55 57 57 58 58 59 61 62 63 64 65 67 68 69 70 70 69 68 66 66 65 68 70 71 71 71 72 72 71 71 71 69 70 70 68 63 61 63
19 13 14 18 21 22 28 25 37 49 52 55 57 57 58 58 59 60 61 62 63 65 67 68 70 71 71 70 69 69 69 69 69 69 70 70 72 72 72 72 71 71 71 69 70 68 65 59 63
17 19 18 19 19 18 26 21 33 36 49 53 55 57 57 58 59 60 61 61 62 64 66 68 69 70 70 71 69 69 66 64 66 68 69 70 71 71 72 72 72 72 70 70 70 68 65 62 59
19 22 19 18 18 19 19 22 24 42 42 49 53 55 57 57 59 59 61 61 62 63 65 67 69 70 70 71 70 69 68 66 67 68 69 71 71 72 71 72 72 72 71 71 70 68 66 63 59
24 23 21 21 19 17 19 19 21 28 36 44 51 54 56 57 58 60 61 62 62 63 63 65 69 70 71 71 71 70 69 68 67 68 67 67 68 69 71 72 73 72 71 71 71 69 67 65 62
22 19 15 13 13 13 18 20 21 25 34 31 43 51 54 57 58 59 60 61 62 63 64 65 68 69 70 70 70 70 70 70 69 69 68 67 67 67 69 72 72 71 72 71 70 70 68 66 64
21 18 11 6 5 6 20 17 19 24 27 36 38 46 52 55 57 58 60 61 63 63 64 65 66 68 69 69 70 70 70 69 69 69 67 67 67 67 69 72 72 72 72 71 70 69 67 65 65
20 19 17 12 16 11 10 14 20 24 24 31 38 40 48 53 55 56 59 60 62 63 64 65 66 68 68 69 69 70 70 70 68 68 70 68 69 67 70 71 72 72 72 71 70 67 67 65 65
19 19 16 14 6 6 9 15 11 22 22 27 33 38 41 45 52 54 57 59 60 61 63 64 66 67 68 68 69 69 69 70 69 70 69 69 69 70 69 71 72 72 72 71 70 68 67 66 65
18 18 18 16 13 5 3 2 20 24 29 26 27 32 37 41 45 49 55 58 60 60 61 63 65 67 68 69 69 69 69 69 70 69 70 70 70 70 70 71 71 71 71 71 70 69 67 66 66
20 19 19 15 18 13 9 6 18 22 28 31 28 31 38 43 47 48 50 54 56 59 60 62 64 65 67 68 69 69 69 69 69 69 69 70 70 70 71 71 71 71 71 71 70 69 68 67 66

GFSSGP_sfc_30mbdewp_030.txt.gz
Dewpoint
70 70 70 67 59 57 50 51 51 51 52 55 56 55 56 59 57 57 66 67 68 70 70 70 72 72 72 74 74 74 73 73 73 73 73 72 72 72 72 71 71 72 71 71 71 71 70 70 70
68 69 67 61 56 49 48 51 50 53 55 57 57 57 56 58 63 65 65 66 67 67 68 69 72 73 73 73 74 74 72 73 73 73 72 72 72 72 71 72 72 70 71 71 71 70 70 70 69
69 67 61 58 51 47 47 51 53 56 56 56 57 59 59 61 64 65 65 66 66 68 68 70 73 73 73 73 74 74 73 73 73 73 72 72 72 72 72 72 72 71 71 71 71 70 70 69 69
66 62 59 55 46 49 49 51 54 57 57 57 57 58 61 63 64 65 65 65 65 66 66 72 73 73 73 73 73 73 72 73 73 72 72 72 71 72 72 72 72 71 71 71 71 70 70 69 69
64 62 53 47 45 49 51 53 55 54 55 57 57 58 61 64 64 64 64 64 64 65 66 70 73 73 73 73 73 73 73 73 73 72 72 71 71 71 72 72 72 71 71 70 70 70 70 70 70
63 57 47 39 43 50 52 54 54 54 57 58 57 58 62 64 64 64 64 63 63 64 64 68 73 73 74 73 73 72 72 73 73 73 72 72 71 71 71 72 71 71 70 70 70 70 70 71 70
58 50 45 43 45 46 52 54 53 54 55 55 58 57 62 63 64 64 63 63 63 64 62 65 67 71 73 73 73 72 73 73 73 73 72 72 71 71 71 71 71 71 70 70 70 70 70 70 71
59 52 46 46 44 46 53 54 54 54 54 57 58 57 60 63 64 63 62 63 63 63 62 63 65 67 68 70 73 73 73 73 73 72 72 72 71 71 71 70 71 70 70 70 70 70 70 70 70
61 51 43 42 44 47 53 53 55 55 55 55 57 57 60 64 63 62 62 63 64 63 61 62 63 66 67 67 70 72 72 73 72 72 72 71 69 68 68 70 71 71 70 70 71 71 70 69 70
56 48 42 43 42 43 51 52 54 53 53 54 57 59 62 63 63 61 62 63 64 64 61 61 62 64 66 64 67 67 65 64 65 65 68 68 69 69 68 70 71 71 66 69 70 69 68 67 56
53 46 43 41 43 45 51 52 54 51 50 53 56 59 61 62 63 62 62 62 64 64 61 61 63 65 65 64 66 65 65 64 66 69 70 69 69 69 67 67 66 66 65 64 67 67 65 61 57
50 47 46 44 42 43 47 51 52 52 49 53 57 60 61 61 61 61 61 62 62 63 62 62 63 65 65 64 65 64 63 64 63 64 69 69 68 68 68 66 66 66 64 66 65 65 65 63 62
50 44 43 44 43 39 40 48 49 52 53 54 57 59 60 60 60 60 61 61 62 62 63 63 64 66 66 66 63 62 64 64 62 64 66 67 67 68 68 68 66 67 66 65 66 65 65 66 67
39 44 41 36 31 32 32 44 48 50 54 55 57 58 58 59 59 60 60 60 61 62 62 63 65 67 67 67 67 66 66 64 64 62 63 68 68 69 67 67 66 66 67 67 68 66 66 64 62
38 26 24 24 26 28 32 37 43 47 55 56 56 56 57 58 59 59 60 60 61 61 61 62 65 66 68 68 69 68 65 65 63 62 65 67 69 70 71 68 67 66 69 68 68 66 65 62 59
25 23 23 28 25 26 28 30 38 47 54 55 56 56 56 57 58 59 60 60 60 61 62 64 64 65 67 68 69 67 65 65 63 61 63 67 68 71 71 68 67 68 69 67 67 65 63 60 59
22 24 27 28 27 28 29 30 34 45 51 53 55 55 56 57 58 59 59 59 60 62 63 65 66 65 67 69 68 68 66 66 62 61 63 66 68 70 71 69 68 71 68 68 67 65 65 60 59
21 22 26 28 28 27 30 32 34 46 48 51 55 55 56 56 57 58 59 60 62 64 65 66 67 67 68 69 69 67 65 64 62 62 63 65 68 69 71 69 68 68 67 66 67 66 65 61 59
21 21 24 25 27 25 28 29 31 40 48 49 53 55 55 56 57 58 60 61 62 63 65 67 67 68 69 68 67 65 62 62 61 62 65 67 70 71 72 69 69 70 68 68 68 67 66 60 61
19 19 20 24 24 24 28 29 31 37 47 48 52 54 55 56 56 58 59 60 61 63 65 67 67 69 70 68 67 64 62 61 61 63 66 69 70 71 72 71 69 69 67 70 70 68 62 61 56
17 18 19 20 23 23 22 24 27 31 45 48 50 53 54 55 56 57 57 59 60 61 64 67 69 69 70 69 68 67 64 63 63 64 67 70 71 71 73 71 68 70 70 67 70 69 66 58 58
14 16 16 16 18 19 23 22 27 28 37 43 47 51 52 55 56 57 57 58 59 61 64 66 69 70 71 70 67 68 63 61 62 64 65 67 70 70 71 72 71 72 69 69 71 69 66 66 55
15 10 14 15 15 18 20 21 23 27 28 34 40 46 51 53 56 57 57 58 59 61 63 65 69 71 71 72 69 68 67 63 62 62 66 70 70 71 70 71 72 72 71 70 71 70 69 66 57
18 14 15 16 12 12 18 20 21 24 30 31 36 43 50 52 55 56 58 58 58 60 62 64 69 71 72 71 71 71 70 67 63 65 64 65 66 68 70 70 72 72 71 71 72 71 70 68 63
19 18 13 10 9 8 14 18 21 23 25 30 32 36 48 52 54 55 58 59 59 59 62 64 67 70 71 70 71 71 71 71 69 68 67 66 64 64 68 71 71 71 73 71 72 72 69 70 66
18 16 9 6 2 4 11 12 16 22 25 27 30 30 42 49 53 54 57 59 60 60 63 64 66 69 70 70 72 72 73 70 69 69 66 66 64 65 66 70 71 71 71 72 72 71 70 68 68
20 17 12 7 10 7 3 8 14 21 22 25 26 28 31 44 52 54 56 58 60 62 64 65 67 70 70 69 72 73 73 72 67 69 71 67 68 65 67 68 71 70 71 72 72 70 70 67 68
17 18 12 10 8 7 1 6 8 14 21 24 25 28 31 42 50 53 55 57 59 61 63 65 67 69 70 69 70 71 71 73 72 71 71 70 68 69 67 69 70 70 71 72 72 70 70 69 67
16 16 15 12 9 5 5 3 11 14 20 21 24 28 31 39 47 50 52 55 57 60 62 64 66 67 68 69 70 70 70 71 72 71 72 72 71 71 71 70 70 69 71 72 72 71 68 70 68
16 17 16 12 14 11 10 6 12 12 15 22 22 27 30 35 38 42 47 51 54 57 59 62 63 65 67 68 71 71 71 71 70 72 72 73 72 72 72 72 71 70 70 71 72 71 68 69 69

GFSSGP_sfc_30mbdewp_033.txt.gz
Dewpoint
70 69 70 68 59 57 52 51 50 50 52 54 54 56 57 59 58 56 65 68 63 67 70 69 72 72 72 74 74 73 73 73 73 73 72 72 72 71 71 72 72 72 71 71 71 70 70 70 70
67 68 68 64 57 51 50 51 52 52 54 55 55 55 55 58 62 65 65 61 66 69 66 66 73 73 73 74 74 73 73 73 73 72 73 72 72 71 71 72 71 71 71 71 70 70 70 69 69
67 66 63 59 55 51 49 51 51 53 54 55 56 58 59 60 62 65 65 66 67 68 67 69 73 73 74 74 73 73 72 73 73 72 72 72 72 71 71 71 71 71 71 71 70 70 70 69 68
67 64 60 57 52 49 50 53 53 53 54 55 57 57 61 64 63 65 65 65 67 67 66 72 73 73 73 73 73 72 72 73 72 72 71 71 72 72 72 71 71 71 71 71 70 70 70 69 69
63 59 56 56 45 47 50 52 52 53 53 53 56 58 61 63 64 65 64 65 65 65 67 70 73 74 73 73 73 72 72 73 72 72 71 71 71 71 72 72 71 71 70 70 70 70 70 70 70
63 60 53 48 43 46 49 50 52 52 53 55 58 59 62 64 63 64 64 63 65 66 63 70 73 73 73 72 72 73 73 73 72 72 72 71 71 72 72 72 71 70 70 70 70 70 70 70 70
59 55 52 41 39 44 48 50 51 50 52 54 57 59 62 63 63 63 63 64 64 61 62 67 69 71 72 73 72 72 72 73 73 72 72 71 71 71 71 71 71 70 70 70 70 70 70 71 70
57 54 46 45 47 41 44 47 49 49 53 56 58 58 60 63 62 62 63 63 63 60 60 63 65 67 68 70 72 72 72 73 73 73 72 72 71 71 70 71 71 70 70 70 70 70 69 70 71
56 52 46 38 41 42 44 43 48 52 53 54 55 59 61 63 62 62 62 63 62 59 59 59 62 65 66 67 70 72 72 72 72 71 72 71 71 70 70 71 70 70 70 70 71 70 70 70 70
52 55 52 40 38 44 45 42 46 49 50 53 54 60 62 62 61 61 62 62 61 58 57 58 60 62 64 62 68 67 66 65 66 67 68 72 70 68 67 68 70 71 67 69 69 68 69 70 64
48 52 54 40 40 44 44 44 44 45 47 51 56 59 60 61 60 60 62 62 61 58 57 58 60 62 62 62 63 63 62 62 64 67 69 70 67 68 68 66 65 67 65 66 70 69 67 58 59
45 46 49 40 40 41 43 45 45 44 43 52 56 59 60 60 59 60 61 62 61 59 57 58 60 62 61 62 61 61 60 61 61 64 69 69 68 66 71 69 66 65 65 67 69 67 65 68 65
44 44 43 43 40 38 42 44 47 47 46 50 56 59 59 59 59 59 59 60 61 59 58 58 61 64 64 64 61 60 60 60 59 63 67 66 69 67 68 67 67 67 68 68 66 65 65 64 65
42 43 42 41 39 37 35 42 45 48 49 52 55 57 58 58 58 59 58 58 59 59 58 59 61 64 65 65 64 62 61 61 60 60 63 69 67 67 67 66 67 66 70 69 66 66 67 67 63
41 35 40 40 36 31 33 36 42 47 51 52 54 56 57 58 58 57 58 58 58 59 59 60 62 65 66 66 66 65 62 61 61 60 63 67 68 69 70 67 67 68 70 68 68 67 68 63 59
38 37 31 32 31 30 31 31 37 44 50 52 53 53 55 56 57 58 58 58 58 59 60 61 62 63 66 66 67 66 63 62 61 60 62 66 68 70 70 68 65 69 68 64 67 62 60 61 55
26 27 29 28 30 29 29 29 35 42 46 50 53 53 53 55 56 58 58 58 59 60 61 62 62 62 65 67 67 66 65 63 61 59 60 67 68 69 71 70 69 69 68 65 62 64 61 56 55
23 23 26 28 30 28 28 29 34 38 44 47 52 53 53 53 55 57 57 58 59 60 61 63 63 65 68 67 69 66 64 63 62 59 59 68 68 69 70 69 69 67 68 67 68 65 60 60 56
26 22 23 27 29 29 29 30 31 36 41 44 50 52 53 53 54 55 57 58 58 59 61 65 66 68 68 67 66 65 63 63 61 60 62 64 67 69 70 69 70 68 69 67 66 66 64 60 57
27 22 21 24 27 29 29 29 29 32 38 42 47 50 52 53 54 54 56 56 57 60 63 67 68 70 70 68 67 65 64 60 60 60 64 65 68 69 70 70 70 69 69 68 69 67 65 57 54
18 20 20 20 25 27 27 27 28 30 34 42 45 50 51 53 54 55 55 56 57 60 64 67 70 71 71 69 69 68 65 63 60 60 62 66 69 69 72 71 68 69 70 70 70 67 63 58 54
10 15 18 19 20 22 25 23 26 28 29 40 43 48 50 52 54 56 55 56 56 59 63 67 71 71 72 72 67 67 63 60 59 61 60 65 70 69 70 69 68 70 68 70 70 68 66 65 55
11 12 13 17 18 19 20 23 24 26 26 32 39 45 48 50 53 54 56 55 56 58 61 65 71 72 71 72 70 67 66 61 60 60 63 66 71 70 68 71 70 71 71 70 70 70 69 64 60
13 11 10 11 12 14 17 18 21 22 25 28 34 38 44 47 51 54 56 56 56 57 59 64 70 72 73 73 73 71 68 65 61 61 61 63 65 69 71 70 72 73 72 69 71 71 70 69 62
15 13 10 6 7 9 14 16 19 22 22 27 29 34 38 44 48 53 55 56 57 57 59 63 69 72 73 73 73 72 72 71 70 67 62 62 62 62 69 72 72 71 73 70 71 73 70 70 67
16 12 8 7 5 5 9 11 16 20 23 24 29 31 35 41 48 52 54 57 58 59 61 63 68 72 73 73 73 73 73 70 69 68 64 63 62 62 65 73 72 72 72 72 72 71 71 70 69
17 12 11 7 6 3 3 7 11 15 19 23 27 30 33 39 45 49 53 56 58 59 62 64 67 71 73 72 73 74 74 73 69 69 71 68 67 63 67 70 72 72 72 72 73 70 72 69 69
17 15 10 9 7 6 6 7 8 15 18 20 25 28 30 34 42 48 52 55 58 59 62 64 66 70 72 71 73 73 74 74 73 72 72 70 69 70 69 69 70 72 72 72 73 70 71 71 68
15 16 14 10 7 6 9 7 9 13 18 21 24 26 28 29 38 46 51 54 57 59 60 63 66 68 71 71 72 72 73 73 74 72 73 73 72 72 71 72 71 72 72 72 73 72 70 71 71
16 15 18 13 13 7 8 10 13 13 14 20 23 26 26 30 35 45 50 51 54 57 59 61 64 65 70 71 71 72 72 73 73 74 72 74 73 73 73 73 73 72 72 72 73 73 67 71 71

GFSSGP_sfc_30mbdewp_036.txt.gz
Dewpoint
70 69 69 68 60 59 54 54 58 55 54 55 59 60 59 59 57 54 66 66 64 68 69 71 73 73 73 74 74 74 74 73 73 73 72 73 72 72 72 72 72 71 71 71 70 70 71 70 70
67 68 69 65 57 52 52 53 52 53 54 56 57 57 57 59 59 64 64 63 64 66 66 68 73 73 74 74 74 73 73 73 73 73 73 73 72 72 72 71 72 71 71 71 70 70 70 69 70
66 68 64 61 57 51 49 52 52 53 54 55 56 58 58 61 62 62 62 61 64 64 63 72 73 73 73 74 74 73 73 73 72 73 72 72 71 71 71 71 71 71 71 70 70 70 69 69 69
65 65 62 57 54 52 53 57 51 54 55 56 57 59 61 63 62 58 57 61 62 64 66 72 73 73 74 74 73 73 73 72 72 72 71 72 72 72 71 71 71 71 71 71 71 70 70 69 69
66 63 58 55 55 52 52 53 52 51 53 56 58 59 61 63 60 58 60 60 61 67 70 70 74 74 74 73 73 73 73 72 72 71 72 71 71 72 72 71 71 71 71 70 70 70 71 70 70
64 62 55 52 52 49 49 49 52 53 55 58 59 60 62 63 62 63 62 64 66 66 67 71 74 74 73 73 73 73 73 72 72 72 72 71 72 72 72 71 70 70 70 70 70 70 71 71 70
55 57 53 51 45 47 48 51 52 50 52 57 59 60 62 63 63 63 66 63 66 63 67 70 72 72 73 73 73 72 72 72 72 72 72 71 71 71 71 71 71 70 70 70 70 70 70 71 70
60 62 57 55 40 41 46 48 50 52 53 58 60 59 60 63 63 64 62 65 62 61 65 68 70 70 70 71 72 72 72 72 72 72 72 71 71 70 70 72 71 71 70 70 70 70 70 71 71
56 54 52 50 42 41 42 45 51 53 53 55 59 60 62 63 63 63 63 64 61 61 63 64 65 68 70 70 71 72 72 72 72 72 72 72 72 71 71 71 70 69 70 70 70 69 70 70 71
51 52 51 52 51 48 42 43 47 49 50 56 59 61 62 62 62 63 63 62 60 59 59 61 63 66 68 65 71 71 70 69 70 71 66 66 72 71 68 69 71 70 68 69 71 70 71 70 68
49 49 48 47 47 45 42 41 46 45 48 56 58 60 61 61 61 62 62 60 61 58 57 60 64 66 65 67 69 68 68 67 69 70 69 67 71 70 70 68 68 70 69 70 60 64 69 68 68
46 52 51 48 47 44 47 48 40 44 48 57 59 60 60 60 61 61 61 60 60 57 57 59 64 65 64 67 64 65 64 65 66 71 69 71 69 70 65 71 69 70 69 68 68 69 69 64 64
43 53 50 48 45 49 50 50 48 44 51 55 59 59 59 60 61 61 61 60 60 58 57 60 64 66 66 68 63 63 63 61 64 69 70 70 69 70 70 70 67 69 70 70 70 70 68 68 64
42 46 46 47 41 37 39 48 48 43 48 53 57 58 58 58 60 61 61 61 61 59 57 62 65 67 68 67 68 66 64 62 62 64 69 70 71 70 71 70 68 71 70 68 69 70 69 65 64
39 40 41 41 39 36 33 36 43 48 49 52 55 57 58 57 59 59 61 61 61 60 59 62 65 66 68 68 68 67 66 61 61 65 70 68 69 70 69 70 69 71 71 71 69 64 66 65 60
37 39 37 38 39 36 31 28 38 49 49 51 53 55 57 57 56 58 59 60 62 59 60 62 60 65 67 68 69 68 66 64 64 63 67 68 69 71 72 70 70 66 69 70 66 70 66 66 64
36 34 36 36 37 33 30 28 36 47 48 51 52 53 54 57 56 57 56 58 58 60 63 63 62 65 67 69 69 68 67 67 65 64 66 69 70 71 72 71 68 71 70 70 68 66 66 63 59
31 28 32 33 31 31 28 27 35 39 47 50 52 52 53 54 55 57 56 57 58 62 64 64 64 67 69 69 70 69 68 67 66 64 63 71 70 71 72 71 70 71 70 68 67 66 64 61 59
31 25 25 29 30 28 28 27 36 39 48 47 51 52 52 53 55 57 57 58 59 62 65 65 66 68 69 69 69 68 66 66 66 65 66 71 71 71 72 71 70 70 69 69 68 67 65 64 57
33 28 22 22 26 30 29 27 30 36 43 44 48 51 52 52 53 56 57 57 58 61 65 66 67 69 70 69 69 68 67 66 66 64 67 69 69 72 72 71 70 70 68 70 69 68 67 62 58
32 30 25 21 22 28 30 29 29 31 36 40 46 50 52 52 53 55 57 57 58 62 65 67 68 70 71 70 70 70 69 68 66 64 66 68 69 71 72 71 71 70 71 69 70 69 68 62 58
22 28 25 23 21 22 31 26 30 29 30 37 40 47 50 52 54 54 57 57 58 61 64 68 69 70 71 71 69 69 66 64 64 63 64 67 70 71 72 72 73 71 70 70 71 71 69 65 57
13 16 21 19 19 19 20 22 24 29 29 33 39 44 49 51 53 55 55 57 57 60 65 68 70 71 72 71 72 69 68 66 64 65 64 68 72 73 72 73 72 72 72 71 71 72 70 69 65
12 10 9 11 14 17 19 20 24 25 29 31 35 40 47 49 52 56 56 57 57 60 65 67 71 71 72 73 71 72 69 67 64 64 65 68 71 72 73 73 73 73 73 72 72 72 72 71 69
13 10 9 8 9 11 16 18 21 22 28 30 30 38 46 48 51 55 57 57 58 59 63 66 71 72 72 73 72 71 73 69 69 68 64 65 66 70 72 73 73 73 73 74 74 73 73 72 71
12 11 9 8 8 7 10 12 18 21 21 24 29 35 40 45 47 54 57 58 58 59 62 65 70 71 72 72 73 71 73 71 68 71 65 65 66 66 71 72 73 73 73 74 73 75 74 73 72
14 11 10 7 7 4 4 8 11 18 19 21 23 29 37 40 44 52 56 58 59 59 61 64 68 71 73 72 73 74 72 73 71 69 70 69 67 67 69 73 73 73 74 74 74 72 74 72 72
13 15 11 10 8 8 7 10 11 14 19 22 24 24 32 37 42 50 55 58 59 59 61 63 67 70 72 73 73 73 73 73 73 71 71 69 70 68 70 73 73 73 73 74 74 73 73 73 72
13 15 14 11 8 8 10 6 14 20 19 22 24 26 30 35 41 47 54 57 60 60 61 62 65 69 72 73 73 73 73 73 73 72 72 73 71 73 70 74 73 73 73 73 74 73 72 73 72
15 15 18 14 14 10 12 11 16 19 22 22 22 26 30 34 43 46 51 55 58 60 61 62 64 66 70 73 73 72 73 74 73 72 72 73 74 72 74 73 72 73 73 73 73 73 71 72 73

GFSSGP_sfc_30mbdewp_039.txt.gz
Dewpoint
70 69 69 67 60 58 53 55 59 57 59 58 60 59 59 58 56 52 66 66 68 69 72 73 73 73 74 74 74 73 73 73 73 74 73 72 72 73 72 72 72 72 71 71 71 71 71 71 70
69 68 69 64 57 52 53 57 57 57 58 61 60 59 59 57 63 64 63 66 69 69 71 73 74 74 74 73 74 73 73 72 74 74 73 73 73 72 72 72 72 71 71 71 71 70 70 71 71
68 69 64 60 57 52 53 55 55 57 59 58 58 59 60 60 63 62 63 67 67 68 70 73 74 74 74 74 74 74 73 73 73 73 72 72 73 72 71 71 72 71 71 71 70 70 70 70 70
66 67 64 58 54 56 56 57 54 54 58 60 60 59 62 62 62 62 62 65 65 67 72 74 74 73 74 73 73 73 72 72 73 73 73 72 72 72 71 71 71 71 71 71 71 70 69 69 69
66 64 58 54 55 56 56 57 56 55 57 59 59 60 61 59 61 60 63 63 63 71 72 73 74 74 74 73 73 73 72 72 72 73 72 72 72 72 71 71 71 71 71 71 71 71 70 70 69
62 61 54 53 54 56 58 58 55 58 59 60 60 61 60 57 56 58 62 61 66 70 71 73 74 74 74 72 73 73 72 72 73 73 72 72 72 73 72 71 71 71 71 71 71 71 71 70 70
56 57 54 55 55 54 52 55 56 58 58 59 61 60 57 55 58 60 59 63 67 69 71 73 73 73 73 73 73 73 72 72 72 72 72 72 72 72 72 72 72 71 71 70 70 71 71 71 71
61 55 53 55 53 52 51 53 57 58 58 61 62 60 58 60 62 61 64 66 67 69 71 72 73 72 73 73 73 72 72 73 72 72 72 71 71 71 71 72 72 71 71 70 70 70 70 71 71
61 54 54 53 50 48 51 53 57 58 59 60 60 62 62 62 63 64 63 65 65 68 70 71 71 71 72 72 72 72 72 73 73 72 72 68 70 71 70 72 71 70 70 70 70 72 71 71 71
59 54 52 57 52 49 50 51 54 58 59 60 61 63 62 62 64 63 63 64 64 66 67 69 69 69 70 70 72 72 72 72 72 70 67 66 67 69 71 71 71 70 69 70 71 69 69 69 70
55 52 51 53 51 50 49 48 51 58 58 60 61 62 62 62 62 62 63 63 62 64 65 65 67 69 68 70 71 71 71 71 71 67 64 63 68 70 71 70 71 71 69 69 64 67 68 70 69
49 52 51 49 49 50 47 50 47 57 59 61 62 62 62 61 62 63 63 61 60 61 61 63 67 68 68 69 69 70 69 69 70 68 64 67 63 69 69 70 69 70 68 67 68 68 69 67 67
46 51 50 50 49 48 52 49 53 57 60 61 61 61 61 62 62 62 63 61 59 58 59 62 66 67 68 67 67 67 67 67 70 70 67 69 67 69 70 70 70 69 69 69 68 68 69 66 65
46 46 50 51 48 48 47 46 50 58 59 60 60 60 61 61 62 62 61 61 59 58 58 63 65 68 67 66 65 64 67 65 70 71 70 70 68 71 71 71 70 70 69 68 68 70 68 66 66
46 43 48 48 47 46 46 46 44 58 59 59 60 60 60 61 61 61 61 61 61 61 59 63 64 68 67 67 67 67 67 63 65 68 71 71 71 70 69 69 70 69 70 68 70 64 67 65 65
42 41 40 46 44 42 45 44 51 55 57 58 59 59 60 61 61 61 61 61 61 61 63 64 63 67 67 67 67 68 66 67 66 69 68 69 69 72 70 70 69 70 71 71 70 68 64 66 64
39 37 36 39 40 39 33 34 52 55 55 57 58 58 59 60 61 61 61 61 61 61 64 64 64 66 69 68 68 67 68 68 68 69 68 68 69 71 72 69 69 69 71 69 67 69 66 64 64
36 36 36 35 38 38 35 30 51 53 56 55 58 57 57 59 60 61 62 61 61 62 64 64 65 65 67 69 70 67 67 68 68 68 68 69 70 71 71 71 69 71 69 68 66 65 64 63 57
37 37 33 33 36 36 36 30 48 55 58 58 56 57 57 57 57 59 61 61 62 63 64 63 66 67 66 69 68 68 66 67 67 65 70 70 71 71 71 71 70 70 69 68 68 66 65 62 58
32 35 34 29 30 33 33 31 33 53 54 54 54 56 57 57 56 57 57 58 61 64 65 64 68 69 67 69 67 68 69 67 67 65 71 71 71 71 71 71 70 71 70 69 69 68 65 65 60
28 32 33 32 26 26 30 29 31 49 51 56 60 61 60 55 56 57 56 57 62 64 65 66 66 69 68 69 69 69 69 68 67 65 66 71 71 72 71 71 71 71 69 69 69 68 68 58 62
28 31 33 33 30 24 30 29 32 40 48 55 58 58 58 54 55 57 56 57 59 64 65 66 67 71 69 70 69 68 66 66 68 64 65 68 70 70 71 71 70 71 71 69 69 70 68 62 56
29 27 29 32 31 26 26 28 31 33 40 47 52 53 54 54 54 57 57 58 58 63 66 66 67 69 70 70 69 69 68 68 65 65 64 68 68 70 73 71 72 71 72 70 69 71 68 67 64
30 28 22 27 26 21 21 26 29 32 32 37 46 50 52 53 53 55 57 57 58 63 66 67 67 68 70 70 70 69 69 67 67 64 64 68 69 70 72 73 72 72 72 71 71 71 70 69 69
28 20 14 12 17 16 17 18 21 29 32 35 37 47 51 53 53 54 57 57 58 62 64 67 68 68 71 70 69 71 69 69 66 66 64 66 71 70 72 73 72 72 72 73 71 72 72 70 69
22 18 11 10 10 11 13 11 17 22 26 31 35 44 50 52 52 54 56 57 57 59 64 67 68 69 70 71 70 68 72 70 68 69 66 65 69 70 71 73 72 72 72 72 73 72 72 72 69
17 14 14 11 14 11 12 11 12 14 19 20 25 36 49 51 53 55 56 57 57 59 64 66 69 69 70 71 71 70 70 73 69 66 71 66 67 69 71 72 74 73 72 72 72 74 72 73 71
18 16 12 11 9 9 10 11 10 11 13 19 20 22 45 48 51 56 56 56 57 58 63 66 69 70 71 71 72 72 70 69 73 69 67 71 66 67 70 72 73 73 73 72 72 74 74 72 73
15 15 13 13 12 11 13 14 15 14 15 17 22 25 40 47 50 55 57 57 58 58 61 64 67 70 71 71 71 72 71 70 71 72 69 71 70 70 69 72 73 72 73 74 73 73 73 73 73
20 13 16 12 12 13 12 13 23 24 19 18 22 24 35 44 46 55 57 58 58 58 60 63 65 69 71 72 71 71 72 72 70 72 73 69 72 70 73 73 73 73 72 72 74 72 72 71 72

GFSSGP_sfc_30mbdewp_042.txt.gz
Dewpoint
70 70 69 67 59 58 53 53 58 58 58 59 56 57 57 60 58 51 67 67 69 71 73 73 74 73 73 73 73 74 72 73 73 73 73 73 72 72 72 73 71 71 71 71 72 71 71 69 70
69 68 69 64 56 52 51 54 57 59 60 60 60 59 59 59 63 64 65 68 70 72 73 73 74 74 73 74 73 73 73 74 73 73 73 73 72 72 72 72 72 71 71 71 71 71 71 70 68
68 68 64 59 56 52 53 55 58 59 61 60 58 61 61 60 63 63 66 69 70 71 73 73 74 74 74 72 74 72 73 72 72 72 72 73 72 72 72 72 71 71 71 71 70 70 70 70 69
67 67 65 57 54 57 58 57 58 58 59 60 60 59 60 63 62 64 68 68 69 72 73 74 74 73 73 73 73 72 72 72 72 72 73 72 72 71 72 72 72 72 71 71 71 70 70 70 69
67 64 57 54 55 57 59 61 59 58 59 59 60 59 59 62 62 66 66 67 69 72 73 74 74 74 73 73 72 72 72 72 73 72 72 73 72 72 72 72 72 71 71 71 71 71 70 70 69
60 60 53 51 53 57 59 60 60 59 60 60 59 58 56 61 62 64 65 66 71 72 73 74 74 74 73 72 73 72 72 72 72 72 72 73 72 72 72 71 71 71 71 71 71 71 71 70 70
57 56 52 54 54 56 57 62 60 59 59 59 60 55 57 58 60 63 63 70 71 72 73 74 74 73 72 72 73 72 72 72 72 72 72 72 72 72 72 72 71 71 71 71 71 71 71 70 69
60 54 54 55 54 55 57 61 62 59 59 61 57 54 54 56 60 62 61 69 69 71 73 73 72 72 73 73 73 72 73 72 72 72 72 71 71 71 72 72 72 71 71 70 70 70 70 70 69
60 51 52 53 54 52 57 58 60 61 60 60 60 57 55 56 59 58 64 68 69 71 72 72 72 72 73 73 72 72 73 72 72 73 73 70 70 71 71 72 71 71 70 70 71 72 71 70 68
59 56 52 54 54 53 55 58 59 59 60 60 59 56 59 59 58 61 64 67 68 69 71 72 71 71 72 72 72 72 73 73 73 69 67 67 68 69 72 72 71 70 69 70 69 69 71 70 70
60 56 55 52 55 53 50 58 59 59 59 60 59 60 60 60 62 63 64 66 67 68 70 70 70 70 71 70 72 72 72 72 72 68 65 66 67 69 70 71 71 70 69 68 65 67 69 68 69
55 58 55 51 53 53 49 53 58 58 59 61 61 61 61 61 63 63 63 64 66 67 68 69 69 69 69 71 71 71 71 71 70 67 63 67 66 69 69 68 69 70 68 68 67 68 69 68 67
51 52 53 52 50 50 49 49 56 58 61 62 61 61 61 62 62 62 63 63 65 65 66 67 67 68 68 69 69 70 69 70 70 69 65 66 67 68 69 69 70 69 69 68 69 68 68 68 65
49 50 50 48 46 49 47 51 57 60 62 61 61 60 61 61 62 63 63 62 63 63 64 65 67 68 68 67 67 68 68 68 70 70 66 68 66 69 69 69 68 68 69 69 68 69 68 66 65
44 46 48 46 45 48 49 50 57 60 61 61 61 61 61 61 62 62 63 60 61 61 62 64 66 67 67 66 65 66 67 66 69 70 68 70 68 70 69 70 70 68 69 68 67 67 67 63 64
40 44 45 47 47 48 47 46 58 60 60 60 60 61 61 62 62 62 62 61 60 59 61 64 65 67 66 67 66 68 66 66 69 70 71 70 70 70 70 70 70 70 71 70 70 68 64 64 64
33 35 40 45 48 47 46 46 58 60 59 59 59 60 60 61 61 61 61 61 61 60 60 63 64 68 66 68 66 67 68 68 68 69 70 70 71 71 68 69 70 70 70 70 67 68 66 64 63
31 37 38 38 39 45 45 48 57 59 59 59 59 59 59 60 60 61 61 61 62 62 62 63 63 68 66 68 66 66 66 67 68 68 68 69 71 71 71 69 68 70 69 69 68 65 64 63 62
32 35 36 37 38 37 41 51 56 57 58 58 59 59 59 60 61 61 62 61 61 63 63 62 63 67 67 67 66 64 64 65 67 68 68 69 70 71 71 70 70 70 69 69 66 66 63 60 60
27 28 34 38 38 33 35 49 54 55 57 58 59 59 59 59 60 61 61 61 61 63 63 63 63 65 67 66 66 66 65 66 66 67 68 69 70 71 71 70 69 70 69 69 68 67 65 62 59
25 26 27 35 36 33 31 41 49 53 56 55 57 59 59 58 60 60 61 61 61 63 63 63 64 64 65 67 67 68 68 67 66 67 68 70 71 71 71 70 70 70 70 69 69 68 65 57 61
23 25 26 30 32 31 29 29 48 52 54 54 55 58 58 58 58 60 60 61 61 62 63 64 65 66 66 68 66 66 65 67 67 66 66 70 71 71 72 71 70 71 70 68 69 69 67 57 57
24 25 25 28 30 31 31 28 41 52 53 52 54 55 57 58 58 57 58 60 61 61 64 64 67 67 67 69 67 66 65 67 68 66 65 68 70 71 71 71 70 70 71 69 69 70 69 63 57
30 27 28 29 27 26 29 27 27 49 51 52 53 51 53 55 57 57 57 58 61 62 64 64 68 67 68 69 68 67 66 67 66 66 65 66 69 70 71 71 71 71 71 71 69 70 69 68 63
32 28 26 25 23 21 26 24 24 40 51 51 52 54 56 54 56 56 56 56 61 63 63 65 66 68 68 68 69 68 67 67 67 66 65 65 67 68 70 72 71 71 71 70 70 71 70 68 68
30 28 26 24 21 20 18 17 18 22 37 49 52 56 54 53 55 55 57 56 58 63 64 64 65 66 69 68 68 68 69 68 67 66 65 65 67 68 70 71 72 72 72 72 71 70 71 70 69
30 28 24 15 14 11 13 13 14 15 14 31 45 53 52 54 54 54 56 57 57 62 64 65 65 65 68 69 69 70 70 68 68 67 67 65 68 70 70 71 72 72 72 72 72 71 70 72 70
25 24 23 19 13 10 11 11 12 12 12 13 27 46 49 53 54 54 55 57 57 60 63 65 66 65 66 69 68 68 69 71 70 68 68 69 66 69 70 71 72 72 71 71 72 73 72 71 72
27 20 18 17 14 11 9 10 12 13 14 12 16 41 49 52 53 53 55 57 57 59 62 65 66 66 67 68 69 69 68 68 72 70 67 67 70 67 69 71 72 72 72 71 71 72 73 71 71
30 24 16 12 12 13 13 10 21 17 17 15 14 26 49 52 53 54 55 56 57 58 61 64 67 67 67 68 69 70 70 69 68 72 70 68 68 70 67 71 71 72 72 72 71 71 72 73 72

GFSSGP_sfc_30mbdewp_045.txt.gz
Dewpoint
70 70 69 67 59 57 53 53 58 58 58 58 56 56 57 60 57 52 66 67 70 71 73 73 73 72 73 73 73 73 73 73 73 73 73 72 72 72 72 71 72 72 72 71 71 70 70 70 70
69 69 68 64 56 52 50 55 57 58 59 59 58 60 59 59 62 65 65 69 71 72 73 74 73 73 72 73 72 73 72 72 73 73 72 72 72 72 72 71 71 71 72 71 71 70 69 69 69
69 69 63 58 55 51 52 56 58 60 61 59 59 61 60 60 63 63 67 70 72 72 73 73 73 74 72 72 73 73 72 72 73 73 73 73 72 72 71 72 71 71 71 71 71 71 69 68 69
67 67 65 57 54 56 57 60 59 58 60 61 60 58 61 63 62 65 69 71 72 73 73 73 72 73 72 72 73 73 72 72 72 73 72 72 72 72 72 71 72 71 71 71 70 70 70 69 69
67 65 57 55 55 57 58 61 61 59 59 59 59 57 60 62 65 67 69 70 71 72 73 73 73 72 73 72 72 72 72 72 73 73 72 72 72 72 72 72 72 72 71 71 71 71 70 69 69
61 61 53 51 53 56 59 62 62 60 61 59 58 57 59 64 66 67 68 70 71 73 74 73 73 72 73 72 72 72 72 73 72 73 73 72 72 72 72 72 71 71 71 71 71 70 69 69 69
58 56 52 54 54 55 58 63 61 60 60 59 58 55 58 63 65 66 67 70 72 73 73 73 73 72 72 72 72 72 72 72 72 73 73 72 72 72 72 71 71 71 71 70 70 69 69 68 69
59 55 54 55 54 54 57 60 63 61 59 61 57 55 57 62 63 65 69 70 72 73 73 73 73 72 72 73 72 72 72 72 72 72 72 72 72 72 72 73 72 71 70 70 70 69 68 68 69
59 52 50 53 54 55 59 58 63 63 60 59 58 56 58 62 63 66 68 69 71 72 73 72 72 72 72 73 72 72 72 72 72 72 73 72 70 71 72 72 71 70 70 71 71 70 69 67 69
59 55 52 54 54 54 56 59 61 59 59 56 54 57 59 61 61 66 67 67 69 69 72 72 72 72 72 73 72 72 73 72 73 72 69 69 69 70 71 72 71 70 69 71 67 70 71 70 68
60 55 56 53 55 57 55 58 59 59 59 57 54 56 57 60 60 65 67 67 67 69 71 71 71 72 72 72 72 72 72 73 72 67 66 68 68 69 70 70 71 70 69 68 67 68 69 68 69
58 59 59 53 53 55 53 58 59 59 59 59 55 56 56 59 58 63 66 67 68 69 70 71 71 71 71 71 71 71 71 72 71 69 64 66 68 69 69 69 69 69 68 67 67 68 69 66 68
55 56 56 59 58 54 51 57 58 59 61 56 57 55 55 57 59 64 66 67 68 68 69 70 69 70 70 69 71 70 70 71 70 68 64 66 67 68 69 69 68 69 69 68 68 69 68 66 64
49 50 51 52 52 48 48 50 58 60 60 58 59 56 56 56 61 63 64 66 67 68 68 69 68 69 69 69 68 69 69 70 70 69 66 67 68 68 68 68 68 68 69 68 68 69 68 65 64
43 45 45 47 49 48 51 54 56 61 60 60 59 59 58 60 63 62 64 65 66 66 67 67 67 68 68 68 67 68 68 68 69 70 68 67 68 69 69 69 68 68 69 68 67 65 66 63 63
38 40 41 45 48 47 47 46 59 61 60 59 60 60 59 61 62 62 63 64 65 64 65 65 66 67 67 67 66 66 67 67 68 69 69 68 68 70 69 69 69 69 69 69 69 68 65 64 62
29 35 41 42 46 47 46 51 59 61 60 59 59 59 60 60 61 63 63 62 63 63 63 64 66 67 67 67 66 66 66 66 68 70 70 69 69 70 69 69 70 70 69 69 69 67 66 62 63
30 34 36 37 41 47 46 48 59 60 60 60 60 59 60 60 60 62 62 62 61 61 61 63 65 67 66 67 67 67 67 68 68 69 70 70 71 71 69 69 69 69 70 69 68 65 64 64 62
32 35 37 38 40 42 46 47 57 59 59 59 60 60 60 60 62 61 62 62 61 60 60 62 64 66 66 67 66 65 65 66 68 69 69 69 71 71 70 69 68 70 69 68 66 65 61 59 60
25 25 30 34 37 37 39 45 56 58 58 59 59 59 60 60 60 61 61 62 62 61 59 62 63 65 67 66 66 65 64 65 66 67 68 69 70 71 71 70 70 70 69 68 67 66 64 60 60
24 23 25 30 35 36 39 43 51 58 58 58 59 59 59 59 59 60 61 61 61 62 61 61 62 63 66 66 66 68 67 66 66 66 68 69 69 71 71 70 69 69 69 68 68 67 64 56 61
24 25 26 27 29 30 34 34 53 56 57 57 58 59 59 59 60 60 60 61 61 62 63 63 62 63 66 66 66 65 63 62 63 65 66 69 70 70 71 70 69 70 70 68 68 68 67 57 58
26 25 25 26 26 28 28 30 42 53 54 56 57 59 59 60 60 60 60 60 61 61 63 63 63 63 65 67 65 65 63 62 66 66 65 68 70 70 71 71 70 70 71 69 69 68 67 58 57
28 25 25 26 26 24 26 29 29 48 50 54 56 56 57 59 60 60 61 60 61 61 63 64 64 64 64 66 65 64 64 65 66 66 65 66 69 70 71 71 70 70 70 70 69 69 68 66 61
29 25 23 21 23 24 27 28 29 45 49 51 54 54 54 58 59 59 60 60 61 61 63 63 64 64 65 66 66 65 65 65 65 66 66 65 67 68 70 71 71 70 70 71 70 69 70 69 65
30 29 25 21 24 25 26 24 26 34 47 51 52 53 53 56 58 59 59 60 61 61 62 63 64 64 65 66 66 66 66 66 66 66 66 65 66 67 69 71 71 70 71 71 70 70 70 69 68
31 29 30 25 16 20 23 17 19 26 40 49 51 52 53 53 54 56 58 58 59 61 62 63 64 65 66 66 66 67 67 66 66 67 66 66 66 67 68 69 71 71 71 71 71 70 70 71 69
33 31 29 24 23 16 17 14 19 19 21 38 50 51 51 53 54 54 57 57 58 61 62 63 64 65 66 66 66 67 67 67 67 67 66 66 66 67 68 69 70 71 72 71 71 70 70 70 70
26 30 28 29 23 23 13 13 16 15 18 21 40 47 50 53 54 53 55 57 57 61 63 63 64 64 65 67 67 67 67 68 68 68 68 68 66 67 69 69 70 71 71 71 71 71 71 70 70
31 27 22 27 23 18 18 19 16 15 14 18 21 38 45 51 54 53 54 56 57 57 62 63 63 64 64 67 67 67 68 69 69 69 68 68 69 67 68 70 70 71 71 71 71 70 71 71 71

GFSSGP_sfc_30mbdewp_051.txt.gz
Dewpoint
68 69 68 67 58 56 52 54 58 56 57 56 55 54 55 58 55 53 64 65 65 69 69 72 73 73 73 73 73 73 73 73 73 72 72 72 72 72 71 71 71 72 70 70 71 69 68 70 71
67 68 67 64 55 51 52 55 57 56 58 56 58 58 58 58 62 63 64 66 66 68 67 71 73 73 72 73 73 73 72 73 73 72 72 72 72 72 72 71 70 70 71 70 70 69 69 69 69
68 67 64 59 55 52 52 56 59 60 57 56 59 60 60 60 63 62 65 66 66 69 68 71 73 72 73 73 72 73 73 72 72 72 72 72 71 71 71 70 69 70 69 70 70 69 69 69 69
66 67 64 57 53 55 57 59 60 60 57 56 60 58 61 63 62 64 67 67 66 69 67 72 73 71 73 72 73 73 72 71 72 72 71 72 72 71 71 71 71 71 70 70 70 69 70 69 69
67 65 57 55 55 57 59 61 61 59 58 59 58 58 60 63 65 66 67 66 66 67 69 71 73 72 73 72 72 73 72 71 72 72 72 71 71 71 71 71 71 71 70 69 69 69 69 69 69
63 61 54 51 54 57 59 60 62 59 61 59 59 58 60 64 66 66 66 66 67 66 67 70 72 72 72 72 71 72 72 72 72 72 72 72 71 72 72 71 71 70 69 69 68 69 69 69 69
60 57 53 53 54 56 58 61 59 61 60 59 59 57 62 64 66 67 66 67 67 66 69 69 71 71 72 72 72 73 72 72 72 73 73 72 72 72 71 71 71 70 69 68 68 69 69 69 70
61 57 53 54 53 53 59 58 61 61 59 60 59 57 59 63 67 67 66 66 68 66 69 69 71 68 69 70 72 72 72 73 73 73 73 72 72 72 71 71 70 70 68 68 68 69 69 70 70
60 53 50 53 54 55 59 59 61 63 58 57 57 58 61 65 67 66 65 65 68 66 69 67 70 69 71 70 71 70 72 72 72 73 74 73 71 70 69 70 70 70 70 69 68 69 69 70 70
58 55 52 55 56 56 57 59 60 60 58 56 58 60 63 65 65 64 62 62 65 65 68 67 69 70 70 69 71 71 71 70 71 72 72 71 71 71 69 70 70 70 70 70 71 69 70 68 66
59 55 55 54 55 58 58 58 61 59 57 57 58 61 63 63 63 62 61 63 63 65 67 69 69 71 70 70 70 71 71 71 72 71 70 71 71 71 69 69 70 69 69 67 68 69 66 66 65
57 59 58 57 55 55 56 58 59 59 58 59 59 61 62 61 61 61 60 63 64 65 67 69 69 70 70 71 70 70 70 70 69 69 70 70 70 70 71 68 69 69 68 69 69 68 69 68 68
56 58 58 59 57 56 56 55 56 58 59 59 60 61 60 60 60 60 61 64 64 64 66 69 70 70 71 71 70 70 70 70 69 68 67 69 69 70 69 68 69 70 70 70 69 69 67 68 68
53 55 56 55 53 54 53 51 56 59 58 58 60 60 60 59 59 60 62 63 64 65 67 69 70 69 71 70 71 70 70 70 70 69 66 68 68 70 70 70 70 70 70 69 70 70 66 65 64
49 49 47 46 48 50 50 51 55 57 58 58 59 59 59 59 59 60 62 63 65 65 67 68 69 69 70 70 70 69 69 69 68 67 67 67 69 70 71 70 70 69 70 70 69 68 66 64 65
35 39 42 46 47 48 49 46 57 57 57 57 58 58 58 58 59 61 62 63 64 65 67 68 67 67 68 68 69 68 67 68 69 70 70 70 69 71 72 71 69 70 70 70 68 66 64 63 64
34 26 38 44 47 47 48 46 58 57 56 56 57 58 58 58 59 62 63 64 65 66 67 68 68 67 67 68 67 67 67 68 68 69 69 71 70 70 71 70 71 71 71 70 69 68 64 62 62
24 26 38 44 44 46 47 47 58 57 56 55 55 56 57 57 57 61 63 64 66 66 67 67 67 67 68 68 69 66 65 67 68 68 69 70 70 70 71 71 72 71 70 69 68 69 66 65 63
33 33 33 41 44 44 46 46 56 58 58 55 54 55 55 56 56 59 62 63 66 67 67 67 67 67 67 67 65 65 64 66 67 69 70 71 71 71 72 71 71 71 70 69 68 66 65 63 64
27 31 33 37 39 41 44 44 53 58 58 58 56 54 54 54 55 58 61 62 63 66 67 67 67 68 68 66 67 66 66 67 68 70 70 71 71 72 72 71 70 71 69 71 69 68 62 62 63
22 25 31 32 31 37 38 39 46 57 58 59 58 57 56 55 55 58 60 61 62 64 66 67 67 67 67 67 67 68 68 68 68 69 69 70 71 72 73 72 71 71 70 69 70 68 66 59 63
15 22 30 31 29 34 38 37 40 49 56 58 58 58 58 57 57 58 59 60 61 63 65 66 67 67 67 68 66 66 64 64 65 67 68 70 71 71 73 73 72 72 72 70 70 70 67 63 60
16 19 18 26 30 29 31 34 37 47 51 55 57 58 59 59 58 58 60 61 61 63 64 65 67 68 68 69 68 67 65 65 66 66 69 70 71 71 71 72 72 71 71 71 72 71 70 66 61
21 23 21 18 21 28 31 31 33 42 47 52 56 58 59 59 59 60 60 61 62 63 63 64 66 67 68 69 68 69 67 66 66 66 66 66 68 69 71 71 72 72 71 72 71 72 71 68 63
24 19 20 19 15 19 30 30 32 36 44 47 53 57 58 59 60 60 60 61 62 63 64 64 65 66 67 68 68 68 68 68 67 67 65 65 66 68 69 71 72 71 72 72 72 72 71 70 67
25 22 15 16 11 8 25 28 30 34 35 43 49 53 57 59 59 60 60 61 63 63 64 64 65 66 67 67 68 68 69 66 66 67 65 65 64 65 69 71 71 72 72 72 72 71 71 71 69
25 25 22 16 23 17 12 26 31 33 33 35 42 50 55 57 59 59 60 61 62 63 64 65 65 66 66 66 67 68 68 68 66 67 68 66 67 65 68 70 70 71 71 72 72 71 72 72 71
26 27 25 23 15 15 15 16 21 30 31 34 38 43 52 56 58 59 60 60 62 62 64 65 65 66 66 66 67 67 68 69 68 68 68 67 67 68 66 69 70 71 71 72 72 70 72 72 71
26 26 27 25 23 15 14 16 23 27 34 33 37 41 46 53 57 58 60 61 62 62 63 64 65 66 66 66 66 67 67 67 68 67 68 68 68 69 69 69 70 70 71 71 72 71 70 72 71
31 27 25 27 25 25 22 16 25 30 31 33 33 36 43 50 55 57 58 61 61 62 62 63 64 64 65 66 67 67 67 68 67 68 68 69 69 69 69 69 70 70 70 70 71 70 69 70 71

GFSSGP_sfc_30mbdewp_054.txt.gz
Dewpoint
67 65 63 65 58 55 51 54 56 56 54 55 54 53 54 55 55 56 63 65 64 63 68 70 73 73 73 73 74 73 72 72 72 72 72 72 73 72 71 71 72 70 70 71 69 69 70 70 70
66 67 68 64 56 51 51 55 55 54 56 55 55 55 54 57 60 61 62 63 62 61 65 67 73 73 73 73 73 73 73 73 73 73 72 72 72 72 71 70 70 71 70 70 70 70 69 70 70
64 65 63 59 55 50 52 56 57 56 55 55 58 57 58 59 61 61 62 63 61 61 64 70 73 73 73 73 73 73 73 73 73 73 72 72 72 71 70 70 70 70 71 70 69 69 70 69 70
61 64 65 57 53 53 56 58 59 56 56 58 57 57 61 63 61 62 61 61 60 61 63 73 72 73 73 73 73 73 73 72 72 72 71 72 71 71 71 71 71 70 70 70 70 70 69 69 69
64 64 57 55 54 56 58 59 61 56 54 56 57 58 61 62 63 62 60 59 59 60 65 70 73 73 72 73 73 72 72 72 72 72 72 71 71 71 72 71 71 71 70 70 69 69 69 69 68
62 62 54 51 53 55 58 60 61 58 59 58 58 58 60 63 63 62 60 59 59 60 63 67 73 73 73 72 73 72 71 72 72 72 71 72 72 72 71 71 70 69 69 69 69 69 69 69 70
59 56 52 52 53 53 55 60 60 59 60 59 59 57 61 63 62 61 59 59 59 60 62 65 69 72 72 72 73 73 72 72 72 71 72 72 72 71 71 70 69 69 68 68 69 69 69 70 71
62 56 52 52 53 53 59 57 59 60 59 60 59 58 60 63 63 60 59 59 59 60 61 64 65 69 67 69 73 73 72 72 71 72 73 72 71 70 68 70 70 69 68 68 69 69 70 69 71
61 52 49 50 52 55 58 57 60 62 59 58 58 58 61 64 63 59 59 59 59 60 61 64 63 65 67 67 71 72 73 73 73 72 73 72 65 65 67 69 70 69 68 68 69 69 70 70 71
56 54 49 52 54 54 57 57 58 59 57 56 57 59 63 64 63 58 58 58 58 59 60 62 62 64 66 65 69 68 69 67 67 67 69 65 66 66 66 68 70 70 70 70 69 70 70 69 64
57 53 52 54 55 55 55 55 58 57 56 56 57 59 63 62 62 57 57 58 57 58 59 61 63 65 65 66 67 67 66 67 68 70 69 67 66 65 65 67 67 66 69 65 67 68 64 63 63
52 54 54 53 54 52 52 56 56 57 57 58 59 60 62 60 58 56 56 57 56 58 60 61 64 66 65 66 65 65 64 65 65 66 70 69 66 66 65 65 66 66 65 67 66 64 65 65 65
50 52 55 56 54 53 54 53 53 55 58 59 60 60 60 59 58 57 56 56 57 58 61 61 64 67 67 67 65 64 65 64 64 67 68 66 65 66 66 67 66 65 65 65 65 65 65 67 65
45 47 54 55 54 53 52 51 51 55 58 59 60 60 59 58 57 57 56 57 58 58 60 62 64 67 68 67 68 67 66 66 65 64 65 69 66 68 67 68 67 66 64 64 64 65 62 60 61
41 46 49 51 51 50 51 48 50 57 58 59 59 59 58 57 57 57 57 57 59 59 60 62 64 66 68 68 69 67 66 65 65 65 68 68 69 71 68 68 69 66 68 68 67 65 63 58 59
28 38 43 47 48 48 49 43 52 57 57 58 59 58 58 57 57 57 58 57 59 59 61 63 62 63 66 67 68 65 65 65 64 65 66 68 70 71 70 69 66 68 65 63 62 60 58 58 57
18 23 34 41 46 47 47 44 54 55 56 57 58 58 58 58 57 57 58 58 59 60 62 63 63 62 64 66 67 66 66 66 66 66 67 70 70 70 68 66 67 69 64 62 60 59 57 58 56
17 19 26 35 45 46 45 45 54 54 54 56 58 57 57 57 56 57 58 58 59 61 63 64 63 63 65 65 66 65 66 66 66 66 66 70 70 70 68 68 68 68 63 62 61 61 62 58 56
23 23 24 39 45 45 44 44 52 54 54 56 57 57 57 57 57 57 58 59 59 61 62 64 64 64 65 64 64 64 64 64 65 66 68 70 69 70 69 68 68 66 65 65 67 65 66 59 60
22 29 29 34 43 44 43 43 46 54 54 54 56 56 56 56 56 57 59 59 59 61 63 64 65 65 66 63 63 63 63 64 65 66 69 70 70 71 70 69 68 66 64 66 67 65 60 60 60
19 18 26 30 36 40 42 42 43 51 54 55 55 55 55 55 55 56 58 58 59 61 63 64 66 66 67 63 63 65 66 66 67 67 67 69 70 70 71 71 69 68 66 64 66 67 63 58 61
13 11 16 27 31 35 40 37 40 44 52 54 55 55 54 54 55 56 57 58 58 60 64 65 67 67 67 66 63 66 64 62 62 64 64 66 70 70 71 71 70 69 67 68 65 67 64 63 57
16 14 11 15 28 32 34 37 38 41 46 52 54 55 55 54 54 55 56 59 59 59 61 65 67 68 68 68 65 64 65 60 62 63 65 68 71 70 69 71 71 71 68 68 69 68 68 63 59
20 18 16 15 12 22 31 33 34 37 40 45 51 53 55 56 55 55 56 58 59 60 61 63 67 69 69 68 67 67 65 63 61 64 64 65 65 69 70 70 71 71 68 69 69 69 69 67 64
22 18 16 13 7 5 22 29 32 34 39 41 45 51 54 56 57 57 56 58 59 60 61 62 66 68 69 68 67 66 66 67 65 66 64 63 62 63 66 71 71 70 72 70 71 70 70 71 66
23 21 15 12 7 2 4 17 28 34 36 38 44 48 52 54 56 57 58 58 60 61 61 62 65 68 68 68 69 69 69 65 65 66 63 63 62 62 64 70 70 71 70 70 71 70 69 69 69
24 22 21 15 15 13 5 5 15 29 33 36 38 42 49 52 55 57 58 59 60 61 63 64 66 67 68 67 69 70 69 68 65 67 67 65 66 62 64 67 69 69 70 70 70 69 70 70 71
27 26 22 20 16 14 13 11 6 25 31 33 35 37 43 49 53 55 58 59 60 61 62 64 65 67 67 66 68 68 67 69 68 67 67 67 65 67 64 66 68 67 68 70 71 68 69 70 69
23 24 25 23 20 17 15 12 14 17 23 32 33 35 38 46 52 54 57 59 60 61 61 63 64 65 66 67 67 67 67 67 68 67 68 69 68 67 69 67 66 66 69 70 70 69 68 70 70
28 25 24 23 23 22 20 16 17 20 20 27 31 34 37 40 48 53 55 57 59 60 61 61 63 64 65 66 68 68 68 68 67 68 68 69 69 69 69 68 68 67 67 69 70 69 67 68 69

GFSSGP_sfc_30mbdewp_057.txt.gz
Dewpoint
68 65 65 59 58 55 53 53 56 54 52 55 53 53 57 57 56 55 64 65 64 62 68 71 73 72 72 72 72 72 73 72 72 72 72 73 73 71 71 71 71 70 71 69 69 70 70 71 71
62 65 63 64 57 52 52 53 54 54 53 53 53 54 55 56 59 61 63 65 61 61 62 66 74 73 73 74 73 72 72 72 72 72 73 73 72 71 70 70 71 70 70 70 70 69 70 71 71
61 63 63 58 54 51 54 55 55 54 53 55 54 56 58 58 60 61 62 60 59 58 62 71 73 73 73 73 73 73 73 73 73 73 72 72 72 71 71 70 70 71 70 70 70 69 69 70 70
60 61 65 59 52 52 55 57 55 53 55 56 56 57 60 60 59 61 60 59 58 58 63 72 73 73 73 73 73 73 72 73 73 72 72 71 71 71 71 71 70 70 70 70 70 69 69 69 70
61 63 58 55 54 55 55 59 61 54 56 56 57 58 59 60 60 61 59 57 57 59 65 69 73 73 73 73 73 72 73 72 72 72 72 72 71 71 71 71 71 70 70 70 69 69 69 69 69
63 61 54 51 52 56 57 60 61 54 55 56 58 59 60 62 60 59 58 56 57 58 61 68 73 72 73 73 73 72 72 72 72 72 71 72 72 72 71 70 69 69 69 70 69 69 69 70 70
60 58 53 51 50 55 56 62 61 57 57 57 57 59 61 61 59 58 57 55 57 58 61 67 70 71 73 73 72 72 72 72 72 72 72 72 71 71 70 69 69 69 69 69 69 69 69 70 71
61 59 52 52 50 55 57 59 62 59 59 58 59 58 60 61 60 57 56 55 56 58 59 63 67 67 68 71 73 72 72 72 71 72 72 71 69 68 68 70 69 69 68 69 70 70 70 71 71
61 56 51 54 51 54 56 56 59 61 59 58 58 59 61 61 59 56 55 54 57 57 57 59 62 64 65 70 72 72 72 72 73 72 71 71 64 66 66 70 69 69 69 69 69 70 70 71 71
58 52 55 52 54 53 54 56 59 59 56 56 57 60 61 60 58 56 54 54 55 55 56 55 59 61 63 64 69 69 69 68 66 64 69 70 67 67 65 68 70 69 69 69 69 70 70 70 66
54 50 51 51 53 55 55 60 60 56 53 55 56 60 60 59 57 56 54 54 55 55 55 56 59 61 61 65 65 64 67 68 66 66 65 63 63 64 65 66 67 67 69 65 66 67 69 69 66
48 49 52 53 53 54 55 57 55 56 59 56 58 61 60 58 56 55 54 54 54 55 55 57 60 62 63 62 64 65 69 64 62 65 66 65 67 66 68 68 67 67 68 64 68 69 68 67 67
45 47 53 53 53 52 52 49 61 57 56 58 59 61 59 58 55 54 55 54 54 55 55 57 61 63 64 67 66 64 61 60 61 66 66 64 67 66 66 66 69 68 66 60 67 64 64 61 62
40 43 54 54 52 52 50 50 50 53 56 58 59 60 59 58 55 54 55 54 54 56 56 58 61 64 64 66 66 63 62 62 60 61 65 66 69 68 68 65 68 67 68 65 66 66 62 62 60
36 40 46 53 52 51 49 49 47 55 56 58 58 59 58 57 55 54 55 54 55 56 57 59 62 64 65 67 65 64 66 61 64 61 67 66 69 68 70 65 68 68 67 66 63 60 57 56 61
33 36 41 47 51 50 48 44 46 55 56 57 58 58 57 56 56 55 55 55 56 55 57 60 61 63 65 65 66 65 66 64 66 63 65 68 69 70 69 66 65 63 63 66 66 61 61 56 59
21 26 35 43 49 47 47 48 55 53 55 56 57 57 56 56 56 56 55 55 56 56 58 60 61 62 65 66 66 64 65 65 64 65 68 68 69 69 68 65 68 68 64 63 60 62 59 55 57
15 19 26 38 46 46 45 49 60 51 52 55 56 56 56 55 56 56 55 56 56 57 59 61 61 63 66 66 66 64 64 65 67 66 70 70 70 68 69 68 66 68 65 60 64 59 64 58 58
11 18 22 29 43 45 45 49 59 50 51 54 56 55 56 56 56 56 56 56 56 58 59 61 63 66 65 65 64 63 63 64 66 65 67 69 69 69 69 70 68 67 67 67 63 59 61 55 56
15 17 21 25 39 45 46 45 47 49 50 54 55 55 55 56 56 56 56 56 55 58 60 63 64 67 67 65 65 64 63 62 62 62 67 68 67 69 68 69 67 67 65 66 64 64 63 58 58
15 16 24 28 37 43 43 43 43 50 50 52 55 55 54 55 55 56 56 56 56 58 60 64 66 67 68 66 65 65 64 63 62 64 65 68 68 68 69 68 70 67 68 65 67 66 66 62 56
16 15 14 22 30 32 40 38 43 52 48 51 52 54 53 54 55 56 56 56 56 57 61 64 67 68 68 68 63 65 63 60 61 63 63 66 68 68 69 69 69 69 69 68 67 67 67 66 56
18 17 10 9 20 29 31 36 38 42 47 48 51 52 53 53 54 55 56 57 57 57 61 62 68 69 68 68 66 65 65 61 61 60 68 66 70 69 67 70 69 69 68 69 69 68 67 63 63
20 18 16 12 8 14 27 34 35 39 43 45 48 51 52 53 54 54 56 57 58 57 60 62 68 70 70 70 68 67 65 64 59 60 64 63 66 68 69 69 71 69 68 69 69 69 68 69 63
21 19 17 13 9 5 12 27 32 38 41 44 45 49 52 52 53 54 55 55 58 58 59 63 68 70 71 70 68 68 68 68 67 66 62 62 60 61 70 70 71 70 70 69 69 70 69 69 66
21 19 18 15 10 6 4 12 27 33 41 45 50 48 50 52 53 53 54 55 58 60 61 62 67 70 71 70 69 69 69 64 63 64 62 61 59 59 71 70 69 70 70 70 71 69 69 69 68
22 21 19 17 16 12 5 3 9 27 32 42 43 43 48 51 52 54 55 55 57 60 62 63 65 69 71 69 70 70 69 67 61 63 68 64 63 61 62 67 69 68 68 69 70 68 70 70 70
20 22 19 17 17 16 13 10 3 7 23 31 35 39 47 53 51 52 55 56 57 58 60 63 65 68 69 69 71 70 70 70 67 67 69 67 66 67 64 65 66 68 69 69 71 68 68 70 68
18 21 23 23 17 17 16 13 16 11 10 24 31 36 40 46 49 51 55 57 58 58 59 61 63 66 68 69 69 69 69 69 69 70 70 70 69 69 69 68 67 68 68 69 72 71 68 69 69
16 13 13 23 23 18 18 17 17 16 14 19 29 33 36 38 45 49 51 55 57 59 59 60 62 63 66 68 69 69 69 68 68 68 70 71 71 70 71 71 69 69 67 69 71 69 67 68 68

GFSSGP_sfc_30mbdewp_060.txt.gz
Dewpoint
69 66 64 63 57 56 53 56 58 53 52 53 55 56 57 57 58 54 66 65 65 66 71 72 73 72 72 72 73 73 73 73 72 72 72 73 71 72 72 71 71 71 69 70 71 70 71 71 70
62 63 64 62 57 52 52 59 55 53 53 54 56 59 56 56 60 61 63 63 62 66 69 70 73 73 72 72 72 73 72 72 72 72 73 72 71 71 71 71 70 71 71 70 70 70 70 71 71
65 62 62 59 55 52 49 57 56 52 53 55 57 58 57 58 60 61 62 60 59 61 65 72 74 74 74 73 73 73 72 72 73 72 72 72 71 71 71 71 71 70 70 70 69 70 70 71 71
58 60 64 59 53 55 57 58 53 54 55 56 57 56 59 60 59 61 61 58 56 63 68 73 74 73 73 73 73 73 73 73 72 72 72 71 71 71 71 70 70 70 70 70 69 69 69 69 70
61 62 58 56 54 55 56 62 58 56 55 62 58 57 58 60 60 60 57 56 57 65 69 71 74 73 73 73 73 73 72 73 72 72 72 72 71 71 72 71 70 70 70 69 69 69 69 69 70
61 61 56 52 54 55 58 61 59 60 61 63 57 58 59 61 59 57 56 57 62 63 66 70 73 73 73 73 73 73 73 72 72 72 72 72 72 71 70 70 70 70 70 69 69 70 70 69 70
56 58 55 54 54 57 58 61 58 54 59 61 58 58 59 60 59 57 56 58 59 61 66 68 70 73 73 73 72 72 73 73 73 73 73 72 71 70 70 70 70 70 70 69 69 70 70 70 70
60 60 55 54 54 55 58 59 63 61 56 60 60 58 58 59 60 57 56 56 58 61 63 67 68 70 70 72 72 72 73 73 72 72 73 71 70 69 70 71 70 69 69 70 70 70 70 70 70
58 57 54 54 51 56 57 56 63 66 60 59 59 60 60 59 58 55 55 56 59 59 61 63 64 68 71 71 72 72 72 72 73 72 71 70 67 68 69 70 70 69 69 69 70 70 71 71 69
54 56 56 58 55 56 56 55 59 59 56 56 58 60 60 58 56 55 54 56 56 55 57 59 63 66 68 67 72 72 71 71 69 69 70 71 70 67 67 69 70 69 69 69 70 70 70 69 70
51 52 58 55 55 55 54 58 61 56 54 56 59 59 59 57 55 55 54 58 55 54 53 59 64 64 66 68 71 70 70 70 68 69 68 71 69 69 69 70 68 70 70 68 69 70 70 70 69
48 50 53 53 52 51 55 60 56 62 61 57 60 59 58 57 55 54 52 57 55 54 54 59 61 65 66 67 69 66 68 68 66 67 68 68 68 69 66 70 70 69 70 70 66 68 69 67 66
43 46 50 52 53 52 55 59 60 63 64 62 60 59 58 56 55 54 53 54 55 53 56 59 62 68 68 68 67 68 66 68 67 66 67 68 69 69 70 70 69 69 69 68 68 67 70 68 65
40 40 45 52 53 53 52 55 55 62 61 59 59 58 57 56 56 54 54 53 55 53 57 62 63 67 69 68 68 68 67 66 65 65 68 69 70 67 67 67 67 68 66 69 68 67 65 63 66
32 36 41 49 52 55 54 54 53 62 63 58 58 58 57 56 55 54 55 55 55 55 58 61 63 64 68 66 68 68 64 63 62 68 68 67 70 69 70 70 70 70 64 69 64 64 65 64 65
29 33 34 43 52 49 52 48 56 62 60 57 58 57 57 56 54 54 55 54 56 56 60 60 59 63 66 67 68 65 66 66 66 68 68 68 70 71 69 68 67 70 70 60 61 66 61 64 64
24 27 32 37 51 48 46 50 55 60 57 55 56 56 56 56 55 55 55 55 56 59 62 61 63 64 66 69 66 67 68 68 63 67 68 70 70 70 68 64 66 71 65 66 64 65 62 56 62
19 23 25 32 44 46 44 50 56 60 57 54 54 55 56 55 55 55 55 55 56 60 62 62 65 67 67 70 69 69 67 67 70 70 70 71 70 70 71 70 69 71 65 67 67 61 62 65 60
19 15 17 21 40 45 43 51 51 49 53 55 53 54 55 56 55 56 55 55 58 60 61 64 65 69 68 68 67 66 65 66 69 69 70 72 72 70 72 71 69 70 65 65 68 64 62 62 60
24 19 13 19 35 43 49 51 52 47 49 55 52 53 55 55 55 56 55 55 56 60 62 65 66 69 68 69 69 67 66 67 65 70 72 70 72 71 71 70 69 69 66 66 69 66 64 64 61
16 15 14 19 28 39 40 50 51 50 54 60 51 53 54 55 55 56 56 56 56 60 62 64 67 69 68 68 68 69 69 69 67 70 70 70 70 72 71 71 70 70 70 69 68 68 68 65 62
16 15 13 14 22 26 40 40 49 54 56 61 53 51 52 54 56 57 56 56 56 61 63 65 68 70 69 70 66 67 66 64 62 69 69 70 71 70 72 71 71 70 68 69 69 69 68 65 63
18 18 15 12 13 19 28 33 38 54 54 55 52 52 50 54 55 56 57 57 56 61 63 65 68 70 69 69 69 67 67 65 67 66 67 71 72 71 71 71 71 71 71 70 70 68 69 69 67
17 17 19 16 10 7 16 26 28 47 49 51 54 57 51 52 55 57 58 58 57 59 62 65 68 69 70 69 69 69 66 68 64 65 67 70 71 72 71 72 72 72 71 70 71 71 70 70 70
18 17 16 15 12 8 6 11 26 36 49 51 52 57 53 53 54 56 57 58 58 59 62 64 68 68 70 70 68 71 68 68 69 68 67 66 69 69 71 73 72 72 73 71 71 71 71 71 71
17 17 17 15 13 11 11 6 8 22 35 51 54 54 53 53 53 55 57 58 59 59 61 64 68 69 70 71 68 69 70 67 67 69 63 66 64 67 71 73 73 73 72 72 71 72 72 71 71
21 18 17 16 16 15 13 10 10 11 22 40 48 51 57 55 56 54 57 58 60 60 61 64 67 69 70 69 71 68 70 69 65 67 67 66 66 68 72 72 73 72 72 72 72 71 71 71 71
14 19 19 18 15 16 15 16 10 10 15 30 47 48 51 52 57 59 56 57 59 61 62 63 67 69 71 71 71 70 67 70 68 66 68 66 67 65 73 73 72 72 72 72 72 71 71 71 71
15 17 18 19 19 16 15 16 20 20 15 23 42 50 53 53 59 64 62 57 58 60 62 62 64 69 71 71 71 70 70 68 68 68 66 70 68 72 69 71 71 72 71 72 72 71 71 70 71
16 17 15 17 20 22 18 15 20 22 20 17 21 33 51 54 59 57 59 58 57 59 60 63 63 65 70 71 71 71 71 69 68 66 69 70 71 70 72 71 72 70 71 72 72 72 69 71 70

GFSSGP_sfc_30mbdewp_063.txt.gz
Dewpoint
70 69 66 63 57 56 53 55 57 57 53 54 55 56 57 57 55 53 65 67 68 70 73 73 73 73 73 74 73 73 73 72 73 73 73 71 72 72 71 72 70 70 71 70 71 71 71 71 72
68 64 63 62 55 52 52 59 58 54 56 58 58 57 57 58 61 63 64 66 70 71 72 73 73 73 73 73 74 74 73 72 73 73 73 72 71 71 71 71 71 71 71 71 70 71 71 71 72
64 62 62 59 56 53 50 57 59 55 57 57 59 58 58 59 63 64 65 67 69 71 71 72 74 74 73 73 73 73 73 72 73 73 73 72 72 71 72 71 70 71 70 70 70 70 71 71 71
66 61 62 57 54 57 56 58 62 55 58 59 58 57 60 61 62 62 64 66 68 71 73 74 74 74 73 73 73 73 73 73 73 73 72 71 71 71 70 71 71 70 70 69 69 70 70 70 71
66 61 58 56 56 59 61 61 62 59 61 59 58 57 58 60 61 61 59 65 69 71 73 74 74 74 73 73 73 73 73 72 72 73 72 71 71 72 71 70 71 70 70 69 69 69 70 70 69
60 61 55 53 54 59 60 61 61 60 61 60 58 58 59 61 61 60 60 67 69 70 72 73 74 74 73 73 73 73 72 72 73 73 72 72 72 71 70 70 70 70 70 70 70 70 70 69 69
58 58 55 55 55 57 60 60 60 60 59 57 59 57 59 59 60 59 65 66 67 69 71 73 73 73 73 73 73 73 73 72 73 72 72 72 71 71 70 70 70 70 70 70 70 70 70 70 68
60 58 56 55 54 54 61 61 62 60 60 64 60 57 57 59 58 61 62 63 68 69 70 71 72 73 73 73 73 73 73 73 73 73 72 71 70 70 70 72 71 70 70 70 70 70 71 70 69
59 55 54 55 54 54 59 58 62 66 64 61 61 59 59 59 58 57 59 62 65 66 67 70 71 71 72 72 72 73 73 72 73 72 71 70 69 70 70 71 70 70 70 70 70 71 71 71 70
54 55 53 55 58 55 57 57 58 59 59 62 61 60 60 60 57 56 59 60 62 65 66 67 70 71 71 71 72 72 72 73 73 71 70 70 69 69 70 71 71 69 70 70 70 70 70 70 69
50 51 58 57 58 59 61 60 61 60 57 62 59 59 59 59 56 57 58 58 60 63 64 64 68 70 68 71 72 72 72 72 70 69 69 70 70 69 70 71 70 70 70 69 71 70 69 67 69
48 50 58 56 57 59 60 59 58 62 62 65 61 59 58 57 54 56 56 55 56 59 63 65 67 68 68 71 71 71 70 71 69 68 69 70 69 66 67 69 70 69 70 68 68 69 70 70 68
45 48 53 54 54 59 59 58 58 59 62 65 61 59 57 56 54 56 56 56 54 59 63 63 67 68 69 70 69 69 69 70 68 68 68 69 70 67 68 70 69 69 70 70 68 69 68 67 67
41 40 47 52 55 59 58 59 59 58 65 65 60 58 57 55 55 56 57 56 54 60 60 66 66 67 69 68 68 67 67 67 67 68 65 66 69 69 70 68 67 69 68 67 67 69 70 67 66
32 31 32 52 54 56 58 59 56 63 63 63 59 57 57 56 55 54 57 54 55 60 61 65 64 65 69 66 67 68 67 67 67 68 68 68 70 67 70 70 69 69 69 70 67 68 67 66 65
30 28 29 36 53 55 55 53 58 61 62 62 58 57 56 56 55 55 56 55 58 62 62 63 65 68 68 67 70 68 67 68 69 69 69 71 71 69 69 66 69 68 69 66 62 66 64 66 65
30 24 27 31 51 52 54 55 61 60 63 61 57 57 56 56 56 55 55 56 59 61 63 62 63 66 65 67 68 66 66 68 67 68 69 69 71 69 66 65 68 71 67 66 65 65 65 63 63
28 24 23 26 45 50 51 58 61 63 64 61 57 57 56 56 54 55 55 57 62 61 61 63 65 66 66 68 67 66 65 68 71 69 69 72 70 70 69 68 65 68 66 65 68 63 63 63 61
28 27 22 21 32 47 51 58 60 58 54 60 61 57 55 55 54 55 55 57 62 62 61 64 66 66 68 67 66 68 66 67 70 70 71 71 70 72 69 70 70 68 63 66 69 66 65 61 62
25 25 24 23 18 47 51 55 57 55 58 61 60 56 56 55 55 54 55 56 61 62 61 64 66 67 68 68 68 68 68 67 68 70 69 72 70 71 70 68 70 69 65 67 66 63 61 66 61
23 24 22 19 17 47 51 50 51 53 56 60 63 59 57 55 55 54 55 56 60 62 63 65 68 68 69 67 68 71 69 67 66 69 69 72 72 71 72 70 70 67 70 69 67 66 67 65 64
20 20 18 13 13 15 46 43 50 51 55 58 59 60 57 55 55 55 55 55 60 61 63 67 69 68 69 68 67 67 66 65 66 69 70 71 72 71 70 71 71 70 68 69 68 69 67 65 62
19 21 20 19 17 12 12 19 46 52 52 56 54 59 58 57 55 55 55 55 60 62 62 67 69 68 67 69 67 66 67 68 67 68 69 71 72 71 71 71 72 70 69 69 69 68 68 69 69
19 18 18 18 19 16 12 12 31 49 49 53 55 55 55 56 56 56 55 57 57 62 62 65 70 68 67 68 70 66 67 66 67 67 69 70 72 71 73 70 71 70 70 70 70 71 69 68 70
18 17 16 16 16 16 15 10 9 49 53 50 51 53 59 54 56 57 56 56 57 62 63 64 68 69 67 67 68 70 67 66 68 68 67 69 70 71 72 71 71 72 70 71 71 71 72 70 69
20 17 16 15 16 17 17 13 12 45 55 53 55 57 55 55 54 57 57 56 57 62 63 65 66 68 68 67 67 69 71 66 67 69 69 69 69 69 71 72 72 71 73 70 71 70 71 70 71
20 21 18 17 17 16 18 19 16 15 49 55 53 53 51 59 59 59 58 57 57 60 62 64 66 66 69 68 66 68 70 68 67 67 69 69 69 69 70 73 71 71 72 72 71 70 71 71 71
12 17 17 18 14 14 17 18 20 21 15 49 53 53 57 60 60 62 63 59 59 58 62 63 67 67 68 69 68 66 68 71 68 67 67 69 66 69 70 73 72 72 72 71 72 70 71 70 69
15 14 16 16 18 17 15 17 21 21 27 47 51 55 58 57 59 60 63 62 61 60 60 63 67 67 68 68 70 67 65 69 70 68 65 69 67 70 72 72 73 73 72 73 72 70 71 70 69
13 12 16 17 17 20 22 23 25 26 27 40 49 52 58 57 57 62 62 59 59 60 60 61 64 68 68 69 68 70 67 66 69 68 68 65 68 69 72 72 72 72 72 72 72 71 70 70 70

GFSSGP_sfc_30mbdewp_066.txt.gz
Dewpoint
70 69 67 63 56 56 53 55 60 59 55 55 55 54 56 58 57 51 67 69 71 71 72 73 73 72 73 73 73 73 72 72 73 73 72 72 72 72 72 70 70 71 70 71 71 71 71 72 72
69 67 64 63 55 52 52 57 57 58 58 56 58 58 58 58 62 64 66 69 70 72 73 73 73 73 73 73 73 73 72 72 73 72 73 72 72 72 72 72 72 71 71 71 72 71 71 72 71
67 64 62 59 55 52 51 57 58 58 57 58 58 59 59 60 63 65 67 70 71 72 72 73 74 74 73 74 73 73 72 73 72 72 72 72 71 72 70 71 71 71 71 70 71 71 71 72 71
65 63 61 57 54 55 55 58 60 60 60 60 59 58 60 63 64 65 70 71 71 72 72 74 73 72 72 73 73 73 73 73 73 72 72 72 71 72 70 70 70 69 70 71 70 70 71 71 71
66 62 57 56 56 56 59 61 63 59 59 59 58 58 60 62 65 68 69 70 71 72 73 74 74 74 73 73 73 73 72 73 73 72 72 71 71 70 71 71 70 70 69 69 69 69 70 71 71
61 61 56 53 55 59 61 62 62 60 60 58 58 58 59 62 65 66 70 71 71 72 74 74 74 74 73 73 73 73 73 72 73 72 71 72 72 71 71 70 70 70 70 70 69 69 70 70 70
59 58 54 55 56 58 61 64 60 59 59 58 59 56 59 60 62 68 69 70 72 73 73 73 73 73 73 73 73 73 73 73 73 72 73 71 71 70 70 71 70 70 70 69 69 69 69 69 70
61 59 55 55 54 55 61 61 61 58 58 59 58 55 57 60 66 68 68 70 71 72 72 72 73 73 73 73 73 73 73 73 72 72 71 71 71 70 71 71 71 70 70 70 70 70 70 70 69
61 56 52 53 54 57 61 59 64 66 62 60 62 58 59 62 65 65 67 68 69 71 72 72 72 72 73 73 73 73 73 72 72 71 70 71 70 70 70 71 71 70 70 70 70 71 70 70 69
59 55 53 55 58 57 60 59 62 62 61 59 60 59 59 62 62 64 66 66 67 68 70 71 71 72 72 72 73 73 72 72 72 71 71 70 70 70 70 70 70 70 70 70 70 71 71 70 69
57 54 55 56 59 59 59 60 61 59 60 63 61 58 59 60 61 63 64 65 65 66 69 70 71 71 71 72 72 72 72 72 71 70 70 70 70 71 71 71 71 70 71 70 70 68 68 67 69
52 51 51 56 59 60 57 61 59 62 64 66 64 58 58 56 60 60 62 63 65 65 67 69 70 70 70 72 72 72 71 72 70 69 70 69 68 69 69 70 70 69 70 68 69 68 68 69 69
48 48 50 55 59 60 61 60 59 60 64 65 62 58 58 57 59 59 60 62 65 65 65 68 69 68 69 71 71 71 71 71 69 69 70 69 67 67 69 70 69 69 69 68 66 67 68 68 66
45 43 41 57 60 60 59 59 59 58 63 63 62 58 58 57 58 58 57 59 63 63 64 67 68 68 70 70 70 69 69 70 68 68 69 68 68 68 69 68 68 68 68 69 67 67 68 68 67
41 33 32 56 59 59 59 57 57 62 64 63 62 58 58 56 57 56 55 56 61 63 65 66 67 69 69 69 68 67 67 68 68 67 65 68 70 69 70 67 68 67 68 69 67 67 69 68 66
33 31 27 52 56 59 55 53 60 62 62 62 60 58 57 56 56 57 57 58 62 63 65 65 66 68 68 67 67 68 67 67 67 68 68 70 69 68 70 68 68 69 69 69 66 67 66 65 65
31 29 26 31 54 57 55 54 59 63 62 61 60 57 57 56 56 57 56 59 61 64 65 64 66 67 66 70 67 67 68 68 68 69 69 71 69 70 68 67 68 70 68 66 63 66 64 64 64
30 29 27 25 46 55 54 56 59 61 62 60 59 57 56 55 56 56 56 60 61 63 63 65 66 66 66 68 67 66 68 68 68 68 69 71 71 68 68 66 67 66 66 66 67 62 64 63 64
29 27 26 27 28 53 54 58 58 62 59 60 60 58 56 55 56 55 56 60 61 62 62 64 66 65 66 67 67 65 66 68 69 69 69 70 70 70 70 68 69 68 65 67 65 64 65 62 63
29 28 27 26 34 43 55 57 58 61 57 59 60 59 58 56 56 55 57 60 61 61 63 63 65 65 67 66 67 67 67 68 70 69 71 70 71 71 69 70 69 67 64 68 65 62 64 65 62
31 29 28 25 44 56 55 55 58 60 57 60 61 60 60 57 56 54 58 60 60 60 63 64 65 65 68 67 68 69 68 67 68 69 69 72 70 71 70 70 70 68 66 67 65 65 65 62 63
29 26 23 20 17 29 50 46 54 55 55 60 62 61 60 58 55 55 56 60 60 59 63 65 66 66 67 67 67 68 66 64 65 68 69 70 71 71 71 70 69 68 68 68 68 69 66 63 61
29 25 20 19 18 17 37 32 41 53 54 59 61 60 60 61 57 54 55 59 60 60 62 67 67 66 67 67 66 67 67 66 65 68 68 70 71 71 71 71 70 69 68 69 68 68 69 68 67
23 19 18 20 19 16 17 13 38 50 51 58 61 59 60 59 58 55 56 58 60 62 62 67 67 66 67 67 66 65 66 67 66 66 68 69 71 71 71 71 71 70 68 69 69 70 69 68 69
20 17 15 14 14 14 18 15 12 50 51 55 59 59 58 57 58 55 55 58 59 61 63 67 67 66 66 67 68 66 66 67 67 67 68 69 70 70 71 70 71 70 70 70 70 70 71 69 69
20 17 15 13 13 17 19 15 13 22 49 53 58 57 55 57 56 56 54 56 60 60 61 66 67 66 66 66 67 69 67 66 67 68 68 68 69 70 71 71 71 71 70 71 70 70 70 70 70
13 18 20 17 19 15 17 19 21 23 38 51 52 55 55 57 55 56 55 56 60 60 61 62 67 66 66 66 65 66 69 68 67 69 68 69 69 69 71 71 71 71 71 70 71 70 70 71 70
13 16 15 18 14 13 16 18 17 30 38 50 50 55 56 57 59 57 57 56 58 61 61 62 65 66 67 66 65 65 67 69 68 67 68 69 69 69 70 72 71 71 71 71 70 70 70 71 70
13 12 13 16 17 15 15 16 28 36 36 41 51 54 54 60 60 60 60 60 59 61 62 63 63 65 67 67 66 65 65 67 70 67 66 67 69 69 69 71 71 71 71 71 71 70 69 70 69
15 15 14 13 14 20 20 19 34 36 37 44 52 53 54 59 60 60 60 61 61 59 61 63 64 64 65 67 67 66 64 65 67 69 67 66 67 69 70 71 72 71 71 71 71 70 70 70 70

GFSSGP_sfc_30mbdewp_069.txt.gz
Dewpoint
70 70 68 63 55 56 52 54 59 57 56 55 53 54 55 58 56 50 66 69 68 69 72 73 73 72 73 73 73 72 71 73 72 72 72 71 72 71 71 70 70 71 72 71 71 72 72 72 72
70 67 65 63 53 52 52 54 57 59 60 55 56 57 58 58 62 65 67 69 69 71 73 73 74 73 73 73 73 72 72 73 72 72 72 72 72 71 71 71 71 70 71 71 71 71 72 72 71
68 65 62 59 55 52 52 56 58 59 58 57 59 60 60 61 64 64 69 69 70 72 73 73 73 73 73 73 72 72 72 73 72 73 71 72 71 71 71 71 71 71 71 71 71 71 71 71 71
64 63 62 56 54 56 55 57 60 60 60 61 60 59 62 64 63 67 69 70 72 72 72 73 73 72 73 73 73 72 72 72 72 72 71 71 71 70 71 70 70 71 70 71 70 71 71 71 70
66 62 57 56 56 57 58 58 60 60 60 59 59 59 60 64 68 69 70 71 71 72 73 73 73 72 73 73 73 72 72 72 72 71 71 71 71 71 71 70 69 69 70 69 70 71 71 70 70
61 61 55 53 55 57 60 61 61 61 60 59 59 59 61 67 68 69 70 70 71 72 73 74 73 72 72 72 73 72 72 72 72 72 72 72 70 71 70 70 70 70 69 69 70 70 71 71 70
59 59 54 55 55 57 61 65 60 59 58 58 59 58 64 66 68 70 70 71 72 73 73 73 73 73 72 73 73 72 72 72 72 71 72 72 71 70 71 70 70 69 69 69 69 70 70 70 70
62 59 55 54 54 56 61 62 61 59 58 58 58 58 61 65 69 70 70 71 72 73 73 73 73 73 73 73 72 72 73 73 72 72 71 71 70 70 71 71 70 69 69 69 70 70 70 69 70
62 57 52 52 54 57 61 60 64 64 59 55 62 60 62 67 68 68 69 69 71 72 72 72 72 73 73 73 72 72 72 72 71 71 72 72 70 71 71 71 70 70 70 69 69 69 69 70 69
60 57 53 55 58 59 60 60 62 61 59 59 58 60 65 67 67 66 67 67 68 70 72 72 72 72 72 73 73 73 72 72 72 71 70 70 70 70 71 71 70 70 70 70 70 69 70 69 69
60 56 55 56 59 60 59 60 63 60 60 60 57 61 64 65 65 65 65 67 68 70 71 71 71 72 72 72 73 72 72 72 72 71 70 70 70 71 71 71 70 70 71 70 69 70 69 68 69
54 53 57 55 60 60 59 61 60 60 62 63 61 62 63 63 64 64 64 65 67 68 69 71 71 71 71 72 72 72 71 71 70 69 69 70 69 70 70 70 69 69 69 68 69 68 69 69 68
53 51 49 49 57 60 60 59 60 62 66 66 62 61 61 62 63 64 64 64 65 67 68 70 71 70 71 72 71 71 71 71 70 68 70 69 68 68 69 69 70 68 69 68 66 66 67 67 67
47 47 46 44 58 60 58 59 58 61 65 65 63 59 59 60 61 62 63 64 65 65 67 69 70 69 70 71 70 70 70 71 69 69 70 69 67 68 69 69 68 68 68 69 67 66 66 68 68
45 43 36 57 60 59 59 57 57 60 62 64 62 58 57 59 59 60 61 64 65 65 65 68 68 68 69 70 70 70 69 70 68 68 68 69 68 68 68 68 67 67 68 69 68 67 68 68 66
32 31 28 57 59 59 57 52 58 64 61 60 60 57 58 58 58 59 59 63 64 64 65 67 68 68 69 69 69 69 68 69 68 68 66 69 69 69 69 67 67 68 69 68 68 66 67 66 64
31 30 27 52 58 58 57 54 59 63 62 61 60 58 58 57 58 57 57 61 62 64 65 66 67 68 68 68 68 67 67 68 67 68 68 70 69 69 69 68 68 69 69 68 65 66 65 64 64
30 29 27 27 54 56 56 55 59 62 61 61 60 58 57 56 57 57 56 59 62 64 65 65 67 67 67 69 67 67 68 68 68 68 68 71 69 69 67 67 68 69 67 65 65 64 64 64 64
30 28 27 28 33 51 53 56 56 61 61 61 60 58 56 56 56 57 57 61 62 64 64 65 66 66 67 67 65 66 66 67 68 68 69 71 70 68 67 67 68 67 66 66 66 63 63 63 63
30 28 28 29 36 41 46 56 57 61 61 61 60 57 56 56 56 56 57 60 62 63 64 65 66 65 67 67 67 66 67 68 68 68 69 71 70 70 69 69 70 65 65 66 64 62 64 63 63
30 29 30 29 35 55 55 55 56 58 59 59 60 61 58 56 55 56 58 60 61 62 63 65 65 65 67 66 68 68 67 68 69 68 69 71 70 71 69 69 69 68 66 65 63 64 63 60 62
31 32 31 27 18 17 51 45 55 56 58 58 59 61 60 58 56 55 57 59 60 61 63 65 65 65 67 66 66 66 65 65 67 68 69 70 71 71 70 70 69 68 67 67 67 68 65 62 59
31 32 28 24 18 35 39 32 39 53 54 56 58 60 61 60 58 55 57 59 60 60 62 63 65 65 66 67 66 66 65 65 65 68 68 69 71 71 71 70 69 68 68 68 68 68 67 67 64
27 24 20 20 18 15 24 24 30 49 50 54 57 61 61 60 59 56 57 58 59 60 62 64 65 64 66 67 66 66 66 66 65 65 67 68 70 71 70 71 70 69 68 68 68 68 68 68 68
21 19 16 14 15 14 17 15 14 40 52 52 55 60 61 59 59 57 56 58 58 59 61 65 65 64 65 66 66 65 66 66 67 65 66 68 69 70 70 70 71 69 69 69 69 69 69 68 68
18 19 15 12 13 16 19 15 19 26 37 52 55 57 60 59 59 58 55 58 59 59 60 64 65 64 65 66 66 66 65 66 67 67 67 68 68 70 71 70 70 71 69 69 70 70 70 70 68
15 18 20 18 18 15 16 18 21 36 43 50 53 57 60 59 58 58 55 56 59 60 60 63 65 64 65 65 66 67 66 65 65 67 68 68 69 70 70 71 70 70 71 70 70 70 69 70 69
14 14 15 18 14 13 16 17 25 35 39 51 51 56 58 59 58 58 56 56 58 59 61 63 65 64 65 65 65 66 67 68 66 67 68 68 69 69 70 71 71 70 71 71 70 70 70 70 70
15 14 13 17 18 15 14 23 32 36 40 45 51 52 56 56 57 59 58 56 58 59 60 61 64 64 65 65 65 65 65 68 69 67 67 68 69 69 69 70 71 70 70 71 70 69 69 69 70
17 16 14 10 11 18 19 23 26 30 41 52 56 58 56 56 58 60 60 58 58 60 60 60 62 64 65 65 64 64 64 65 67 68 67 67 67 69 69 69 71 71 70 70 70 70 70 69 68

GFSSGP_sfc_30mbdewp_072.txt.gz
Dewpoint
70 69 67 63 54 55 51 54 58 56 56 56 54 53 53 57 56 50 65 67 66 69 72 73 72 73 73 72 72 71 73 72 72 72 71 71 71 73 71 70 72 72 71 72 72 72 72 71 71
70 68 65 63 53 51 52 55 57 58 59 53 54 58 59 58 63 63 66 66 66 71 72 73 73 73 73 73 72 71 73 72 72 72 72 72 71 70 72 71 70 71 71 71 70 71 71 72 72
69 66 62 59 55 51 50 56 58 60 56 54 59 61 61 60 63 64 67 66 70 72 73 72 73 73 73 73 72 72 73 72 73 72 72 72 72 71 71 71 71 70 71 71 71 71 71 71 71
64 64 62 56 54 56 55 58 61 60 60 62 61 59 62 64 62 67 68 68 71 72 72 73 73 73 73 72 72 72 73 72 72 71 71 71 70 71 70 71 71 70 71 71 71 71 71 71 71
66 62 57 56 55 58 57 59 60 60 60 61 60 59 61 66 68 68 69 70 71 72 72 73 73 73 73 73 72 72 72 72 72 72 72 71 70 71 70 70 70 71 70 70 70 71 71 70 71
61 61 54 53 55 58 60 59 60 61 62 61 59 60 63 68 67 68 69 70 71 72 72 72 73 73 73 73 72 72 72 72 72 72 71 70 71 71 70 69 69 68 69 70 71 70 71 71 71
59 58 54 55 55 55 60 64 61 60 60 60 61 59 64 66 68 69 70 71 72 73 73 73 72 72 72 72 72 72 72 72 72 72 72 71 71 71 70 70 69 68 68 70 70 71 71 71 71
62 59 56 54 54 54 60 62 62 60 58 60 61 59 61 66 69 70 71 72 72 73 73 73 73 72 72 73 72 72 72 72 72 72 71 71 70 70 71 70 70 69 69 70 70 71 70 71 71
63 57 53 52 54 58 61 60 65 65 57 59 61 61 65 69 69 69 69 70 70 72 72 72 72 72 73 72 72 72 73 71 72 71 71 71 71 71 71 71 70 69 69 70 70 70 70 70 70
60 57 53 55 58 58 62 61 61 59 57 59 62 65 68 68 67 65 65 65 66 69 71 72 72 72 72 72 71 71 72 72 72 71 70 70 70 70 71 71 70 70 69 69 69 69 71 70 69
60 56 56 56 59 61 60 61 62 60 60 59 61 64 66 66 65 65 64 64 66 68 71 71 72 72 72 73 72 72 72 72 71 70 70 70 70 71 71 71 70 71 71 71 70 70 69 68 69
56 56 56 57 61 61 59 62 60 60 62 61 63 65 66 65 65 65 65 66 67 67 70 71 71 72 72 73 72 72 71 71 70 70 69 70 70 70 70 70 70 70 69 69 68 68 69 69 68
55 54 52 51 59 60 61 59 61 62 62 61 63 64 64 65 64 65 65 67 68 68 70 71 71 71 71 72 72 71 71 70 69 69 69 70 69 68 69 69 69 68 70 68 66 67 67 67 67
49 49 46 47 54 60 58 60 60 64 64 63 62 62 63 64 64 63 63 65 66 68 69 70 70 70 71 71 71 70 70 70 70 69 70 69 68 67 68 69 69 69 68 69 67 67 67 68 67
45 38 39 59 59 58 59 58 57 63 66 64 63 62 62 62 63 63 63 63 65 67 68 69 70 69 70 71 70 70 70 70 70 69 69 70 67 67 68 68 68 67 68 69 68 67 68 67 66
32 31 28 57 59 59 57 51 59 63 61 63 62 61 60 61 62 63 63 63 64 65 67 69 69 69 69 70 69 69 69 69 69 68 68 69 69 68 69 68 67 68 68 68 68 66 67 66 65
32 30 26 49 58 58 57 53 60 63 61 62 61 59 58 60 60 61 62 64 64 64 66 68 68 68 69 69 69 69 68 69 68 68 67 68 70 69 69 67 68 69 69 68 66 67 66 65 64
32 29 27 28 55 57 56 55 59 63 62 60 59 57 57 58 59 60 61 63 64 64 66 67 68 68 68 68 68 68 68 68 68 68 67 69 69 68 69 68 68 69 67 66 64 65 65 65 64
30 29 28 28 40 53 52 54 58 61 62 61 58 57 57 57 58 58 58 62 63 64 65 66 67 67 68 67 67 66 67 67 67 68 68 70 70 70 67 67 68 67 66 66 66 64 64 63 64
30 29 28 29 32 38 44 55 58 60 61 61 61 59 57 56 57 57 57 59 62 64 64 65 66 67 67 68 66 66 67 68 68 68 69 70 71 69 68 67 68 66 66 67 65 63 64 63 63
30 29 28 29 29 56 54 52 56 58 61 59 61 60 58 57 56 56 56 58 61 63 64 64 66 66 67 67 67 67 68 68 68 68 68 70 71 70 70 69 69 66 66 65 63 63 63 61 63
30 32 31 31 24 21 52 42 52 56 58 58 59 60 60 57 56 56 57 59 61 63 64 64 66 66 67 67 66 65 65 65 66 67 68 69 71 71 71 69 70 68 66 66 64 67 65 61 60
31 32 31 29 22 37 41 35 39 56 54 56 58 58 60 61 57 56 57 59 61 62 63 64 65 65 66 67 67 65 65 65 66 68 68 69 71 71 71 70 70 68 67 68 68 68 66 66 62
29 24 20 20 18 15 28 26 21 45 47 52 56 58 59 61 60 57 57 59 60 62 63 64 65 65 66 66 66 66 65 65 65 66 67 68 69 71 71 71 70 69 68 68 68 68 68 68 68
25 20 17 15 15 15 17 23 24 29 34 42 50 56 59 60 61 59 56 58 60 61 62 63 65 64 65 66 66 66 65 65 65 65 66 67 68 69 70 70 71 70 69 69 69 68 68 68 68
20 20 17 12 14 15 19 16 29 35 41 50 51 57 59 60 60 60 56 58 59 60 61 62 63 64 64 66 66 66 66 66 66 66 66 66 67 69 70 70 70 71 70 69 69 69 70 70 68
18 18 20 18 18 15 17 20 22 34 40 46 52 56 58 61 60 59 56 58 59 60 60 62 63 63 64 65 66 66 66 66 66 67 67 67 68 69 70 70 70 70 71 70 70 70 69 70 70
15 15 18 18 14 13 16 26 27 30 37 50 55 57 57 60 60 60 59 57 59 59 60 62 63 63 64 65 65 66 66 66 66 67 67 68 68 69 70 70 71 70 70 71 70 70 70 70 70
14 13 15 18 18 14 15 26 31 38 47 52 54 57 59 57 60 59 59 56 58 59 59 60 63 64 64 64 65 65 66 66 66 66 67 68 68 69 69 70 70 70 70 71 70 70 70 70 70
17 16 14 15 13 18 21 21 46 51 52 52 54 56 59 61 59 60 60 59 58 59 60 61 62 64 64 64 65 65 65 67 67 66 66 67 68 69 69 70 70 70 70 71 71 70 70 69 69

GFSSGP_sfc_30mbdewp_075.txt.gz
Dewpoint
69 68 66 63 54 55 51 54 59 58 55 55 53 52 52 52 54 51 63 64 64 68 69 71 73 72 72 71 71 73 72 73 72 71 70 71 73 71 71 72 72 72 72 72 72 72 72 72 72
69 66 65 63 53 51 52 56 56 58 56 54 55 53 57 57 62 62 62 63 65 67 68 70 73 74 72 72 71 73 72 73 72 72 72 71 70 71 70 71 72 71 71 71 72 71 72 72 71
66 66 63 60 55 51 50 58 59 59 54 55 58 59 60 60 62 61 63 64 66 68 69 71 73 73 73 73 72 73 72 72 72 71 71 71 72 71 71 71 71 71 71 72 72 72 71 71 71
64 63 62 56 53 57 55 59 60 55 58 61 59 59 61 64 60 64 63 65 66 68 69 72 73 73 73 73 72 73 72 72 72 72 71 71 71 71 71 71 71 71 71 72 72 71 71 70 71
65 62 57 55 55 58 58 59 60 56 61 60 60 58 60 63 67 63 64 65 66 68 69 71 73 73 73 72 72 73 72 72 72 72 71 71 71 70 70 71 71 71 70 71 71 71 71 71 72
61 61 54 52 55 58 59 60 59 62 62 61 59 59 62 66 64 63 64 65 66 68 69 70 73 73 73 73 72 72 72 72 72 71 71 71 71 70 69 69 69 69 70 70 70 70 70 71 72
59 58 54 54 54 57 60 61 60 61 61 60 60 59 63 64 64 64 64 67 67 69 69 70 71 73 73 73 72 72 72 72 72 72 72 71 71 70 70 70 67 69 70 71 71 71 71 72 72
61 60 56 55 53 52 61 62 63 60 60 62 61 58 59 64 65 65 66 67 68 68 69 68 69 71 70 71 72 72 72 72 72 71 71 71 70 69 70 70 69 69 70 71 71 71 72 71 72
63 58 54 53 54 57 61 60 64 65 59 58 60 60 62 65 66 64 67 68 68 68 69 70 70 71 72 71 72 72 72 72 71 71 73 72 70 69 68 70 69 69 70 71 70 70 71 71 71
60 57 54 56 58 59 61 62 61 59 58 61 62 63 66 66 64 64 65 65 66 68 69 69 70 71 71 70 71 72 70 71 72 71 71 70 70 69 68 70 69 69 70 70 70 71 71 68 68
60 56 56 56 59 60 61 61 62 57 57 60 62 63 64 65 62 64 64 65 65 68 68 69 71 71 70 71 70 69 70 70 71 71 71 71 70 70 69 69 68 69 70 68 68 68 67 68 68
57 57 56 57 60 60 60 61 60 60 60 61 63 64 64 64 63 63 63 63 64 67 69 70 70 71 71 71 68 70 70 70 69 70 71 70 69 70 71 69 70 69 68 69 69 67 69 69 68
55 55 52 53 59 59 61 59 60 62 62 63 64 64 63 64 63 64 63 63 65 66 68 69 71 71 72 72 70 70 69 68 69 70 71 70 69 69 69 69 69 69 69 68 67 68 68 69 68
49 49 44 47 51 60 58 60 59 62 62 63 63 63 64 63 63 63 63 63 65 66 68 68 69 71 72 70 71 70 70 69 69 70 70 71 69 69 68 69 69 69 69 68 68 69 68 68 67
46 39 48 57 55 58 58 58 57 62 61 61 61 61 62 61 62 62 62 63 64 66 68 68 69 70 71 71 70 69 69 69 69 69 71 71 70 70 71 69 69 69 70 70 70 69 69 66 67
34 32 30 57 57 59 58 51 58 63 61 61 60 60 61 62 62 62 61 62 64 65 67 68 68 69 70 70 69 69 69 70 70 70 70 71 71 70 71 69 68 69 69 69 68 67 67 66 65
33 34 29 53 58 58 57 52 60 63 62 62 61 60 60 60 62 63 62 62 63 64 66 67 68 68 69 70 68 69 70 70 70 70 69 71 71 71 71 70 68 70 69 68 66 68 67 65 65
35 29 29 42 56 57 56 54 60 61 61 62 61 60 60 60 61 62 62 62 62 63 66 67 68 68 69 69 69 69 69 70 70 70 69 70 70 71 71 69 70 70 68 68 66 68 67 66 65
31 30 28 29 51 49 49 53 58 61 61 60 61 60 59 59 61 62 61 62 61 62 65 67 68 69 69 68 67 68 67 68 69 70 70 70 72 70 71 70 70 70 69 68 68 67 67 65 67
31 31 30 30 38 39 43 52 57 60 61 60 60 59 59 58 60 61 61 61 61 62 64 67 68 69 69 67 68 68 68 68 68 70 70 71 72 72 70 69 69 69 68 69 69 67 65 65 65
32 32 30 29 30 55 52 53 56 59 61 61 60 58 58 58 58 59 60 61 61 62 64 66 68 69 69 68 69 69 70 70 68 68 69 69 72 72 72 70 71 70 69 67 68 67 67 63 65
33 32 30 30 28 23 52 36 52 56 58 59 61 59 58 58 58 58 59 59 61 62 64 66 67 68 69 70 68 68 66 65 66 68 69 69 71 72 72 71 71 71 68 68 67 68 67 66 62
33 33 32 31 27 33 43 35 43 55 55 57 59 61 60 58 58 58 58 58 59 62 64 65 67 68 69 70 69 68 67 66 67 68 69 69 72 72 72 72 72 71 70 70 70 70 69 66 63
33 26 24 22 21 20 36 28 28 39 41 43 55 60 61 59 58 58 58 59 59 61 63 65 66 68 69 69 69 69 67 67 66 67 68 68 69 71 72 72 72 71 70 70 70 71 71 70 69
28 25 20 18 17 20 22 25 34 40 46 51 54 52 59 61 59 58 58 58 60 61 62 63 66 67 68 68 69 69 68 68 68 69 67 67 68 69 71 72 72 72 72 71 71 71 71 70 69
27 25 20 17 17 18 22 21 32 38 48 56 57 57 54 59 60 59 58 58 60 61 63 63 65 66 67 67 68 69 69 67 67 68 67 68 67 68 71 72 72 72 72 71 71 70 69 70 70
21 22 20 18 19 17 19 24 29 43 51 54 56 58 59 58 57 60 60 59 60 61 62 64 65 66 66 66 68 68 69 68 66 68 69 68 69 68 71 71 72 72 72 72 72 69 71 72 71
20 19 19 20 17 16 22 28 28 47 50 52 54 56 58 60 61 59 60 59 60 61 62 63 64 65 66 66 67 67 67 68 68 69 69 69 69 70 69 71 71 71 72 72 72 70 71 71 70
16 16 20 21 20 16 18 25 46 49 50 51 54 56 58 60 60 61 60 59 60 60 61 62 63 64 65 65 66 66 66 67 68 68 69 70 70 71 71 71 71 71 71 72 72 72 71 71 71
19 17 16 19 20 21 21 26 46 49 49 50 52 54 57 59 61 63 63 60 60 61 60 61 62 63 64 65 66 67 67 67 66 67 68 68 70 70 71 72 72 71 71 72 72 71 70 70 70

GFSSGP_sfc_30mbdewp_078.txt.gz
Dewpoint
68 64 65 62 54 52 52 54 58 57 54 54 52 51 50 50 52 52 58 59 64 64 67 71 73 72 71 72 73 72 73 71 70 70 72 73 70 72 72 72 72 72 72 72 71 72 72 72 72
62 62 64 62 52 50 52 55 56 57 54 53 52 51 52 57 58 58 58 61 63 63 65 68 73 73 71 72 73 72 73 72 73 72 71 71 71 70 72 72 71 72 72 72 72 72 71 71 72
62 65 62 59 55 52 50 58 58 56 53 53 52 57 57 59 58 56 59 61 63 63 64 71 74 73 72 72 74 72 73 72 71 71 72 71 71 70 71 71 71 72 71 72 72 72 70 71 72
63 63 61 57 53 57 55 58 56 53 55 57 56 58 61 62 57 59 60 61 62 63 64 72 73 73 72 72 73 72 73 72 72 71 72 71 71 71 71 71 71 72 72 72 71 71 70 71 71
63 60 56 54 56 57 57 59 54 55 57 56 55 57 58 60 61 60 61 61 62 62 66 69 73 73 73 72 73 72 72 72 71 71 71 71 71 71 71 70 71 71 71 71 71 70 70 72 72
60 60 54 52 55 57 57 59 59 57 59 58 57 59 60 63 60 60 60 61 62 63 65 69 73 73 73 72 73 72 72 72 71 71 71 71 70 69 69 70 70 70 71 71 70 70 71 72 72
59 58 54 53 55 57 58 60 60 59 59 58 59 58 60 59 59 60 61 62 63 64 65 67 69 72 73 72 72 72 72 72 71 71 71 70 71 70 70 68 70 71 71 71 71 71 72 72 72
60 59 54 54 52 56 60 61 62 59 60 62 60 56 57 58 60 60 61 62 63 64 64 65 66 69 68 69 72 72 72 71 71 71 70 70 70 69 69 70 70 70 71 71 71 72 71 72 71
61 56 52 54 53 56 61 59 64 64 61 60 60 57 58 60 60 60 61 62 64 64 64 63 63 66 69 69 71 72 72 71 71 71 70 70 64 65 66 70 70 71 71 71 71 71 70 71 72
59 55 53 55 57 57 60 60 61 60 60 58 59 58 59 60 60 59 60 61 62 62 62 63 65 67 68 65 68 69 68 69 67 67 67 64 65 66 65 69 70 71 70 70 71 71 68 68 64
58 53 53 54 58 59 60 59 59 57 57 60 60 59 59 59 59 60 60 61 60 61 61 64 68 67 66 68 65 64 65 67 68 69 66 65 64 65 63 66 66 67 69 65 68 67 64 66 64
56 54 52 53 57 60 60 59 60 57 59 60 61 59 59 58 58 60 59 60 60 61 62 64 67 67 65 64 64 64 64 64 64 67 68 67 63 64 64 64 66 65 64 66 65 65 68 67 67
55 52 49 48 59 58 60 59 58 61 61 62 62 59 58 57 58 59 58 59 59 61 63 64 67 68 67 66 65 64 64 62 64 65 67 65 64 66 65 67 65 66 66 65 66 66 67 67 65
51 50 44 43 51 55 56 58 58 61 62 62 60 59 59 57 58 59 58 58 60 61 63 65 66 68 67 67 68 66 65 66 64 65 66 68 64 66 66 67 66 66 66 66 66 67 66 64 65
49 43 44 48 45 52 56 57 56 61 61 61 59 59 59 58 58 58 58 57 60 61 63 65 66 67 68 68 69 66 66 65 65 66 70 69 67 69 68 66 66 66 68 68 67 66 65 63 63
45 39 35 50 50 54 56 52 58 61 60 59 57 58 58 57 55 57 57 57 59 61 64 65 64 64 67 68 69 66 66 66 66 67 67 70 70 70 69 66 65 66 66 66 65 64 62 61 61
42 39 33 48 53 55 54 53 60 60 59 56 54 54 52 53 56 58 57 57 58 61 64 65 65 64 65 68 67 67 68 66 67 67 67 70 70 70 69 67 66 68 66 64 63 63 62 61 60
40 36 32 44 53 53 51 52 59 60 61 58 58 57 52 55 57 60 60 58 57 60 63 65 66 65 65 67 67 66 66 66 67 66 67 69 69 70 69 67 68 68 65 63 64 65 64 62 61
39 36 34 40 51 49 45 45 57 61 61 61 60 59 56 54 58 60 61 61 58 59 62 64 65 66 67 66 64 63 63 65 65 66 69 70 69 70 70 67 69 68 66 66 66 65 65 59 62
36 33 30 31 39 37 32 39 51 60 58 60 60 60 59 55 57 59 60 61 57 57 61 64 66 67 68 65 64 64 64 64 65 67 69 69 69 71 69 68 67 68 65 68 67 66 60 58 61
35 36 31 30 31 42 42 48 52 55 60 59 59 59 59 57 57 60 60 60 58 56 60 64 66 67 67 65 67 69 68 69 67 67 67 68 70 70 70 69 67 69 68 63 68 66 65 57 62
31 36 32 29 27 32 40 40 50 53 58 60 59 58 58 57 58 59 60 60 59 58 59 63 67 67 67 69 67 67 64 61 62 64 65 67 70 69 70 70 70 70 66 66 67 66 66 66 58
29 35 33 29 28 25 32 33 44 52 51 58 59 59 58 57 57 58 59 59 59 59 60 63 66 68 66 68 67 67 67 63 64 63 68 68 71 69 69 70 70 70 68 70 68 68 68 63 60
33 32 32 29 26 23 29 30 33 42 45 46 52 57 59 58 57 57 59 58 58 60 61 62 66 68 69 69 70 68 66 65 62 64 66 66 66 68 69 68 69 70 68 70 69 68 69 68 67
32 26 24 24 19 18 27 27 38 44 52 53 55 55 55 60 58 57 58 58 58 59 61 62 65 68 68 69 69 69 69 68 67 67 62 64 64 65 70 70 69 68 70 70 69 70 68 68 64
30 23 18 19 16 17 26 26 37 49 53 55 57 57 50 57 59 58 58 58 59 60 61 62 64 67 68 68 68 69 70 68 66 66 63 63 64 65 67 71 68 69 69 70 71 67 66 67 65
28 23 21 19 19 17 21 34 41 46 51 55 56 58 59 55 58 58 58 58 59 60 61 62 64 66 67 67 68 69 70 69 65 64 66 65 66 64 68 70 69 68 69 69 70 67 68 68 68
25 26 21 19 17 17 19 27 35 46 50 53 54 57 60 58 60 58 59 59 59 60 61 63 64 65 67 67 67 68 68 69 69 67 67 66 65 67 66 70 70 69 70 70 71 67 68 69 68
20 21 21 18 18 16 20 27 47 48 50 52 54 56 59 61 62 63 59 60 60 60 60 61 63 64 66 67 66 66 66 67 69 67 67 68 67 67 69 70 70 70 69 70 71 70 68 69 68
20 21 23 19 19 19 19 37 47 48 50 51 53 55 57 59 60 62 64 63 60 60 61 61 62 62 64 66 67 67 68 67 66 67 67 68 68 68 69 70 71 68 68 69 71 70 67 68 68

GFSSGP_sfc_30mbdewp_081.txt.gz
Dewpoint
67 63 63 61 56 51 50 54 55 53 51 50 49 47 48 54 55 52 58 61 63 64 66 69 72 71 72 73 72 72 71 70 70 71 71 70 72 72 72 72 72 72 72 71 72 72 72 71 72
60 59 61 61 52 50 50 57 55 55 52 50 49 49 54 54 56 56 57 61 62 62 63 66 73 71 72 73 72 72 72 72 72 71 71 71 70 72 72 71 72 72 72 72 71 71 72 72 72
64 60 61 59 56 51 53 57 56 52 51 49 50 53 57 53 54 55 59 60 60 62 62 69 73 71 72 73 72 72 72 72 71 71 71 71 71 71 71 71 72 72 72 72 71 71 72 71 71
59 61 61 58 54 56 56 57 54 50 52 50 54 56 59 55 54 57 60 59 59 61 65 72 72 72 72 72 72 72 72 71 72 72 71 71 71 71 71 71 72 72 72 71 70 70 71 71 70
60 61 57 56 56 56 58 56 52 53 52 51 54 55 53 56 56 58 59 59 59 63 66 70 73 72 72 73 72 72 72 71 71 72 71 71 71 71 71 71 71 71 71 70 71 71 72 71 71
62 61 55 51 54 56 57 55 57 55 53 55 56 56 57 58 57 57 58 59 61 61 64 68 72 73 72 72 72 72 71 71 71 71 71 71 70 71 71 71 71 71 71 70 70 71 72 71 71
60 59 54 53 55 56 58 61 59 55 53 56 56 54 58 57 57 57 58 60 60 63 62 66 69 72 72 73 72 72 72 72 72 71 70 71 71 69 70 71 71 71 70 71 71 72 72 71 71
59 59 54 52 53 55 59 61 60 56 59 58 58 53 54 56 57 58 58 61 62 60 60 65 65 66 67 69 72 72 72 71 71 71 71 70 70 70 69 71 71 70 70 70 70 71 72 71 70
59 57 52 53 53 57 60 60 63 63 58 58 57 54 55 57 57 57 58 62 62 60 60 63 66 69 70 68 70 71 71 71 71 70 70 70 68 67 68 71 71 71 71 71 70 71 72 71 70
57 55 53 56 54 57 58 58 59 59 59 58 55 54 56 56 56 55 57 59 58 57 57 60 65 65 69 63 69 66 67 70 67 67 69 69 66 63 64 70 71 71 71 71 71 70 71 71 66
57 53 54 57 56 58 57 58 59 58 57 58 54 55 56 56 55 54 55 55 55 57 60 66 67 68 64 64 67 69 64 67 68 69 62 62 64 63 63 68 67 68 70 67 69 68 69 63 60
54 55 53 57 57 57 57 57 57 58 59 60 57 56 55 55 54 53 53 54 55 57 58 66 66 64 62 62 66 60 62 62 63 63 64 63 60 61 65 64 61 65 68 64 67 64 65 64 61
53 51 48 52 55 58 57 57 58 59 60 60 58 55 55 53 54 54 53 55 56 57 58 62 63 65 64 66 60 61 60 60 62 64 64 64 65 66 66 67 67 64 64 62 65 66 66 65 62
52 52 45 46 50 58 56 57 58 58 60 60 57 55 54 52 53 54 53 54 56 58 59 62 63 64 64 67 64 63 62 61 61 62 64 65 64 67 66 67 67 67 68 67 67 69 67 66 62
50 46 42 45 49 53 56 56 56 60 60 60 56 55 54 52 52 53 53 54 56 58 60 62 63 64 66 65 64 63 62 63 61 64 66 67 66 68 67 65 68 66 66 67 65 65 64 63 61
47 45 40 44 46 51 56 53 58 60 60 59 55 54 53 52 52 54 53 53 56 58 61 63 61 63 65 66 68 64 66 67 67 63 64 67 69 67 69 66 66 64 67 66 65 66 63 60 62
44 38 37 43 48 51 53 55 59 58 57 57 54 54 53 52 51 52 53 53 56 59 62 62 61 62 64 67 65 66 67 68 67 67 68 67 68 69 70 66 66 67 64 65 64 64 63 61 60
37 36 36 42 48 51 54 53 57 59 57 56 55 53 52 51 51 54 53 53 56 59 63 63 62 62 65 67 66 64 63 65 66 67 70 68 69 69 70 65 65 70 66 66 65 67 66 63 60
31 33 43 43 45 50 48 53 56 59 59 58 53 51 49 49 53 56 55 56 56 58 61 64 63 64 65 65 63 60 60 62 64 68 67 68 68 69 69 67 67 67 67 67 64 64 62 60 57
35 34 30 38 43 50 53 51 57 59 59 60 59 56 50 50 55 57 58 56 55 58 60 63 64 66 65 64 63 60 62 59 64 68 67 67 68 69 68 67 68 68 69 66 65 68 65 54 60
35 33 31 31 39 38 32 41 52 55 59 61 62 59 56 53 56 58 59 58 54 55 59 63 65 67 67 64 64 66 67 66 62 66 65 67 67 68 69 69 69 68 69 65 66 64 64 64 57
31 33 30 30 31 31 37 41 45 54 54 61 61 60 58 58 56 57 59 59 54 55 59 63 66 67 67 66 65 68 63 59 60 63 66 69 68 68 69 68 68 69 68 69 65 62 67 65 62
25 31 34 30 28 31 35 41 45 52 52 58 60 61 60 59 56 57 58 59 55 55 59 63 66 67 67 68 69 66 67 65 64 66 68 69 69 68 67 69 69 70 69 67 66 66 66 65 62
27 29 32 31 26 23 25 32 45 47 51 56 59 59 60 60 57 59 59 60 55 56 57 61 66 68 67 68 69 68 66 66 67 63 64 66 67 67 68 68 69 69 68 68 68 68 68 67 69
29 30 27 25 22 19 21 31 42 47 49 52 53 54 62 60 59 57 59 59 55 56 58 60 65 68 69 68 68 69 68 66 67 67 62 65 67 65 70 69 69 68 69 69 69 69 68 68 64
28 28 23 19 17 15 20 32 43 49 53 55 55 55 56 58 59 60 58 58 58 55 58 60 64 68 68 68 69 70 70 68 65 66 66 65 66 66 71 69 68 69 68 69 69 68 68 67 66
28 26 20 16 17 12 27 42 46 49 52 55 57 58 57 50 59 58 59 59 59 58 57 60 63 67 68 68 69 70 71 70 65 65 66 64 67 67 67 66 67 68 68 68 69 68 69 69 69
25 28 21 18 17 12 26 36 38 45 51 54 55 58 60 59 65 65 63 59 60 60 57 60 62 65 68 68 68 69 69 70 69 66 66 64 65 65 69 67 69 69 67 68 69 68 68 68 67
23 24 23 19 18 15 25 36 46 48 52 53 55 57 59 60 63 65 65 65 65 60 60 60 62 64 66 67 67 68 68 68 70 68 67 67 67 67 67 68 68 69 69 68 70 69 69 69 68
20 22 24 21 19 17 19 41 46 50 53 54 54 56 57 59 60 61 63 64 66 66 65 59 60 62 64 66 68 67 68 68 67 69 68 68 68 68 67 68 69 70 68 69 69 68 65 66 67

GFSSGP_sfc_30mbdewp_084.txt.gz
Dewpoint
68 65 64 63 57 54 50 52 57 49 47 47 47 50 53 54 52 54 63 64 64 66 69 71 73 72 72 72 72 71 70 70 71 70 71 72 72 72 72 72 72 72 72 72 72 72 72 72 71
61 60 60 60 56 49 51 55 55 53 47 48 53 54 52 53 56 60 62 62 63 64 64 68 72 73 73 72 72 72 72 72 72 72 71 71 72 71 72 72 72 72 72 71 72 72 72 72 71
67 60 60 58 56 52 53 57 57 51 47 50 55 52 52 53 56 60 62 62 61 62 65 70 73 73 72 73 72 72 72 71 72 72 71 71 72 71 72 72 72 72 72 71 72 72 71 70 70
61 61 60 58 55 56 57 58 51 48 51 54 53 50 52 55 56 59 61 62 63 63 67 72 72 73 72 72 72 72 72 72 72 72 72 72 72 71 72 72 72 72 71 71 70 71 71 70 70
60 62 58 55 55 57 60 54 53 48 54 52 51 50 52 56 57 57 59 63 64 64 67 71 73 73 72 72 72 72 71 71 72 71 71 71 71 71 72 72 72 71 71 71 71 72 71 71 71
59 62 56 53 53 57 57 58 55 55 55 52 50 51 53 56 56 58 60 63 65 64 67 70 72 72 72 72 72 71 71 72 72 72 71 71 71 71 71 71 71 71 71 71 72 72 71 71 71
59 59 55 53 55 57 58 61 55 54 55 54 54 53 53 54 56 59 60 63 60 64 66 68 70 72 73 72 72 71 72 72 71 71 71 70 70 71 71 71 71 70 71 71 72 71 71 71 70
60 60 56 53 54 56 59 61 63 58 57 57 54 53 51 54 56 59 61 65 64 61 64 66 69 70 69 71 72 71 71 72 71 71 71 71 70 70 71 72 71 70 70 71 72 72 70 70 69
61 57 54 55 54 58 60 60 63 62 56 58 55 52 53 54 58 59 57 63 63 62 64 66 67 69 70 70 71 71 71 71 70 71 69 70 69 69 69 71 71 70 70 70 71 72 71 70 69
61 55 55 55 56 58 58 58 60 58 55 55 51 52 53 53 60 59 58 58 58 63 67 68 67 68 68 65 71 70 70 70 69 69 70 69 68 66 67 71 71 71 71 71 71 69 68 71 67
60 53 56 56 57 58 58 58 60 56 55 53 51 52 52 52 55 55 57 56 57 64 66 65 68 69 65 67 69 71 71 70 68 69 70 70 65 67 68 71 70 71 71 69 70 72 71 70 70
58 54 55 56 56 57 57 58 58 59 60 55 54 53 52 51 51 57 58 57 63 64 64 63 68 67 68 67 68 68 70 66 66 66 65 66 69 67 68 69 69 69 70 65 69 70 69 64 61
57 53 54 57 56 56 56 56 58 62 65 57 55 53 52 51 50 52 53 54 63 64 63 63 67 67 69 66 68 67 65 64 63 65 66 69 66 68 69 65 68 68 69 67 68 68 64 65 66
53 51 48 52 57 56 54 59 58 63 65 60 55 53 52 50 49 51 52 54 55 63 62 63 66 66 67 69 67 64 65 64 65 66 66 69 68 70 70 69 69 67 69 68 56 66 68 64 65
51 52 46 49 55 55 56 56 57 59 63 59 55 53 51 51 50 51 52 54 55 59 63 64 63 66 68 67 64 68 68 67 66 66 68 68 70 70 69 65 67 69 70 70 69 69 67 66 65
50 48 42 46 52 55 56 54 58 60 59 56 54 53 50 51 50 51 52 53 56 60 63 63 60 66 66 66 68 67 67 68 67 67 68 70 69 68 70 69 67 69 65 69 66 68 65 64 64
44 42 42 42 50 53 54 57 61 58 57 55 54 53 50 50 51 52 52 54 56 62 63 63 63 65 67 67 69 68 67 68 66 69 67 70 69 69 71 69 67 71 67 68 66 66 64 64 63
37 37 41 41 47 52 54 55 60 59 57 56 55 53 51 50 51 52 51 54 56 62 64 64 63 67 69 68 69 68 68 68 68 70 69 70 70 69 70 70 69 66 69 68 64 65 63 65 58
35 34 42 46 50 51 52 56 56 58 56 56 54 54 51 51 51 52 52 52 56 61 64 65 66 68 69 67 67 66 66 68 69 70 71 71 70 70 70 70 70 67 70 64 70 69 68 65 66
33 32 38 44 47 56 53 55 56 56 55 57 55 54 52 50 52 53 53 53 56 61 64 66 68 68 69 67 67 67 68 67 69 69 70 70 71 70 70 70 70 68 68 69 68 64 67 63 65
28 30 37 40 45 49 49 53 51 57 58 60 60 62 55 50 53 56 55 55 57 62 64 67 69 68 69 67 68 69 68 69 69 69 69 68 70 71 71 70 71 70 68 69 69 69 64 64 64
26 31 40 42 43 45 51 45 55 55 56 59 59 61 61 50 55 58 57 56 56 61 64 67 70 69 70 70 66 67 65 64 66 68 71 70 69 70 69 70 70 69 67 64 70 67 67 67 64
27 32 36 31 30 28 31 33 51 56 57 53 59 60 60 61 55 57 58 58 55 58 62 67 69 70 69 70 69 67 67 66 66 70 70 71 70 70 69 71 70 70 71 69 70 68 69 69 68
29 30 32 33 28 23 32 33 48 52 54 56 57 62 59 62 58 58 59 60 58 59 61 66 69 71 71 70 70 70 67 66 66 67 67 69 70 70 70 71 71 70 66 63 71 69 69 69 71
29 27 25 27 26 22 21 28 47 52 57 59 57 61 60 63 63 61 59 59 59 58 61 67 70 70 71 70 70 71 69 69 68 68 67 68 66 69 69 71 71 71 71 70 70 70 70 71 69
26 24 24 22 21 21 21 28 48 52 58 56 53 61 59 58 63 64 59 61 61 57 60 65 70 71 71 70 71 72 72 70 68 68 69 67 67 69 71 70 72 72 70 70 70 71 70 70 69
26 24 27 23 22 19 36 46 50 52 53 55 57 60 61 64 64 64 61 61 61 59 61 64 69 71 71 71 72 73 73 72 67 66 69 67 70 68 71 70 71 70 70 70 71 70 70 70 70
30 26 24 24 20 17 36 42 43 49 52 54 56 57 59 62 65 66 66 66 61 60 61 64 69 70 71 70 71 72 73 73 73 72 69 69 71 70 70 70 70 70 71 70 71 71 69 70 70
28 26 24 23 20 17 33 41 47 50 53 54 56 57 59 60 63 65 65 65 67 65 62 62 68 69 70 71 71 71 72 72 73 72 71 69 70 71 69 60 67 70 70 71 70 69 69 69 69
25 26 26 23 24 20 37 43 49 52 54 55 55 57 59 60 60 63 64 64 63 65 68 67 66 65 68 70 71 71 72 71 72 72 71 71 71 71 70 71 70 70 70 70 70 70 68 68 69

GFSSGP_sfc_30mbdewp_087.txt.gz
Dewpoint
69 68 66 63 57 54 51 52 59 50 51 52 54 54 54 54 54 53 66 67 69 71 72 72 73 72 71 72 71 71 70 71 70 72 73 72 72 73 73 72 72 72 73 72 72 72 71 71 71
67 63 62 61 55 51 50 55 54 55 54 52 54 56 58 58 61 63 64 67 69 71 72 73 74 73 72 73 72 72 72 72 72 71 72 72 72 73 72 72 72 72 73 72 72 72 72 71 71
67 63 59 59 56 52 52 55 56 56 53 50 52 54 58 60 62 62 65 66 66 67 70 73 73 73 73 73 73 72 72 72 72 72 71 72 72 72 72 72 72 72 72 72 72 70 70 69 68
65 63 62 57 52 56 55 56 58 52 51 52 53 53 59 61 61 62 63 63 66 68 71 74 73 72 73 73 72 72 72 72 72 72 72 72 72 72 72 72 72 71 70 72 72 71 69 70 71
64 63 57 55 54 57 60 60 55 52 51 51 53 54 58 60 61 62 62 65 68 70 71 73 74 73 73 72 72 72 72 72 72 72 72 72 71 72 72 72 72 72 71 72 71 71 70 71 71
58 62 56 53 54 59 60 59 54 51 51 53 54 54 56 61 61 62 63 65 69 70 71 72 73 73 73 72 72 72 72 72 72 72 71 72 72 72 72 71 71 71 70 72 71 71 71 70 71
58 59 55 52 54 58 58 62 57 50 51 52 55 53 55 60 63 64 66 65 66 70 71 72 72 72 73 72 72 72 72 72 72 71 71 72 72 72 71 71 71 71 72 72 71 71 71 70 70
60 60 57 55 55 55 59 61 62 55 52 54 54 53 55 59 63 64 65 66 67 69 70 71 72 73 72 72 71 72 72 71 71 71 70 71 71 72 71 72 72 71 71 72 71 70 70 70 69
64 57 55 54 55 58 60 59 63 63 56 54 54 54 57 60 62 62 62 64 65 66 68 70 70 71 71 72 71 71 72 71 71 70 70 71 70 70 71 71 72 71 71 71 72 71 71 70 70
60 56 58 58 58 59 60 60 60 58 58 55 53 54 58 59 62 61 61 62 64 66 67 69 70 70 70 70 71 71 70 70 70 70 70 70 69 69 71 72 72 71 70 71 71 71 71 71 69
61 56 57 58 59 59 59 58 60 57 54 51 51 53 58 58 58 59 59 61 65 67 67 68 68 69 68 69 71 69 71 70 70 68 69 70 69 71 71 72 71 71 70 69 69 70 68 69 70
59 58 59 58 59 59 58 59 58 61 60 55 52 54 59 58 56 57 58 64 65 65 67 68 69 69 69 69 69 68 70 70 68 71 69 67 67 68 69 70 70 69 70 67 69 69 71 71 70
50 56 58 57 58 58 58 57 59 61 63 58 52 52 59 58 57 57 60 64 65 65 67 67 67 67 68 69 68 68 69 67 66 66 67 69 67 69 69 68 69 69 65 68 61 65 68 65 64
57 56 57 57 57 56 56 57 58 61 59 61 52 52 51 52 56 58 62 63 64 64 66 65 64 67 69 69 68 67 67 63 65 66 69 69 69 68 68 68 69 68 70 69 64 65 68 64 64
56 53 51 56 57 56 61 59 58 61 58 61 52 52 51 51 56 55 62 64 63 63 66 65 67 68 69 66 68 67 67 67 67 68 66 69 69 67 67 65 67 69 70 68 68 68 70 65 63
49 52 51 53 56 59 57 56 59 61 60 59 53 52 51 50 52 55 57 63 63 64 63 63 66 67 66 67 67 66 68 68 67 68 69 70 69 68 68 66 67 69 67 69 66 67 64 63 65
46 46 48 47 55 56 55 56 60 63 60 57 54 52 51 49 52 54 55 58 63 64 63 62 65 65 68 67 67 66 65 67 69 67 69 68 69 70 70 69 68 70 68 68 67 66 65 64 62
41 44 46 47 53 55 56 53 59 60 61 56 54 52 51 50 51 53 55 59 63 64 65 65 66 65 66 69 68 66 67 69 69 69 70 71 70 69 69 71 69 68 68 67 66 65 64 64 61
36 39 44 48 55 56 55 57 60 60 58 55 54 53 50 51 52 53 55 60 64 63 64 64 67 66 67 68 67 67 65 67 70 70 70 68 69 71 70 70 67 68 67 65 69 68 67 67 66
30 34 42 50 57 53 50 54 58 58 57 56 55 53 51 51 52 51 55 60 63 62 64 67 68 68 67 68 68 67 68 69 69 70 71 69 69 71 70 69 69 67 67 70 67 64 66 65 65
26 30 36 44 53 53 51 52 56 58 58 59 59 57 58 52 51 52 53 59 62 63 64 67 68 68 67 68 69 71 70 70 70 70 69 71 71 71 70 70 69 67 67 66 67 69 64 64 65
21 26 30 45 43 42 51 45 51 57 57 58 59 58 60 60 52 54 54 57 61 64 66 68 67 66 67 70 67 67 66 66 67 69 69 69 70 71 71 70 70 70 68 66 67 70 68 62 63
21 27 39 41 40 43 45 46 50 56 56 57 58 58 60 61 61 54 56 57 62 64 66 70 68 66 66 69 70 68 67 66 67 70 69 70 71 71 70 70 70 68 69 67 68 70 68 69 69
23 21 38 38 42 39 39 43 51 53 56 57 59 59 60 62 62 62 57 59 62 63 65 70 69 68 67 70 69 69 68 66 66 68 68 68 70 70 69 71 71 70 69 66 66 70 69 69 69
19 19 29 32 33 31 30 43 51 56 57 55 54 58 60 60 61 62 63 60 60 62 65 67 70 68 68 70 68 69 69 68 67 68 67 69 68 68 68 71 71 70 69 66 67 71 70 71 67
19 26 27 28 30 27 29 44 51 55 58 59 57 60 59 59 60 63 62 63 61 60 65 66 70 70 69 70 69 70 70 69 67 68 68 69 65 67 68 69 70 71 70 70 71 70 70 69 69
23 25 28 25 26 23 47 50 53 55 56 58 60 60 57 58 60 59 59 65 65 60 65 66 69 70 69 70 69 71 71 70 68 68 69 68 68 70 71 70 71 71 71 70 71 70 71 70 69
26 31 25 24 24 23 46 48 50 53 54 57 58 59 61 62 63 62 63 65 66 65 65 67 69 70 70 71 71 71 71 71 71 72 71 70 69 69 69 69 69 71 71 71 70 69 70 70 70
29 29 29 26 26 23 37 44 53 52 54 54 57 59 61 62 65 65 65 66 66 66 67 68 69 70 71 71 71 71 72 72 72 71 72 70 69 69 68 69 66 69 70 70 71 70 69 70 69
30 30 29 26 24 30 42 47 55 54 54 55 57 59 60 61 62 64 65 66 66 65 66 67 67 69 70 71 71 71 72 72 72 73 72 72 69 69 68 64 61 66 69 72 70 69 70 69 68

GFSSGP_sfc_30mbdewp_090.txt.gz
Dewpoint
69 69 67 63 56 54 50 54 57 53 52 54 50 51 49 51 52 51 65 68 70 71 72 73 73 72 71 71 71 70 70 72 73 73 72 72 72 72 72 73 72 73 73 72 71 71 71 70 70
68 66 64 62 54 49 49 55 54 53 54 56 56 58 55 56 61 64 67 69 71 72 72 73 73 72 72 70 71 73 72 71 72 73 72 72 73 72 72 72 72 72 72 72 71 71 71 71 70
66 62 60 58 55 50 50 55 57 54 54 54 57 59 60 61 64 65 68 70 71 72 73 72 73 73 73 73 72 72 72 72 71 72 72 72 73 73 72 72 72 72 72 72 71 71 70 69 69
65 64 62 56 53 56 56 55 57 52 54 56 57 58 61 63 63 66 69 69 69 71 73 73 73 73 73 73 72 72 72 72 72 72 72 72 72 72 72 71 71 72 72 71 69 69 70 71 67
64 63 56 55 54 57 58 59 54 51 55 56 58 58 59 62 65 66 65 67 69 71 73 73 73 73 73 72 73 72 72 73 73 72 72 72 72 72 72 71 71 71 72 72 70 70 71 71 69
60 62 54 52 54 58 59 59 57 54 56 58 57 57 59 63 64 64 66 67 69 71 73 73 73 73 72 72 72 72 72 72 72 72 72 72 72 72 72 72 72 71 72 71 70 71 71 69 70
58 59 55 54 54 57 58 60 54 54 56 55 58 56 60 61 63 65 68 68 69 72 72 73 72 72 72 72 72 72 72 72 72 72 72 72 72 71 71 72 71 72 71 71 70 70 70 70 70
61 61 54 54 54 55 58 59 55 54 54 58 60 58 58 61 63 66 67 69 70 71 72 72 72 72 72 72 72 72 72 72 70 71 72 72 72 71 71 72 72 71 71 70 70 70 70 70 69
63 58 54 55 56 58 61 57 60 56 54 55 56 60 61 64 65 65 66 68 69 70 71 72 72 72 72 71 72 71 71 71 71 70 71 72 71 71 71 73 72 71 71 71 71 70 70 70 70
60 57 56 58 57 59 59 59 60 54 52 54 58 61 63 65 64 64 65 66 66 68 70 71 71 71 71 71 71 71 70 70 70 71 71 70 70 71 71 72 72 70 71 72 71 71 70 70 69
60 58 58 58 58 60 59 60 60 57 56 54 57 60 61 62 62 63 64 64 65 68 69 69 70 70 70 70 71 70 70 69 69 69 70 69 69 71 71 72 71 69 69 68 68 69 67 69 69
55 61 61 58 60 59 58 59 60 59 56 55 59 60 61 60 60 61 63 64 66 67 68 69 69 69 68 70 70 69 70 70 69 68 69 68 69 69 70 70 69 69 70 68 68 69 70 70 71
58 59 60 61 59 59 58 59 59 58 58 56 58 59 60 59 59 60 62 65 66 67 67 68 69 69 68 69 69 68 69 69 69 69 67 68 68 68 69 69 69 67 64 68 64 65 68 66 64
57 59 59 59 58 59 57 60 57 59 57 56 57 57 57 57 57 62 64 64 65 67 67 68 68 68 69 69 68 68 69 66 66 67 67 68 68 68 66 68 68 68 69 67 67 66 67 67 62
54 55 59 57 57 56 58 56 56 59 59 53 58 58 57 57 60 63 63 64 65 66 67 66 67 68 69 69 67 67 66 65 67 69 69 69 69 67 67 68 68 68 70 69 67 67 68 66 64
53 55 54 57 57 58 55 53 58 59 58 58 52 55 56 56 60 63 64 64 65 66 64 65 67 68 69 69 67 68 67 67 68 68 69 68 68 67 67 64 67 69 69 69 66 66 65 63 64
40 48 50 55 57 58 56 53 59 60 60 57 52 51 52 57 61 62 63 63 65 65 64 66 67 67 67 67 67 68 67 67 68 68 70 69 68 69 69 67 68 68 67 67 67 66 66 64 63
32 44 49 50 56 57 56 56 61 60 60 58 52 51 51 54 58 62 63 63 65 64 63 65 65 67 69 67 67 66 68 69 69 68 69 69 70 70 70 68 68 69 68 67 67 66 64 64 60
28 29 31 53 57 54 55 55 58 61 61 60 54 52 50 53 55 61 62 63 64 64 64 64 63 66 68 67 65 65 65 67 69 69 70 70 70 70 71 71 67 68 65 66 68 68 65 66 67
29 29 45 55 55 53 54 53 54 59 60 59 55 53 50 52 54 59 62 62 64 63 64 65 63 66 67 68 67 67 67 68 69 70 70 69 69 70 70 70 67 68 68 69 68 65 64 64 65
28 28 32 48 53 54 52 49 52 56 60 60 58 57 52 52 53 58 62 61 63 63 65 65 65 66 67 68 68 69 69 69 69 69 69 70 70 71 71 70 69 67 67 66 67 69 65 63 65
25 24 24 51 48 45 51 41 50 56 57 57 58 59 59 52 52 56 62 61 61 63 66 67 67 66 66 68 67 67 67 66 67 69 69 70 71 70 70 70 69 69 67 66 66 69 67 64 66
24 22 23 46 45 46 47 44 48 55 56 56 57 60 58 59 59 54 60 62 61 63 67 67 67 66 67 69 68 67 67 67 68 68 69 69 70 71 71 70 69 69 67 65 68 69 68 70 68
21 22 33 44 45 39 42 45 49 51 55 57 58 59 59 59 62 61 61 60 62 63 67 66 66 65 66 68 69 68 67 65 67 68 68 68 69 70 70 70 70 69 69 67 67 70 69 69 68
19 20 23 32 39 36 39 44 44 52 56 57 57 58 59 58 61 62 62 60 62 64 68 67 66 64 65 67 69 69 68 66 67 68 68 68 68 69 69 71 70 69 68 66 64 70 69 69 68
18 18 22 28 31 33 44 42 49 55 57 58 59 59 60 60 61 61 63 64 63 63 67 68 66 65 66 66 69 69 69 68 68 68 67 68 68 68 69 71 71 70 70 69 70 69 69 69 69
17 21 25 30 33 28 44 50 52 57 57 57 57 60 59 59 60 61 64 64 65 64 65 68 68 67 67 67 68 69 70 69 67 68 67 69 69 65 68 68 70 71 71 69 71 70 70 70 69
22 27 25 26 23 23 43 47 47 54 56 58 59 59 61 61 60 61 62 64 66 66 65 66 69 68 68 69 69 69 69 70 69 69 69 69 68 68 71 70 70 70 71 70 70 70 69 69 69
24 25 28 26 26 23 33 45 54 55 56 57 58 60 61 62 64 64 62 66 66 67 68 68 68 68 69 70 70 69 70 70 70 71 71 70 69 69 69 69 69 69 70 71 70 69 69 69 69
28 27 28 26 24 37 43 47 55 55 56 57 59 60 61 62 63 65 65 66 65 66 67 67 68 68 69 69 70 70 70 71 71 70 71 71 70 69 67 68 67 67 69 70 71 70 70 68 67

GFSSGP_sfc_30mbdewp_093.txt.gz
Dewpoint
70 69 67 63 56 53 51 53 57 53 49 49 49 48 48 53 52 48 63 65 70 71 72 72 72 72 71 71 71 71 73 72 72 72 72 72 72 72 72 72 72 72 72 71 70 69 69 69 69
69 67 64 61 52 48 49 55 53 55 54 49 53 54 56 57 63 63 66 70 70 71 72 73 72 71 71 70 70 70 71 73 73 72 73 72 72 72 72 72 73 72 71 71 71 70 70 69 69
67 64 60 57 54 49 50 56 55 55 53 50 58 60 61 61 64 66 69 70 71 72 73 72 72 71 71 72 73 72 71 71 73 72 73 72 72 72 72 72 72 72 71 71 71 71 70 69 69
63 64 63 55 52 54 54 56 56 54 55 57 60 59 62 65 65 68 70 71 71 72 72 72 72 73 73 72 72 72 72 71 72 72 72 72 72 72 71 72 73 72 71 70 71 70 70 68 68
63 63 56 55 54 57 58 57 56 53 54 56 57 58 60 65 68 69 69 70 71 72 73 73 73 73 73 72 73 72 73 72 72 72 72 72 72 72 71 71 71 71 70 69 70 70 69 68 70
62 62 52 52 54 57 59 60 61 57 58 58 58 58 60 66 67 67 68 69 71 72 73 73 73 73 73 73 72 72 73 73 73 72 72 72 72 72 72 72 71 71 71 70 71 69 69 69 69
59 58 55 54 54 56 58 60 59 57 55 56 58 57 62 64 64 66 67 69 71 73 72 72 72 72 72 72 72 72 72 72 72 72 72 72 72 72 72 71 71 71 70 70 71 71 70 70 70
61 60 54 54 55 55 57 58 57 56 56 58 57 57 60 62 65 67 67 69 71 72 72 72 72 72 72 72 72 72 72 71 72 72 72 72 71 72 72 72 72 70 70 69 70 70 70 70 70
64 58 53 54 56 56 59 55 57 58 57 56 59 59 61 65 67 66 67 69 70 71 71 72 72 71 71 72 71 71 71 70 70 71 72 71 71 72 72 73 71 71 70 69 69 69 69 69 70
60 57 55 59 60 57 58 56 55 57 56 58 58 61 63 65 65 65 65 66 68 69 71 72 71 71 71 71 71 71 70 71 71 71 71 70 70 71 72 72 71 71 71 71 70 69 69 70 68
60 57 58 57 59 59 58 59 55 55 56 58 58 61 63 63 63 64 65 66 66 69 70 71 71 71 71 71 71 71 69 69 70 70 70 69 70 71 71 71 70 67 69 69 68 68 66 67 69
56 60 61 59 60 60 58 60 53 55 57 60 61 63 63 63 63 64 65 65 66 68 69 70 70 70 69 71 70 70 69 69 69 69 69 69 69 70 70 70 69 69 69 66 68 69 68 69 70
58 58 60 62 61 60 60 58 56 59 59 61 61 63 63 63 63 64 65 65 67 67 68 69 69 69 69 69 69 68 69 70 69 68 68 69 68 68 69 69 68 67 65 67 65 66 67 67 64
58 59 60 61 61 60 59 60 58 58 59 60 61 61 62 61 62 63 64 65 66 67 68 68 69 69 68 69 68 67 69 68 68 69 67 68 68 68 67 68 68 68 68 68 66 65 68 67 61
58 56 59 59 59 58 59 57 57 59 59 59 60 60 60 60 60 62 65 65 66 67 67 68 68 68 68 68 68 67 68 65 66 67 67 68 69 67 67 68 67 68 70 69 67 67 68 64 63
55 56 52 57 57 58 56 53 58 58 57 57 58 58 58 57 60 63 65 65 66 67 66 67 68 68 68 68 67 67 67 66 68 68 69 68 68 67 66 65 65 69 69 69 66 66 65 64 64
47 50 50 55 58 56 54 53 58 60 58 56 56 56 57 57 61 63 64 65 66 66 66 66 67 68 68 68 67 68 67 67 68 68 69 68 67 68 67 65 67 67 68 67 67 66 65 64 63
33 43 50 49 55 56 55 53 58 59 59 57 55 56 56 57 61 63 64 64 65 65 65 67 67 67 67 67 67 67 68 68 68 69 69 69 69 70 70 68 67 69 68 67 67 66 65 64 62
29 29 43 55 57 55 54 55 57 59 59 58 54 52 54 57 62 63 63 64 65 64 64 66 66 67 66 66 65 66 66 67 68 68 69 69 70 71 69 70 68 67 65 66 68 67 65 66 66
29 29 52 55 56 55 55 53 55 58 58 60 55 53 55 57 61 63 63 64 64 63 64 65 65 67 66 66 66 67 66 68 69 69 70 70 70 70 70 69 66 68 68 69 68 67 64 64 66
28 28 47 50 54 54 52 49 51 55 59 61 59 59 53 56 61 62 62 63 63 63 64 64 65 66 67 66 67 69 69 69 68 69 70 69 68 70 70 70 68 67 67 66 67 68 66 63 65
26 28 28 51 49 43 50 40 48 51 55 59 59 59 51 54 60 61 62 62 63 63 64 64 65 65 67 68 67 66 66 65 66 68 69 69 70 70 70 69 69 68 66 66 65 69 66 65 64
27 29 23 49 46 48 48 45 45 55 55 58 60 59 57 54 58 61 61 62 63 63 64 65 66 65 67 68 67 67 66 67 67 68 68 68 70 71 70 70 70 69 67 65 66 69 68 69 68
26 21 38 47 46 39 44 46 45 50 54 57 59 59 59 55 56 61 61 61 62 63 65 66 66 65 67 68 68 67 67 66 67 67 67 68 68 69 70 70 69 69 68 67 67 69 69 68 68
20 21 24 38 39 36 43 45 42 51 55 57 58 59 59 61 60 61 61 61 61 64 66 67 66 65 66 67 68 67 67 66 66 66 67 67 67 69 69 70 70 69 69 67 65 69 69 69 68
19 19 20 29 34 35 45 40 41 56 55 58 58 60 60 61 62 61 64 62 62 64 67 66 66 65 65 67 67 68 69 66 66 68 68 68 67 68 69 70 70 69 70 68 66 69 69 69 69
19 18 21 22 32 32 42 48 52 57 57 58 58 59 59 61 61 62 64 65 65 64 67 66 65 64 65 65 68 68 69 68 67 68 68 68 69 68 68 69 71 70 70 69 70 70 69 70 69
19 24 23 26 28 29 39 44 44 54 56 58 59 59 60 60 61 63 64 65 66 65 66 68 68 66 67 67 67 68 69 69 68 68 68 67 68 69 67 68 69 70 71 71 69 70 70 68 69
24 23 27 26 28 29 31 38 54 54 56 57 58 60 61 61 62 62 64 66 66 67 67 67 68 68 68 68 68 68 69 69 70 69 69 69 69 68 68 70 70 70 70 70 70 69 69 69 69
30 23 26 24 25 38 34 37 55 56 57 58 58 59 61 62 64 64 64 65 66 66 67 67 68 68 68 69 69 69 69 70 70 69 70 70 70 69 68 69 68 68 69 70 70 70 70 69 68

GFSSGP_sfc_30mbdewp_099.txt.gz
Dewpoint
68 66 66 64 55 53 51 53 55 42 42 43 44 43 49 58 52 41 61 66 67 67 70 71 72 72 72 73 72 71 72 73 72 72 72 72 73 72 71 71 70 70 69 70 70 69 70 70 71
66 65 64 62 53 48 50 54 47 42 45 43 47 48 56 58 60 60 63 68 67 68 69 70 72 71 71 71 72 72 71 72 73 72 72 72 72 72 71 71 71 71 70 70 71 70 70 69 68
65 65 61 56 54 49 50 55 50 50 46 45 54 59 60 59 60 63 66 67 68 69 70 71 71 71 70 70 70 72 72 72 72 72 72 72 72 71 71 71 71 71 71 70 70 70 70 70 71
62 64 63 53 51 53 54 56 53 45 51 59 57 58 62 62 62 66 67 68 68 69 68 71 70 70 72 72 71 71 72 72 72 72 72 72 71 72 71 71 71 71 71 70 70 69 69 70 70
64 62 56 52 52 55 56 56 50 45 52 58 59 58 59 66 67 67 67 67 68 67 68 69 72 72 72 71 71 71 72 72 72 72 72 72 71 71 70 70 71 71 71 70 70 69 70 71 71
62 61 53 51 52 56 57 59 53 52 57 58 57 56 61 67 66 67 67 68 66 66 68 71 72 72 71 71 72 72 72 72 72 72 72 71 71 71 71 70 70 70 70 69 69 69 70 69 70
60 58 53 54 53 55 57 60 56 56 57 56 57 54 63 64 67 68 68 67 66 70 70 69 70 71 71 71 71 72 72 72 72 72 72 71 71 72 71 71 70 70 69 69 70 69 70 70 70
61 60 55 54 53 54 58 58 58 55 57 58 57 56 59 64 68 68 67 67 67 68 69 70 70 70 70 70 71 72 71 71 72 72 71 71 71 71 71 71 71 70 70 70 70 70 70 70 71
65 58 54 54 54 55 58 56 58 58 56 58 59 58 61 66 67 66 66 67 67 69 70 70 69 70 71 70 71 71 70 71 72 72 72 72 71 69 68 71 70 70 70 70 70 69 70 71 71
60 56 56 59 59 56 57 56 55 55 56 59 61 63 64 65 65 62 63 66 65 68 69 69 69 69 69 70 72 72 70 71 71 71 71 70 71 71 71 71 72 72 71 70 70 70 71 68 67
60 56 59 58 59 58 56 56 54 55 54 58 59 61 63 63 61 58 60 65 65 67 68 69 70 71 69 71 70 70 69 70 70 71 70 71 70 71 70 68 67 68 69 67 66 66 66 68 68
57 59 59 58 60 58 55 56 54 54 56 57 60 61 62 59 55 55 59 63 65 66 68 69 69 71 71 70 68 68 68 68 68 69 70 70 68 68 69 68 69 68 67 68 68 67 69 69 69
57 58 59 60 59 60 57 55 54 58 58 60 61 61 59 58 57 56 58 62 64 66 67 68 69 70 70 69 68 68 68 68 68 68 69 68 67 69 69 70 68 70 69 67 67 69 69 67 63
57 58 61 61 60 62 57 56 54 59 58 59 60 60 60 60 60 58 60 62 64 65 67 68 68 70 69 69 69 69 69 69 68 68 69 70 68 70 68 69 69 69 70 69 69 69 68 65 64
58 57 58 59 60 60 60 54 57 59 58 59 59 60 60 60 60 58 60 63 65 65 66 67 67 68 69 69 69 69 69 68 68 68 70 70 70 70 70 69 69 70 71 70 70 68 67 64 63
56 55 53 59 59 61 59 53 59 61 58 58 59 60 60 61 61 61 63 63 65 65 67 67 65 67 67 68 69 68 68 68 68 68 69 70 70 70 69 68 69 69 70 69 68 66 66 65 65
51 50 51 57 61 60 55 54 59 62 59 58 59 60 60 61 62 63 63 64 65 66 67 67 68 68 68 70 69 68 69 68 68 67 69 70 70 69 69 67 69 71 68 68 68 66 67 66 65
42 48 50 52 58 57 54 54 59 62 60 58 59 59 60 60 61 62 64 65 65 67 68 68 68 69 70 70 70 69 68 69 69 70 69 70 70 70 72 69 70 70 68 68 69 69 68 67 66
33 41 49 56 58 56 55 55 58 59 60 59 58 59 59 59 60 62 63 65 65 66 67 67 68 69 69 69 67 68 66 68 69 69 71 70 71 72 70 70 70 69 69 70 69 67 67 65 67
41 47 51 56 58 55 56 55 57 58 58 60 59 58 59 59 59 61 63 64 65 65 66 67 68 70 70 69 69 68 68 67 69 70 71 71 71 72 72 72 69 70 69 71 71 70 65 66 68
28 34 49 50 54 53 52 52 55 57 58 59 60 60 58 58 58 61 62 63 64 65 66 67 68 69 70 69 69 70 69 69 69 69 69 70 71 71 72 71 70 71 70 68 70 70 68 65 67
27 32 51 51 47 43 51 42 51 55 56 58 59 60 58 57 59 60 61 63 63 65 66 67 69 69 69 70 68 67 65 65 67 68 69 70 71 70 70 71 71 71 69 69 69 70 69 68 65
28 35 50 49 48 47 47 45 48 54 54 56 58 59 58 58 57 59 61 62 63 65 65 67 68 69 68 69 69 67 68 67 69 70 69 70 72 71 70 71 72 71 69 69 69 71 71 69 66
32 46 47 46 46 39 39 39 45 50 52 54 58 59 59 58 58 59 61 62 63 64 64 66 68 68 69 69 69 69 69 68 68 68 68 69 69 71 72 72 72 72 71 70 69 72 72 70 68
27 33 36 36 34 31 43 43 39 50 52 52 57 59 59 58 58 60 62 63 63 64 64 65 67 68 68 69 69 69 69 69 67 68 68 68 68 69 70 72 72 71 71 71 70 72 71 71 69
25 26 30 32 33 32 46 40 41 52 57 55 55 58 60 59 59 60 62 63 64 64 64 65 66 67 67 68 69 70 70 68 69 70 68 68 68 68 71 71 72 72 72 71 70 69 70 71 69
22 22 29 32 35 35 41 44 47 56 56 56 55 58 59 60 59 61 62 63 64 64 64 65 66 66 67 66 69 70 70 70 68 70 70 69 71 70 70 71 71 71 72 72 71 68 70 71 71
22 23 21 24 28 29 35 41 36 53 55 57 57 57 59 60 59 61 63 64 65 65 66 66 66 66 66 66 68 68 69 70 70 70 70 71 71 71 71 71 71 71 72 71 72 71 72 72 70
24 22 26 23 26 24 25 33 50 53 57 57 59 59 60 60 60 62 63 64 65 65 65 66 67 67 66 66 67 68 68 70 71 70 70 71 71 71 71 71 70 70 70 71 72 72 70 70 71
31 25 24 20 24 27 26 29 55 56 58 59 59 60 61 61 61 63 64 64 65 64 66 67 69 68 67 67 68 67 67 70 70 70 70 71 70 72 72 71 71 71 71 72 72 71 71 71 69

GFSSGP_sfc_30mbdewp_102.txt.gz
Dewpoint
67 63 64 63 55 48 46 50 43 41 41 43 42 41 47 55 47 45 55 60 62 63 66 70 72 72 73 72 71 72 72 73 73 72 73 72 72 72 71 70 70 71 71 70 70 71 71 70 68
61 64 64 61 50 40 46 49 41 41 41 43 43 48 52 55 54 54 58 61 62 63 64 67 72 72 72 72 72 72 72 72 72 72 72 72 71 72 71 70 70 70 70 70 70 70 69 70 70
63 64 61 56 51 42 47 47 42 41 41 43 48 51 57 53 54 54 60 62 62 64 67 70 71 71 70 71 72 72 72 72 72 72 72 71 72 72 72 71 71 71 71 70 70 70 70 71 70
62 63 61 53 49 52 50 48 46 41 40 53 55 56 56 53 58 59 62 63 64 65 65 69 70 70 71 70 72 72 72 71 72 72 72 72 72 71 71 71 71 71 71 70 70 70 70 70 71
63 61 55 52 51 54 53 52 44 40 53 55 55 56 52 60 61 62 63 63 62 60 61 67 72 72 72 71 71 72 72 72 72 72 71 71 71 71 71 71 71 71 70 70 70 70 71 71 72
61 60 54 49 51 55 55 52 46 47 56 57 55 52 57 62 61 63 62 60 58 59 63 68 72 72 71 72 71 72 72 72 71 72 71 71 71 71 70 71 71 70 70 70 70 70 70 70 69
60 57 53 52 52 55 56 52 48 52 55 55 55 51 60 60 62 62 62 59 57 61 64 66 68 71 71 70 72 72 72 72 71 71 71 71 71 70 70 71 70 69 70 70 70 70 70 70 70
61 60 54 53 52 53 56 56 56 55 54 56 54 53 59 62 63 63 61 58 62 62 63 65 66 67 66 68 71 71 71 71 72 71 71 70 71 71 70 71 71 69 70 70 70 70 71 71 71
65 58 53 52 52 55 57 55 57 57 56 55 56 53 60 64 63 61 58 59 61 63 64 64 65 68 68 68 70 71 71 71 72 71 70 69 65 64 67 70 70 70 70 70 69 69 70 71 71
60 57 55 57 56 55 55 55 55 55 56 55 54 58 61 62 62 57 57 58 60 62 62 63 64 65 65 65 68 68 67 67 67 68 66 63 64 67 66 70 71 71 70 70 70 71 70 68 63
59 56 57 59 58 56 55 55 54 53 53 56 57 59 60 60 57 54 57 58 59 61 62 63 65 64 63 65 64 64 65 66 69 67 64 65 65 65 63 65 65 64 68 64 65 65 63 66 65
57 59 57 58 58 55 55 54 52 51 52 56 57 58 58 56 53 52 56 59 60 62 62 62 63 65 64 64 62 62 64 65 64 66 68 67 65 65 64 64 65 65 64 66 65 64 66 65 65
56 58 58 59 59 55 55 52 53 54 55 56 56 55 54 54 52 52 56 59 61 60 61 62 64 67 68 65 62 62 64 64 64 65 67 66 65 66 66 67 66 66 64 64 65 65 64 63 62
56 57 57 60 60 60 54 52 52 55 56 55 54 53 53 51 51 53 56 59 62 60 61 63 65 67 67 67 66 65 64 65 63 64 67 68 65 67 66 66 65 66 65 65 65 67 62 61 60
56 57 59 58 59 59 57 53 52 54 54 53 53 53 53 54 54 56 57 59 61 60 61 64 65 67 67 68 67 64 64 63 63 64 68 68 67 69 67 66 65 66 68 69 67 64 63 60 59
56 56 53 57 59 61 58 52 57 55 52 54 54 53 55 55 56 57 58 59 60 59 62 64 63 65 66 66 67 65 64 63 63 65 66 68 69 69 67 65 65 67 66 65 63 62 60 61 60
55 50 52 56 61 59 55 54 58 58 53 53 55 55 56 57 57 59 59 60 61 62 63 63 63 63 66 68 66 66 68 65 65 65 66 69 69 68 67 66 67 68 65 64 62 61 61 60 59
43 48 52 52 57 55 54 55 58 60 54 53 54 55 55 56 58 60 60 60 61 63 64 64 64 66 67 68 68 66 66 66 66 66 66 69 67 68 67 67 68 67 64 64 64 67 64 60 60
41 47 52 57 57 53 53 54 57 59 60 56 54 54 55 55 57 60 61 61 62 63 64 65 65 68 67 66 64 64 63 65 66 66 69 70 69 68 68 66 68 66 65 68 67 64 63 59 61
43 47 54 57 58 56 56 55 57 57 59 58 54 54 54 54 56 58 60 61 61 63 64 66 67 69 68 67 66 64 63 64 64 66 68 69 69 68 68 69 66 67 66 69 69 68 61 61 65
36 39 48 52 54 55 51 51 56 56 58 59 59 55 54 54 56 58 60 61 61 62 64 66 67 68 69 68 69 69 68 67 67 67 66 68 69 68 68 69 68 69 66 65 67 67 68 59 64
32 38 44 51 48 43 49 44 51 56 57 56 56 58 55 56 57 56 58 61 61 62 64 65 67 68 70 71 67 67 65 64 64 66 66 66 67 68 67 69 69 70 66 68 67 67 67 67 61
31 34 39 42 40 41 45 41 43 53 55 56 54 55 57 55 56 56 58 59 61 62 64 65 67 68 67 70 68 68 63 63 65 65 67 67 68 68 68 68 70 70 67 68 68 68 67 66 63
42 44 42 38 37 34 36 37 46 50 51 55 58 59 58 56 55 56 57 59 60 62 63 64 68 69 69 70 70 67 66 65 64 65 65 65 66 67 67 67 69 70 69 70 67 68 67 69 67
34 37 36 37 33 33 39 38 38 49 51 53 56 58 57 57 56 55 57 59 60 62 63 64 67 68 69 69 68 68 66 66 66 66 64 66 66 66 67 68 68 68 69 70 68 70 68 68 67
31 32 34 30 34 29 40 35 40 47 50 51 54 57 58 58 57 56 57 60 61 62 63 63 65 67 68 68 68 69 68 65 64 64 66 65 66 65 68 68 68 69 68 69 70 68 66 67 65
27 29 32 31 31 29 33 36 44 49 52 52 51 53 58 58 58 58 58 61 62 62 63 64 64 67 67 67 68 68 67 66 65 66 67 66 67 68 69 69 68 69 69 70 70 67 69 69 69
22 22 25 28 25 24 30 32 33 48 50 52 51 54 57 59 58 58 58 60 64 62 64 64 65 66 66 66 67 66 66 66 65 66 65 67 69 70 70 70 70 68 68 68 69 67 68 70 67
21 19 19 19 22 19 23 27 46 47 51 52 52 54 56 59 59 61 61 61 63 63 65 67 65 66 66 66 65 65 66 66 67 66 65 67 67 69 70 71 71 70 69 69 70 70 68 69 67
25 18 19 17 18 22 23 30 52 54 56 56 55 55 57 58 60 62 64 65 66 66 67 66 67 66 67 66 67 67 64 66 65 67 66 68 67 69 69 69 71 69 68 69 70 68 66 68 67

GFSSGP_sfc_30mbdewp_105.txt.gz
Dewpoint
67 65 63 62 57 51 44 42 41 39 40 41 39 43 49 51 47 46 55 58 60 61 65 70 72 72 71 71 72 72 73 73 73 72 72 72 72 71 70 71 71 71 70 71 71 70 68 67 70
62 61 63 60 55 40 41 41 39 40 40 40 44 49 52 48 49 53 56 59 59 60 63 67 72 72 72 72 72 72 72 72 72 72 72 72 71 71 70 69 71 71 70 70 69 70 70 70 69
64 63 62 55 52 40 41 42 41 39 41 42 45 54 49 48 51 53 58 58 64 65 66 70 71 70 72 72 71 72 72 72 72 72 71 72 72 71 71 71 71 70 70 70 70 71 71 70 69
60 61 59 54 46 46 43 43 41 39 43 50 52 48 49 54 52 57 58 61 64 64 66 70 69 70 69 72 72 72 71 72 72 71 72 72 71 71 71 71 71 71 70 70 70 70 71 71 70
61 59 56 51 47 45 44 44 40 42 50 52 50 47 51 55 56 58 61 62 64 62 60 67 72 72 71 71 72 71 72 72 72 71 71 72 71 72 71 71 70 70 70 70 70 71 71 71 69
60 60 52 48 47 48 49 45 41 49 53 54 49 51 54 56 58 60 59 60 55 56 62 68 72 72 72 71 72 72 72 71 71 71 71 71 71 72 71 71 70 70 70 70 70 70 70 69 68
58 57 52 50 50 50 48 45 45 51 52 52 50 51 54 57 58 55 54 53 55 64 63 65 68 71 71 72 72 72 72 70 71 71 72 71 71 70 71 70 70 70 70 70 70 70 70 70 70
61 60 53 50 50 52 50 48 48 52 52 53 52 52 53 58 56 56 53 54 59 61 65 65 65 66 67 68 71 72 72 71 71 71 71 71 71 71 72 71 70 70 70 70 70 70 71 71 70
63 58 52 50 51 54 53 54 55 56 54 53 53 53 56 56 56 54 53 59 60 62 62 64 63 68 68 67 70 71 72 72 71 70 70 72 67 66 68 70 70 70 70 69 69 70 71 71 71
60 57 54 54 53 54 54 53 54 52 52 53 52 55 57 57 55 53 54 55 57 62 62 62 62 63 65 63 69 66 67 69 67 67 67 70 65 63 63 68 70 69 69 68 69 69 69 71 70
58 57 60 56 57 52 51 52 51 49 49 51 55 57 58 55 53 52 53 55 56 59 59 63 65 65 63 62 62 62 67 66 66 64 61 63 63 64 62 66 66 65 69 67 67 67 67 60 62
56 58 57 57 58 54 51 52 50 47 49 54 56 56 55 54 51 51 53 55 56 57 58 58 60 63 61 60 60 61 64 65 61 63 65 65 63 64 66 61 62 65 61 63 63 61 63 62 61
55 57 56 56 57 55 53 50 51 50 53 54 55 54 53 50 49 52 53 55 56 56 57 59 61 67 66 61 58 62 62 65 62 65 67 67 66 63 66 66 65 63 63 60 61 60 61 61 60
56 57 58 59 57 55 51 51 50 50 54 53 53 51 49 49 49 52 54 55 56 56 57 60 66 66 65 62 62 61 65 62 63 64 64 66 65 67 63 65 62 63 64 62 62 63 59 58 58
57 55 56 59 59 57 58 49 49 51 52 52 50 47 49 48 50 52 55 56 57 57 59 62 64 64 63 63 63 64 61 62 63 65 66 66 66 68 65 62 65 64 64 66 63 61 60 57 57
56 56 53 58 60 58 57 50 51 52 51 48 47 47 48 50 52 53 54 56 57 58 60 61 61 61 62 63 64 63 63 62 63 62 65 67 69 67 66 65 61 63 63 61 59 58 56 56 57
56 52 52 57 60 58 56 53 52 49 48 48 48 48 50 51 53 54 55 56 57 60 61 60 62 61 63 64 65 63 65 64 62 63 67 67 67 68 69 68 65 68 62 60 60 55 60 56 56
47 51 53 54 56 57 56 56 57 49 48 49 49 50 51 52 53 55 55 56 58 61 62 61 61 63 66 67 65 64 66 65 62 66 68 68 67 67 68 66 65 69 64 61 62 65 59 59 58
53 55 53 56 56 55 55 56 57 58 54 53 52 51 52 53 55 55 56 56 58 61 61 61 62 64 65 63 62 64 66 66 67 69 67 67 67 68 68 69 66 66 66 66 65 64 62 57 57
38 49 52 56 56 53 55 55 57 58 56 56 53 53 52 54 55 56 58 57 57 60 61 62 64 66 67 63 68 68 65 64 65 66 66 67 67 68 67 68 67 69 65 67 67 66 63 56 57
36 50 51 51 56 55 53 51 54 57 57 59 60 58 53 53 54 56 59 57 58 59 61 63 64 67 67 66 69 67 66 67 62 64 66 66 67 67 68 68 70 66 69 66 67 64 64 57 58
33 50 52 51 50 44 51 44 52 55 56 58 56 57 57 50 53 56 57 57 57 59 61 64 66 67 68 69 67 68 65 62 67 65 66 66 67 66 67 68 68 69 68 68 67 66 69 68 56
33 37 52 52 45 40 48 43 47 55 55 55 56 56 57 56 51 52 55 55 56 59 61 63 66 67 67 68 68 67 65 68 69 67 68 68 68 67 66 68 68 69 68 67 69 67 68 65 64
37 39 40 41 39 34 42 39 43 49 54 55 54 55 56 56 54 56 55 57 56 59 60 62 66 68 67 69 69 68 67 67 68 66 66 65 65 67 67 67 68 69 69 68 67 68 67 69 69
39 39 36 34 30 29 39 36 43 48 51 55 55 53 53 55 58 54 57 56 59 62 62 60 65 67 67 68 67 67 67 67 67 66 65 67 66 63 67 68 68 67 69 69 67 68 69 67 67
34 34 35 33 32 29 38 33 43 48 51 53 55 53 51 53 57 56 56 57 60 63 63 60 65 66 67 67 67 67 67 65 64 64 68 69 67 67 69 68 67 67 69 68 69 68 66 67 66
27 30 33 34 40 37 38 40 49 46 48 50 52 54 54 56 53 58 54 58 65 59 62 62 64 66 66 66 67 68 67 67 66 68 70 69 67 69 69 67 67 67 68 68 69 68 68 68 68
24 26 25 27 27 29 30 35 40 45 46 48 48 52 56 56 56 56 56 57 56 59 60 63 64 65 65 65 65 66 66 66 66 67 67 69 69 68 70 68 68 68 68 69 69 66 67 67 67
18 19 22 23 22 19 22 31 46 47 47 49 50 50 54 57 58 61 61 63 58 60 61 62 63 65 65 65 64 63 63 63 65 64 65 66 67 68 68 69 69 68 69 69 70 70 69 68 67
17 15 17 16 19 19 19 40 47 47 47 49 50 51 55 59 59 61 62 64 64 63 62 64 67 65 64 66 65 65 65 64 62 64 64 66 68 69 69 69 68 68 68 69 69 70 65 66 66

GFSSGP_sfc_30mbdewp_108.txt.gz
Dewpoint
69 64 64 63 58 56 40 40 39 38 38 40 48 49 48 48 47 50 57 63 64 65 69 70 72 71 72 72 72 72 72 73 72 72 72 72 71 71 71 71 71 71 71 71 69 67 69 71 70
65 63 61 61 55 42 39 39 38 39 39 48 54 48 47 48 52 55 58 58 61 64 66 70 73 72 71 72 72 72 72 72 72 72 72 71 72 71 71 71 71 71 71 70 71 70 69 69 70
67 63 62 58 53 44 39 39 39 38 40 50 54 52 48 51 53 55 60 60 63 65 67 71 72 72 72 71 72 72 71 72 72 72 72 72 71 71 71 71 70 70 70 71 71 71 69 69 70
61 60 61 54 48 41 41 40 39 41 47 47 47 46 48 52 54 57 60 62 66 67 68 70 70 70 72 71 71 71 72 71 72 72 72 72 72 71 71 71 71 71 71 71 71 71 70 69 69
60 58 53 53 47 42 43 40 40 46 52 46 48 49 50 53 58 61 61 64 63 62 63 69 72 70 71 72 72 72 72 72 72 72 72 72 72 71 71 71 71 70 70 71 70 71 69 69 68
57 59 52 49 45 42 42 41 46 51 56 53 49 50 51 56 58 57 59 60 57 60 66 69 72 72 71 72 72 71 71 72 73 72 71 72 72 72 71 71 70 70 71 71 70 70 69 68 69
58 55 51 51 49 48 43 43 50 52 51 48 51 49 52 56 55 59 60 62 64 63 65 68 70 71 72 72 72 72 72 72 72 73 72 73 72 72 71 71 71 70 70 70 71 71 70 70 69
61 59 55 54 51 45 43 48 54 53 50 50 51 50 54 55 56 54 61 65 65 62 65 66 68 68 69 70 72 71 72 71 71 72 72 72 72 72 70 71 71 70 70 70 70 71 71 71 70
63 57 55 51 48 46 45 53 53 55 54 51 52 52 55 53 53 51 59 60 62 64 64 65 67 69 70 71 71 72 72 72 71 71 72 71 70 68 69 71 70 70 70 69 70 71 71 72 71
60 58 55 55 51 47 50 53 53 53 50 52 51 54 54 52 51 52 58 59 59 63 62 66 65 66 66 65 70 70 70 69 68 70 70 70 68 67 64 69 70 70 69 69 70 70 71 72 70
57 58 61 59 55 52 52 54 51 49 51 52 52 52 51 51 51 51 58 59 59 60 62 64 66 66 65 67 68 69 70 69 66 69 70 69 65 65 66 69 68 69 70 69 69 70 70 71 70
54 62 59 61 55 55 47 47 47 47 50 53 55 53 51 51 49 51 55 57 59 61 62 61 63 66 63 65 65 68 68 66 64 64 68 69 68 67 70 69 69 69 70 64 67 66 64 67 62
57 57 59 59 56 52 48 46 51 50 53 54 55 53 51 50 49 52 57 57 55 59 61 63 67 67 65 62 65 66 66 65 66 68 69 69 64 65 68 53 66 69 67 67 67 67 64 63 62
56 56 56 55 56 59 50 51 47 52 52 53 53 52 50 49 49 52 55 54 56 58 62 66 65 66 66 66 69 65 65 65 68 67 71 67 69 67 68 67 68 64 70 65 64 65 65 63 60
57 56 56 59 59 59 54 49 46 49 51 51 51 49 49 48 50 52 53 54 56 58 64 65 66 65 66 65 68 65 66 65 67 68 68 66 69 69 70 67 66 68 66 65 66 65 63 62 62
55 56 52 56 58 61 56 49 47 50 50 49 48 46 48 48 50 52 54 56 56 59 64 65 63 63 63 64 66 67 66 65 64 66 67 70 68 68 69 69 66 65 70 69 67 67 64 61 63
54 51 53 55 60 58 55 50 49 49 49 48 46 46 47 49 51 52 54 57 58 61 61 64 64 61 65 68 67 66 67 65 67 68 68 69 68 69 69 69 66 69 69 66 66 64 62 61 61
49 50 51 54 58 58 54 52 48 48 47 46 45 46 47 50 52 53 53 56 60 62 62 61 64 65 65 67 70 68 67 67 70 69 69 69 69 68 70 70 68 71 69 66 67 65 63 66 59
48 50 52 55 57 56 55 55 54 54 48 48 46 47 49 50 53 53 55 57 60 62 62 62 66 68 67 67 64 67 63 68 68 68 70 70 69 68 70 70 71 67 68 68 69 69 68 65 63
50 50 53 54 57 55 55 55 56 58 58 52 53 51 50 53 54 53 55 57 58 61 63 65 66 67 68 67 68 68 67 68 70 70 69 69 69 69 70 70 69 69 70 68 69 69 69 64 61
52 50 52 51 54 56 54 51 55 57 57 58 59 59 57 55 55 54 55 55 58 61 64 65 68 67 69 69 67 69 67 68 68 67 69 69 69 69 70 70 70 69 70 69 70 70 70 67 62
48 51 50 51 51 47 51 43 49 53 54 55 57 58 57 57 57 57 56 58 57 62 63 67 69 68 68 70 69 66 66 65 67 68 68 69 69 69 68 68 69 70 68 68 71 70 70 71 67
45 49 48 51 49 46 49 45 50 55 52 53 56 56 56 58 58 57 54 60 59 61 63 66 69 69 70 67 71 68 67 68 67 69 68 69 69 69 69 69 69 70 70 69 70 70 70 71 70
43 47 46 48 48 46 46 46 44 51 50 50 51 51 56 58 61 60 55 60 60 60 62 67 69 69 69 70 68 68 67 66 68 68 68 68 69 69 70 68 70 71 71 70 68 71 71 70 71
35 45 39 41 45 40 41 45 45 51 52 50 49 50 55 58 58 59 56 57 60 60 61 66 70 69 70 70 69 69 68 68 68 68 68 67 68 69 69 71 70 70 70 71 69 71 70 70 69
30 32 31 30 32 40 46 38 42 49 51 52 53 52 55 56 57 62 55 59 62 63 62 65 69 69 69 69 70 69 68 68 69 69 69 66 67 70 70 70 71 70 71 71 70 70 70 70 70
29 29 31 36 38 34 43 44 47 48 49 52 54 55 53 55 53 57 58 59 60 64 65 66 69 69 69 69 69 69 70 68 70 69 70 69 69 71 70 70 70 70 69 70 70 70 69 69 68
26 28 25 25 30 33 39 40 46 48 49 53 55 55 54 52 54 57 59 62 62 64 62 63 69 68 69 68 69 69 69 69 70 66 69 65 67 71 68 68 69 69 70 69 70 69 69 68 69
16 21 24 23 23 24 34 39 52 46 49 49 54 55 55 52 52 58 60 64 64 61 62 65 67 68 68 68 68 69 68 69 68 68 68 64 65 71 64 71 70 70 70 70 70 71 70 69 69
18 15 20 20 22 23 24 38 49 50 54 54 49 55 55 54 56 57 60 66 68 67 67 63 66 66 66 65 67 68 67 66 68 67 68 68 70 71 71 71 71 70 70 70 71 71 70 69 68

GFSSGP_sfc_30mbdewp_111.txt.gz
Dewpoint
70 68 66 66 58 57 40 40 44 47 50 50 51 49 50 50 50 50 62 65 67 69 71 71 73 72 72 73 73 73 73 72 72 73 72 71 72 72 72 71 71 71 70 67 68 71 71 70 71
65 64 63 63 55 46 38 40 39 50 50 49 51 52 51 52 55 60 63 65 68 70 71 73 72 72 72 72 72 72 73 72 72 72 73 72 72 72 71 70 69 69 71 71 70 69 70 70 70
65 66 62 58 53 43 39 39 38 49 50 49 50 52 53 55 57 60 64 65 67 68 71 73 73 72 72 72 72 72 72 72 72 72 72 72 71 70 70 70 71 71 71 71 70 69 70 70 70
60 63 61 52 51 48 40 39 39 48 47 48 49 50 56 58 60 66 67 66 68 70 72 73 73 71 71 72 72 72 72 72 72 72 72 71 71 71 71 71 71 71 71 71 71 69 69 69 68
57 58 53 51 52 41 40 41 48 46 47 48 51 54 57 59 64 65 65 68 68 69 70 70 72 72 72 72 72 72 72 72 72 72 72 72 71 71 71 71 71 71 71 71 71 68 68 68 68
55 57 51 48 45 41 40 48 50 49 50 51 52 56 57 60 62 65 66 65 63 68 71 70 72 72 72 72 72 72 72 72 72 72 72 72 72 71 72 70 70 70 70 70 69 68 68 68 68
58 53 51 51 48 40 46 53 53 49 49 51 53 55 57 58 63 62 61 61 67 69 70 72 71 71 72 72 71 72 72 72 72 72 72 72 72 71 71 71 70 71 71 70 70 69 69 68 67
61 56 52 54 49 42 49 53 51 48 50 51 53 54 53 60 64 63 63 64 66 68 69 70 71 72 72 72 72 72 72 72 72 72 72 72 71 71 71 72 71 70 70 70 71 71 71 70 68
63 55 52 53 52 47 54 54 56 52 50 50 53 53 55 59 61 61 61 63 65 66 67 69 70 70 71 72 71 71 71 72 72 72 72 72 72 70 71 71 71 70 70 71 71 71 71 71 71
59 56 56 58 58 52 54 55 51 53 54 52 53 53 55 60 61 62 63 62 63 65 66 68 69 70 70 69 72 72 72 70 69 67 69 71 70 70 70 71 71 70 70 70 70 70 71 72 71
60 56 58 58 60 52 53 53 52 53 53 53 52 53 51 54 58 59 60 62 62 64 65 66 67 68 67 69 71 71 71 70 66 60 64 70 69 67 66 69 70 70 70 63 67 59 67 69 71
56 61 60 59 60 59 53 54 51 52 53 53 53 53 51 50 57 59 59 60 62 62 64 66 66 65 68 69 69 69 69 69 69 69 70 69 64 58 60 68 70 69 66 59 68 66 66 69 69
55 58 59 59 60 61 56 51 50 52 54 52 51 51 51 49 57 59 59 60 60 61 62 64 65 65 64 66 69 68 69 67 67 69 69 69 68 67 65 64 67 58 68 67 66 67 67 67 65
59 60 59 61 62 60 53 51 53 54 55 53 52 50 50 50 57 57 58 60 61 63 64 66 66 67 69 66 67 67 67 68 65 65 65 67 68 69 67 58 68 65 69 67 67 64 66 65 61
57 56 58 59 60 58 60 50 51 54 54 53 52 50 50 51 56 56 57 59 63 65 66 65 65 65 67 66 65 64 65 68 66 59 59 60 66 68 67 68 68 68 69 68 68 67 67 63 62
59 55 52 57 59 59 59 48 50 52 52 52 50 50 48 49 55 55 56 59 64 64 63 64 63 64 64 67 67 65 66 69 69 64 62 63 69 71 68 69 68 68 68 68 67 66 66 63 63
53 50 49 52 59 55 57 49 49 51 51 50 49 49 48 50 53 55 56 61 64 64 64 63 64 63 64 65 67 66 65 65 67 69 71 69 68 70 67 68 71 70 69 67 65 66 64 61 62
49 49 51 50 57 57 56 50 51 50 49 49 46 48 49 50 52 55 58 60 61 65 63 64 64 61 67 67 70 68 68 68 70 69 68 69 67 69 70 72 65 61 64 69 70 68 68 66 62
50 51 53 55 58 56 56 53 56 58 50 47 46 47 49 51 52 53 59 60 61 63 64 65 64 67 66 65 65 65 65 67 69 68 69 68 68 68 70 71 57 58 65 68 70 68 67 67 65
52 51 51 55 57 56 55 54 57 58 58 59 58 47 50 52 52 54 60 61 60 63 62 65 66 67 64 66 67 68 67 69 69 70 70 69 70 68 70 70 67 66 69 70 69 70 69 68 64
50 50 51 50 54 54 54 51 54 56 57 57 57 59 54 53 54 56 59 60 61 63 64 66 67 65 69 68 69 68 66 69 68 68 68 69 70 69 68 71 70 68 68 67 70 71 70 69 68
48 53 52 51 48 44 53 42 50 54 54 56 56 57 56 57 55 55 59 59 61 63 66 65 66 66 69 68 68 66 65 65 68 68 70 68 69 69 68 69 71 69 69 68 70 70 70 70 68
50 51 53 50 48 50 49 47 46 51 50 53 54 56 58 57 56 55 57 58 61 64 65 67 66 67 68 68 69 67 67 67 68 68 68 68 70 70 69 68 69 70 70 70 70 71 69 70 70
53 54 51 50 49 43 45 48 42 51 51 51 53 55 57 58 58 59 60 60 61 63 65 68 67 67 69 67 69 68 67 66 66 67 67 68 69 70 69 70 71 70 70 70 70 71 69 70 69
51 48 42 41 40 39 47 47 47 48 52 51 50 52 56 58 60 59 60 60 61 62 64 69 68 67 68 68 69 68 68 66 64 64 66 67 65 69 69 70 70 70 69 70 71 69 68 70 68
45 43 38 33 36 41 49 46 46 50 51 51 52 49 54 59 60 59 59 60 60 62 65 67 69 69 68 68 69 69 69 69 68 68 68 65 64 68 69 71 69 69 71 70 71 69 71 69 68
32 39 36 40 40 35 43 48 50 51 51 52 51 51 52 58 58 59 61 62 62 62 66 68 69 68 70 69 70 69 69 69 69 69 69 67 64 66 69 70 70 70 71 70 70 70 69 69 66
29 30 26 33 33 35 39 40 43 47 50 51 51 49 52 55 57 59 60 63 64 63 67 70 70 68 68 70 69 69 69 69 69 69 68 63 64 61 68 70 69 70 69 68 70 70 68 70 69
20 21 24 26 27 30 36 39 48 43 48 51 55 53 53 54 55 55 58 62 62 64 66 68 69 70 69 70 69 69 69 69 69 69 69 67 65 68 69 69 69 70 68 70 70 70 68 69 69
19 18 22 23 21 24 28 35 45 45 51 53 53 57 56 54 54 55 60 63 63 65 65 67 66 68 69 69 69 69 69 69 69 69 68 66 67 69 70 67 70 69 69 70 70 69 71 69 68

GFSSGP_sfc_30mbdewp_114.txt.gz
Dewpoint
70 69 67 66 57 56 43 48 50 49 48 51 51 50 48 52 48 48 63 66 66 69 70 72 73 72 73 73 73 73 72 72 72 71 71 71 72 72 72 72 72 70 69 71 71 70 71 71 70
65 65 65 63 52 40 44 49 49 49 50 51 52 53 53 55 59 62 64 67 69 70 71 72 73 73 73 73 73 73 72 72 72 72 72 72 72 71 71 71 69 70 70 69 70 70 71 71 70
63 68 63 55 53 42 41 49 48 50 52 51 52 55 55 58 61 63 66 68 70 71 72 72 73 73 72 72 73 72 72 72 72 72 72 71 71 71 71 71 71 70 70 69 69 70 70 70 70
61 65 59 52 50 49 42 48 48 49 51 54 55 55 58 60 61 64 67 69 70 71 72 73 72 72 72 72 72 72 72 73 72 72 71 71 70 70 70 71 71 71 71 71 69 69 69 69 69
56 59 52 50 51 43 46 47 47 48 53 56 56 56 58 64 64 65 67 69 71 72 72 73 72 72 72 72 72 72 72 73 72 72 72 71 71 72 71 71 71 71 71 71 68 68 68 68 69
58 56 50 47 43 45 48 49 49 52 56 57 57 56 60 64 65 67 69 69 70 69 70 72 73 72 72 72 72 72 72 73 73 72 71 71 71 71 71 70 71 70 70 70 68 68 68 68 68
56 54 52 51 46 49 48 50 50 53 53 55 57 57 61 62 64 67 66 66 69 70 70 71 72 72 72 72 72 72 72 73 72 72 72 72 71 71 71 71 71 70 70 69 69 68 68 67 67
60 56 53 51 49 51 53 52 51 52 52 56 57 57 59 63 66 62 64 68 70 71 71 71 71 72 72 72 72 72 72 72 72 72 72 71 71 71 71 72 71 70 70 70 70 70 71 71 69
63 53 51 52 53 52 52 49 52 53 54 54 56 57 61 63 62 62 66 67 69 69 70 70 71 72 72 72 72 72 72 72 73 72 72 72 71 71 71 72 71 70 70 71 71 71 71 70 70
58 55 56 59 59 56 51 51 51 51 51 53 54 60 61 61 61 63 64 65 67 68 69 70 70 71 71 71 72 71 72 72 72 72 72 71 70 70 70 71 71 71 70 70 70 71 71 73 71
58 56 57 54 58 60 55 47 52 51 51 51 56 59 60 60 59 62 63 65 65 67 68 69 70 70 70 71 72 71 70 69 66 66 69 70 69 67 66 68 69 69 70 63 68 68 64 67 69
57 58 57 57 58 59 57 54 54 53 53 53 56 60 60 60 62 62 62 63 64 66 67 68 69 69 68 70 71 70 70 69 66 65 68 68 62 61 63 68 65 65 68 64 62 65 65 66 68
57 58 58 59 59 59 60 57 53 54 54 54 58 58 59 60 60 61 62 63 64 64 65 67 67 67 68 69 70 69 69 68 69 69 69 67 59 60 63 65 65 66 63 68 65 67 67 67 69
59 59 58 59 60 62 58 55 54 55 54 53 52 51 55 57 58 59 61 62 62 63 64 65 65 66 66 67 68 68 68 67 68 68 68 67 67 65 67 64 64 65 66 68 68 68 66 66 63
60 57 59 60 61 60 60 52 53 53 51 51 51 50 52 58 59 59 60 61 62 63 65 65 66 68 68 67 67 68 67 66 65 62 66 65 68 68 68 65 63 68 67 69 68 69 67 66 64
55 56 55 58 60 58 57 52 53 53 51 52 49 51 56 58 58 59 61 63 63 64 63 65 65 66 66 66 65 66 68 67 64 60 61 64 70 70 69 69 68 68 69 70 67 66 66 63 62
54 49 51 53 59 57 55 52 55 54 52 52 50 50 56 56 57 58 61 64 64 64 64 63 64 64 65 67 67 66 68 68 67 65 66 67 69 70 69 70 67 68 68 68 68 66 65 63 62
49 50 51 51 57 57 54 53 55 53 53 51 50 50 50 55 55 60 62 63 63 64 63 63 63 62 65 67 69 67 68 67 69 69 70 69 68 70 71 70 65 63 66 68 70 68 69 66 63
51 50 52 55 57 56 55 54 56 58 55 50 49 48 51 53 57 61 62 62 63 64 63 63 63 64 67 66 67 66 66 68 69 69 69 69 68 69 69 69 58 67 69 70 70 70 69 65 64
51 51 51 54 58 56 55 54 57 57 57 57 56 49 50 52 58 59 60 62 63 64 63 64 63 66 65 65 67 66 68 68 68 69 69 69 70 70 71 69 67 68 68 68 70 70 69 69 68
49 49 50 51 54 55 53 52 54 55 57 58 57 58 51 51 57 58 58 61 62 63 64 64 65 64 65 67 69 68 69 69 68 68 68 69 70 69 70 70 69 68 67 67 70 70 70 67 69
48 51 51 52 47 43 53 44 50 52 51 55 56 56 54 52 58 59 59 60 61 62 65 65 66 65 69 69 68 65 65 66 67 67 68 69 70 68 69 70 70 69 69 68 71 70 70 69 68
44 52 51 50 49 48 48 43 45 52 49 53 54 55 57 55 58 59 59 60 61 64 64 65 66 66 68 68 67 67 66 67 68 67 67 68 69 70 69 68 70 70 69 69 69 69 70 70 69
51 52 50 50 48 43 44 46 41 46 49 49 53 55 57 57 57 59 60 61 61 64 64 66 66 68 67 67 69 67 66 66 66 66 67 67 67 69 69 71 70 69 69 69 69 70 69 70 70
51 47 44 42 40 38 48 47 45 49 49 49 50 54 55 58 58 59 59 61 62 64 66 65 65 67 67 66 68 68 67 66 65 66 66 66 66 68 68 69 69 70 69 70 71 69 68 69 69
47 43 40 37 38 40 49 43 44 49 50 52 52 54 55 57 59 60 60 61 62 63 66 66 66 66 68 67 67 68 69 67 67 66 66 66 66 67 68 70 70 70 70 69 71 69 70 69 68
46 41 43 39 41 38 44 45 48 49 51 52 52 52 53 55 59 59 60 61 62 63 66 66 67 66 67 67 68 67 69 68 68 68 67 67 65 66 68 70 69 70 70 70 70 70 69 69 67
39 40 35 36 34 32 42 41 40 49 50 50 50 51 50 56 59 60 61 62 62 63 66 68 68 67 68 67 68 68 69 68 68 68 68 68 65 65 66 69 70 69 70 70 70 70 68 69 69
20 22 25 29 35 30 35 37 46 45 50 52 51 51 51 57 59 59 61 63 63 64 66 68 69 68 68 69 69 68 69 69 68 67 67 66 63 63 64 68 68 69 70 69 70 70 68 68 69
20 19 22 21 21 25 32 25 47 49 49 53 55 55 52 57 58 58 62 63 64 66 68 68 69 68 68 70 69 68 69 69 67 67 67 68 65 64 67 68 68 68 70 70 69 69 71 68 67

GFSSGP_sfc_30mbdewp_120.txt.gz
Dewpoint
67 68 69 66 51 48 46 45 48 46 48 49 51 50 52 57 48 46 60 63 64 66 70 71 72 72 72 72 72 71 71 72 71 72 72 72 72 72 72 72 71 70 70 71 71 71 71 71 71
69 67 66 63 46 43 46 49 45 47 50 51 53 54 55 55 60 58 59 64 65 68 71 72 72 73 72 72 72 71 71 71 71 71 72 72 72 71 70 68 70 71 70 71 71 70 71 70 70
64 67 62 53 49 45 45 49 49 52 52 53 54 57 58 58 59 58 63 66 68 70 71 72 72 72 72 72 72 71 71 71 72 72 72 71 71 70 71 72 70 69 70 71 71 71 70 70 70
63 65 59 48 46 46 49 51 51 53 54 56 56 55 60 60 61 64 66 69 69 70 71 72 72 72 72 72 72 71 71 72 72 72 71 71 70 71 71 70 71 69 69 70 71 70 70 71 71
59 59 51 48 47 49 51 52 52 53 55 55 56 57 59 64 66 67 68 69 69 71 71 72 72 71 72 72 72 72 72 72 71 71 71 70 71 70 71 71 71 71 69 69 69 69 70 70 71
56 56 48 45 47 49 50 53 54 56 57 57 57 57 61 66 66 68 69 69 71 70 72 72 72 72 71 72 72 72 72 72 72 71 71 71 71 71 71 70 70 71 68 68 68 68 69 69 71
54 53 50 49 47 47 49 54 55 56 55 56 59 58 62 64 67 69 70 70 71 71 72 71 72 71 72 72 72 72 72 72 72 72 71 71 71 70 70 70 70 69 68 68 68 68 69 68 69
57 56 51 51 46 47 52 54 57 55 56 59 60 57 59 64 69 68 69 69 70 71 71 71 72 72 72 71 72 72 72 72 72 72 71 71 71 71 71 72 70 70 69 68 68 68 69 70 69
62 51 49 51 49 50 53 54 56 58 57 56 59 60 62 67 66 67 67 68 69 70 71 71 71 71 71 71 72 72 72 72 72 71 72 72 71 71 71 71 71 71 71 70 69 69 69 71 71
56 50 52 57 58 55 52 53 55 56 55 58 59 63 66 64 65 66 65 65 67 68 69 70 71 71 71 72 72 72 73 72 72 72 70 70 70 71 71 72 71 71 71 69 66 70 68 66 68
58 51 56 57 58 59 58 53 54 54 54 57 58 62 64 62 64 65 65 66 67 69 69 70 70 71 71 71 71 71 71 71 70 71 70 70 69 67 68 68 67 64 68 67 63 64 64 65 66
56 59 57 59 59 58 57 57 52 53 55 58 61 62 63 61 64 65 66 66 67 68 68 70 70 70 70 71 70 69 68 66 67 67 69 68 65 63 64 66 65 65 63 65 66 66 66 67 67
56 58 58 60 59 59 59 57 52 53 58 60 61 62 61 60 63 64 65 66 66 67 68 69 69 70 69 70 70 69 68 65 66 66 68 67 63 61 63 63 64 64 65 66 67 68 67 67 67
58 58 58 60 59 59 57 57 55 56 60 59 60 60 60 60 63 64 65 65 66 67 67 68 69 69 68 69 69 69 69 68 68 68 68 66 63 60 64 64 64 65 68 68 68 68 68 66 67
59 56 58 59 60 57 59 54 55 57 59 59 59 59 60 60 62 63 64 64 65 66 67 67 67 67 68 68 69 69 68 68 68 68 68 67 68 67 67 66 67 67 69 69 69 68 67 67 64
56 55 52 58 58 59 57 51 57 57 58 58 58 59 59 60 61 62 63 64 65 65 66 67 67 67 67 68 68 68 67 68 67 67 67 66 68 69 67 68 68 69 69 70 70 67 65 63 63
52 48 51 54 58 58 56 53 55 57 56 57 58 58 59 60 60 61 63 63 64 64 65 66 66 66 67 67 67 68 67 66 65 63 64 68 70 69 69 69 66 66 69 70 70 69 65 62 62
46 48 50 50 54 57 55 54 55 55 56 56 57 58 58 58 59 61 62 63 63 64 65 65 66 66 67 66 66 67 67 68 65 63 67 68 70 70 70 67 64 68 69 70 70 68 67 65 64
51 50 48 53 56 56 54 56 55 55 54 53 51 53 55 58 59 60 62 63 63 64 64 64 65 66 67 66 65 66 66 67 67 68 69 69 69 70 67 60 66 69 69 70 70 70 68 67 66
51 49 50 54 56 56 55 54 57 58 57 54 51 54 55 57 58 60 61 63 63 63 63 64 64 65 67 66 66 66 66 67 67 69 69 70 69 70 69 66 68 68 68 69 69 69 68 66 67
50 48 50 50 55 55 54 52 55 57 58 58 57 54 56 56 57 60 61 62 62 63 63 63 63 65 66 66 67 68 68 68 68 68 69 69 70 70 70 68 68 67 68 69 69 69 68 64 65
42 51 51 52 48 47 53 44 51 56 56 56 56 57 54 56 58 60 61 61 62 62 63 63 63 64 66 68 66 65 65 64 66 67 68 68 70 69 70 70 69 69 69 70 70 70 69 68 64
48 52 51 50 48 47 49 46 45 54 54 55 55 56 56 55 58 60 61 61 62 63 63 64 63 64 66 68 67 65 65 66 67 67 67 68 69 70 70 70 70 69 69 69 69 69 69 68 65
52 50 49 49 46 39 45 45 43 50 52 54 55 55 56 55 58 60 61 61 62 63 64 64 64 64 67 67 67 65 65 65 66 66 66 67 68 69 70 70 70 70 69 69 69 69 69 69 69
49 45 39 39 39 38 47 45 42 47 52 54 54 54 56 55 58 59 59 60 61 62 63 64 64 64 67 67 67 66 65 66 66 66 66 66 67 68 68 69 69 70 69 69 70 69 68 69 68
47 43 37 35 37 38 49 44 41 48 52 54 54 54 56 55 57 58 59 60 60 62 63 64 64 64 66 67 67 67 66 66 66 66 66 66 67 67 68 68 70 70 70 69 70 69 69 69 69
47 42 43 38 41 39 41 46 45 50 49 50 52 52 55 56 57 58 58 59 60 62 63 64 64 64 66 66 67 67 67 67 66 66 66 66 67 67 68 69 69 70 70 70 70 70 69 69 68
46 46 37 39 32 34 35 41 42 48 49 49 49 51 54 57 57 58 59 59 60 62 63 64 64 64 65 66 67 67 68 68 67 67 67 66 66 67 67 68 70 69 70 70 70 70 70 69 68
39 41 32 37 36 30 29 31 51 53 52 50 51 52 52 57 58 58 59 60 61 62 63 64 65 64 65 66 66 67 67 68 68 68 68 67 67 66 65 67 68 69 69 70 70 70 69 68 68
32 27 25 27 24 30 31 26 55 57 58 55 54 53 53 58 59 59 60 61 62 63 63 64 65 65 65 66 66 67 67 68 68 67 68 68 67 67 65 65 65 68 68 70 69 69 70 69 68

GFSSGP_sfc_30mbdewp_123.txt.gz
Dewpoint
68 67 68 66 52 48 44 44 47 47 48 50 52 50 52 55 50 48 59 62 62 64 69 68 69 70 70 71 72 72 72 70 72 72 71 72 72 71 71 71 70 71 71 71 71 71 71 71 72
68 66 67 63 47 40 43 47 46 48 49 51 52 54 54 53 57 58 59 63 63 66 68 69 71 72 72 72 71 71 71 71 72 72 72 71 71 69 70 71 71 71 71 71 70 69 69 70 71
68 67 62 55 49 43 44 49 47 50 50 52 54 57 56 54 57 57 61 63 64 68 69 70 71 72 72 72 70 71 71 72 72 72 72 72 70 72 71 70 70 71 71 71 70 70 70 70 70
63 65 60 50 46 48 49 50 51 51 53 55 54 53 57 57 57 60 63 64 65 68 70 70 71 72 72 72 71 72 71 72 72 72 71 69 71 71 70 70 69 70 70 71 70 71 71 70 71
58 59 52 48 47 49 51 51 52 52 54 54 54 53 55 64 63 62 64 65 66 68 68 69 72 72 72 72 71 72 72 71 71 71 71 71 71 71 71 71 70 69 69 70 69 70 71 70 69
56 56 46 45 47 50 51 53 55 55 56 55 53 53 59 66 63 63 64 65 67 67 68 69 72 71 72 72 72 72 71 72 71 71 71 71 71 71 70 71 70 68 69 69 69 69 70 70 70
55 54 50 48 48 49 51 55 54 53 54 54 54 54 61 65 65 66 66 66 66 65 67 69 68 71 72 72 72 72 72 71 71 70 70 71 70 70 70 69 68 68 67 68 69 69 69 69 70
58 56 50 49 47 48 52 55 56 54 56 57 56 54 57 64 67 66 66 66 67 67 67 69 70 70 69 71 72 72 72 72 71 71 71 71 71 71 71 71 70 68 67 67 68 69 70 70 70
61 53 49 48 48 49 54 54 56 58 55 56 59 56 60 66 66 64 65 67 68 68 69 71 70 71 70 71 71 72 72 72 71 71 73 72 70 69 68 71 71 71 70 69 68 69 70 71 71
56 52 52 58 57 51 52 53 56 54 54 58 60 62 64 65 64 62 63 64 65 65 68 70 70 69 71 72 72 72 72 72 72 72 72 71 71 71 71 70 69 71 70 69 65 68 67 66 65
57 53 57 58 58 56 53 53 54 53 51 57 56 61 62 62 63 64 63 62 61 63 67 69 70 71 71 72 72 71 71 70 71 71 70 71 70 68 67 67 65 66 66 64 64 64 64 66 66
56 58 58 59 58 58 55 56 53 54 53 57 59 61 62 62 63 63 60 60 62 65 66 68 69 71 71 70 71 70 68 68 68 70 71 70 66 66 67 67 66 66 67 68 69 67 69 69 68
56 58 59 60 59 58 58 56 53 53 58 58 60 61 61 61 62 61 61 63 64 64 66 68 69 70 71 70 70 68 67 66 67 69 70 68 66 65 65 66 66 67 68 68 69 69 69 68 67
58 58 59 59 59 58 57 57 53 56 59 59 60 59 60 60 61 62 63 63 64 64 66 67 68 70 70 69 70 69 68 67 68 69 70 69 65 64 66 67 67 69 70 70 70 69 69 67 64
58 56 57 59 60 57 59 55 53 57 57 58 58 59 60 60 62 62 63 63 64 64 66 66 67 68 69 70 70 70 71 70 69 68 69 69 70 69 70 69 68 69 71 72 71 69 69 64 62
54 53 52 56 59 58 57 50 57 57 56 57 58 59 59 60 61 62 63 63 64 64 66 67 65 66 68 69 70 69 70 69 69 68 69 69 70 71 70 69 69 70 72 71 70 67 65 64 64
53 48 50 53 58 58 57 51 57 57 55 55 57 58 58 59 60 62 62 63 63 65 66 67 67 67 68 70 69 70 69 69 68 67 68 70 71 71 71 70 68 71 71 71 70 68 66 64 63
44 49 49 50 54 57 55 54 57 57 56 56 56 57 58 58 59 61 62 63 64 65 66 67 68 68 69 69 70 69 68 67 66 65 67 70 71 71 72 69 68 72 70 70 69 69 68 66 66
42 50 48 51 55 53 55 55 55 56 56 55 56 57 58 58 58 60 62 63 63 65 66 67 67 68 68 68 67 67 66 68 66 67 70 71 72 72 71 67 69 71 71 72 72 70 69 66 68
47 49 50 53 55 54 54 54 56 56 55 56 56 56 57 57 58 60 61 62 63 64 65 67 67 69 69 68 68 67 68 68 68 69 71 71 71 72 71 70 70 71 70 71 72 71 68 67 69
48 46 50 50 55 55 54 51 53 58 59 57 55 55 56 56 57 59 61 61 63 64 65 66 67 68 69 68 69 69 69 69 69 70 70 71 71 72 72 71 71 70 71 69 72 71 70 65 66
42 49 50 52 50 47 54 45 51 56 56 57 55 53 54 55 57 58 60 61 62 63 65 66 67 68 69 70 68 67 65 64 66 68 70 71 71 71 71 71 71 72 71 72 71 71 71 70 65
46 51 50 49 48 48 50 47 48 54 53 55 56 55 53 54 55 56 59 60 61 63 64 65 66 67 68 69 69 67 66 65 67 69 69 71 71 71 71 72 71 72 70 72 72 71 72 69 67
52 49 49 48 47 42 44 46 43 50 52 53 56 56 55 53 55 56 59 61 61 62 63 64 66 66 67 68 70 69 68 67 67 68 67 68 69 70 72 71 72 72 71 71 70 72 72 71 70
48 45 40 40 40 38 46 46 43 47 51 53 54 56 56 55 55 57 60 61 61 62 63 64 65 65 66 67 69 69 68 69 68 68 67 68 67 68 70 71 72 71 72 71 72 72 71 71 69
44 36 35 33 37 38 48 42 43 49 50 51 54 57 56 56 55 56 59 60 61 62 63 63 64 65 66 67 68 69 70 68 68 68 68 67 68 68 71 70 71 70 71 72 72 71 70 70 70
45 39 42 38 39 35 39 44 48 50 51 53 52 55 55 56 55 55 58 60 61 62 63 64 64 65 66 66 68 69 69 69 67 69 70 68 69 69 70 70 70 71 71 72 72 69 71 71 71
46 45 40 39 33 31 33 39 42 51 54 53 53 54 55 55 57 57 59 59 61 61 62 63 64 65 65 66 67 68 69 69 69 70 69 69 69 69 69 69 70 70 71 71 72 71 71 71 70
44 43 40 37 37 30 29 32 53 54 57 54 52 52 53 55 56 58 59 59 60 61 61 62 64 65 65 65 66 67 68 69 69 69 69 70 69 69 68 69 69 70 71 71 72 72 71 71 70
39 37 40 33 30 34 32 30 54 56 56 57 55 53 52 54 58 59 59 60 61 61 61 62 64 64 65 65 66 67 68 69 68 69 69 70 70 70 70 68 68 68 70 71 71 70 68 70 69

GFSSGP_sfc_30mbdewp_126.txt.gz
Dewpoint
66 65 66 65 51 42 41 44 46 46 47 49 50 49 50 52 50 52 59 61 62 64 66 66 69 69 69 71 72 71 70 70 71 72 72 72 71 71 71 71 71 71 71 71 71 71 71 71 71
65 65 66 61 43 37 41 45 44 47 48 50 49 51 49 52 55 56 57 59 61 61 64 67 70 69 69 71 71 71 71 71 71 71 71 71 71 71 71 71 71 71 70 70 70 70 70 71 71
65 66 60 49 43 39 42 46 47 48 50 50 51 53 51 52 56 56 58 59 61 63 64 67 70 71 71 70 71 71 71 71 71 72 71 70 71 71 70 71 71 71 70 70 70 71 70 71 71
61 63 58 45 42 47 46 47 49 49 51 52 51 52 54 55 55 56 58 60 62 63 63 70 72 71 71 71 71 71 71 71 71 70 70 71 71 70 69 70 71 71 70 71 71 71 71 70 71
58 57 48 43 46 47 48 49 50 50 51 52 51 48 54 59 57 58 59 60 61 62 62 67 72 72 71 71 72 72 72 71 71 71 71 71 71 70 71 70 69 70 70 70 70 71 70 70 69
55 55 45 42 46 49 50 51 51 52 54 53 50 51 56 58 57 58 60 60 61 60 62 65 71 72 71 72 72 72 72 71 72 71 71 71 71 71 71 70 69 70 70 70 70 71 70 70 70
53 51 46 45 47 49 52 53 50 51 51 51 50 50 58 57 58 60 60 61 60 60 62 62 64 70 71 72 72 72 71 71 71 71 71 71 70 70 69 69 68 68 69 69 70 70 70 70 71
56 53 46 44 44 47 52 53 52 50 51 53 50 51 55 59 61 61 61 60 60 59 61 62 63 66 67 68 72 72 71 71 71 71 71 71 70 70 69 70 68 67 67 68 69 70 70 70 70
57 50 46 44 45 49 52 52 55 55 53 51 55 51 55 61 61 59 60 60 60 60 62 63 65 68 70 69 71 71 71 71 71 71 71 69 62 63 65 71 70 69 68 67 68 69 70 69 69
54 50 52 57 52 49 50 52 52 50 50 54 54 56 59 60 59 57 57 58 56 60 62 63 64 65 67 68 69 68 67 65 65 65 66 63 65 67 65 68 71 70 70 68 69 69 67 67 61
56 52 58 58 55 50 51 52 54 48 47 52 54 56 57 58 58 56 56 56 55 60 62 63 65 67 66 67 66 65 64 64 66 68 65 67 65 66 65 65 63 64 66 62 63 63 62 64 63
53 57 57 59 56 53 51 52 53 50 49 53 55 56 57 57 57 57 56 55 55 60 62 63 65 67 65 65 62 63 63 63 62 66 68 67 63 64 65 62 64 64 64 66 65 63 67 66 65
54 56 58 59 58 56 55 52 51 53 53 53 55 56 55 56 57 58 56 56 58 59 62 63 66 67 67 65 62 62 62 61 63 65 67 65 63 63 62 66 64 66 66 65 65 65 65 64 60
56 56 59 60 59 57 54 53 51 53 53 54 54 54 55 56 56 57 57 57 59 59 61 64 65 68 67 66 67 65 63 64 63 64 66 67 63 64 65 66 64 66 66 66 65 66 63 60 58
57 55 56 58 59 56 57 54 51 54 53 53 52 53 55 57 57 58 59 59 60 60 62 64 65 66 67 67 67 65 64 63 62 63 68 67 68 69 69 65 65 66 68 70 68 66 64 59 56
53 53 50 56 58 57 55 46 53 55 53 53 52 53 55 56 57 58 59 59 59 59 62 63 62 64 66 67 67 64 65 64 64 64 65 68 69 70 69 65 65 69 68 67 65 62 60 59 57
50 44 48 52 58 57 53 50 55 55 53 52 51 53 55 56 58 59 59 59 58 61 64 63 63 64 65 68 66 66 67 65 65 65 65 70 68 69 67 66 67 71 67 67 62 62 60 60 58
40 43 47 49 54 56 54 52 56 55 53 53 51 51 54 55 57 59 58 59 59 62 65 65 65 66 67 68 68 65 64 65 65 64 65 68 68 69 69 65 68 69 65 65 66 65 64 62 60
34 45 47 50 54 54 54 52 54 56 54 55 52 50 53 53 56 58 59 59 60 61 63 65 66 68 68 66 64 64 63 64 63 64 66 68 68 70 70 66 67 68 66 70 69 66 66 63 66
37 43 47 52 53 54 54 54 56 56 56 56 54 51 52 52 54 57 58 59 60 62 63 65 66 67 69 67 65 64 64 63 63 65 67 68 68 69 69 69 67 69 66 69 71 70 63 64 66
37 40 42 45 53 55 53 50 55 56 56 56 55 52 51 51 52 57 58 58 59 61 63 64 67 67 69 67 67 68 68 67 67 67 66 68 69 68 71 70 69 69 69 65 69 69 69 61 65
34 45 44 47 49 45 53 45 51 54 56 57 55 54 51 50 52 54 57 59 59 60 62 64 67 68 67 68 66 65 63 61 63 66 65 67 69 69 70 69 70 70 68 69 67 68 70 70 62
39 45 44 45 44 45 49 46 48 52 54 55 55 54 52 50 50 53 56 58 59 60 62 63 66 67 67 68 69 66 63 62 64 64 67 68 69 69 69 70 70 70 68 70 69 68 71 67 66
46 44 44 46 43 40 43 43 46 50 53 54 54 54 53 51 50 52 54 57 59 60 62 63 66 67 68 69 67 66 64 65 63 65 66 64 65 65 69 69 70 71 69 69 69 70 70 69 69
44 42 30 37 37 36 42 42 42 46 49 54 53 54 54 54 51 52 53 55 59 60 62 63 65 67 67 67 67 66 66 66 65 66 63 64 64 64 65 69 69 67 67 68 69 70 69 69 68
38 33 25 30 33 35 44 39 45 49 51 50 50 53 54 54 53 51 54 56 59 60 62 62 64 66 66 66 66 67 68 67 65 66 63 66 64 64 67 68 68 68 68 69 69 68 68 67 67
33 35 31 32 34 32 36 38 47 49 53 52 50 51 54 54 53 51 53 57 59 60 61 62 63 66 65 64 65 66 68 68 65 66 68 67 68 67 70 70 69 69 69 69 69 68 68 68 68
41 38 30 30 32 31 32 33 37 49 53 53 50 50 54 55 54 51 53 56 59 60 61 62 63 64 65 64 64 65 67 68 68 69 67 68 68 70 70 69 69 69 69 70 70 68 68 69 68
41 40 36 37 39 36 32 31 47 53 55 55 53 54 55 55 56 55 54 55 58 59 59 61 63 63 64 64 64 64 65 65 68 68 69 68 69 70 70 70 69 69 70 70 71 70 68 68 68
39 37 37 32 35 32 36 34 51 56 56 56 54 53 55 56 56 58 59 58 58 59 59 60 62 63 64 63 64 65 65 66 66 68 67 68 69 70 70 69 70 70 69 70 70 69 67 67 67